<?xml version='1.0' encoding='UTF-8'?>
<gpx xmlns="http://www.topografix.com/GPX/1/1" creator="www.balnam.be" version="1.1" xmlns:xsi="http://www.w3.org/2001/XMLSchema-instance" xsi:schemaLocation="http://www.topografix.com/GPX/1/1 http://www.topografix.com/GPX/1/1/gpx.xsd">
<trk>
<name>lstsp1</name>
<cmt>v</cmt>
<desc>Sprimont Chemin n°1 Rue de Rabohaye</desc>
<link href="https://chemins.be/sprimont/chemin/1"/><trkseg>
<trkpt lat="50.496279" lon="5.656790"><time>2026-05-02T16:47:55Z</time></trkpt>
<trkpt lat="50.496129" lon="5.658465"><time>2026-05-02T16:57:55Z</time></trkpt>
</trkseg></trk>
<trk>
<name>lstsp1</name>
<cmt>r</cmt>
<desc>Sprimont Chemin n°1 Rue de Rabohaye</desc>
<link href="https://chemins.be/sprimont/chemin/1"/><trkseg>
<trkpt lat="50.496129" lon="5.658465"><time>2026-05-02T16:57:55Z</time></trkpt>
<trkpt lat="50.495815" lon="5.662948"><time>2026-05-02T17:07:55Z</time></trkpt>
<trkpt lat="50.495386" lon="5.666105"><time>2026-05-02T17:17:55Z</time></trkpt>
<trkpt lat="50.495359" lon="5.668015"><time>2026-05-02T17:27:55Z</time></trkpt>
<trkpt lat="50.495571" lon="5.669415"><time>2026-05-02T17:37:55Z</time></trkpt>
<trkpt lat="50.497125" lon="5.674363"><time>2026-05-02T17:47:55Z</time></trkpt>
</trkseg></trk>
<trk>
<name>lstsp1</name>
<cmt>v</cmt>
<desc>Sprimont Chemin n°1 Rue de Rabohaye</desc>
<link href="https://chemins.be/sprimont/chemin/1"/><trkseg>
<trkpt lat="50.497125" lon="5.674363"><time>2026-05-02T17:47:55Z</time></trkpt>
<trkpt lat="50.497479" lon="5.675163"><time>2026-05-02T17:57:55Z</time></trkpt>
<trkpt lat="50.498471" lon="5.677528"><time>2026-05-02T18:07:55Z</time></trkpt>
<trkpt lat="50.499912" lon="5.680969"><time>2026-05-02T18:17:55Z</time></trkpt>
<trkpt lat="50.501213" lon="5.684824"><time>2026-05-02T18:27:55Z</time></trkpt>
<trkpt lat="50.503069" lon="5.689630"><time>2026-05-02T18:37:55Z</time></trkpt>
<trkpt lat="50.504674" lon="5.691911"><time>2026-05-02T18:47:55Z</time></trkpt>
</trkseg></trk>
<trk>
<name>lstsp1</name>
<cmt>s</cmt>
<desc>Sprimont Chemin n°1 Rue de Rabohaye</desc>
<link href="https://chemins.be/sprimont/chemin/1"/><trkseg>
<trkpt lat="50.504674" lon="5.691911"><time>2026-05-02T18:47:55Z</time></trkpt>
<trkpt lat="50.506010" lon="5.693858"><time>2026-05-02T18:57:55Z</time></trkpt>
</trkseg></trk>
<trk>
<name>lstsp1</name>
<cmt>v</cmt>
<desc>Sprimont Chemin n°1 Rue de Rabohaye</desc>
<link href="https://chemins.be/sprimont/chemin/1"/><trkseg>
<trkpt lat="50.506010" lon="5.693858"><time>2026-05-02T18:57:55Z</time></trkpt>
<trkpt lat="50.507156" lon="5.695317"><time>2026-05-02T19:07:55Z</time></trkpt>
<trkpt lat="50.507748" lon="5.696937"><time>2026-05-02T19:17:55Z</time></trkpt>
</trkseg>
</trk>
<trk>
<name>lstsp10</name>
<cmt>v</cmt>
<desc>Sprimont Chemin n°10 Flagothier / Rue des Vieux Moulins</desc>
<link href="https://chemins.be/sprimont/chemin/10"/><trkseg>
<trkpt lat="50.521842" lon="5.599824"><time>2026-05-02T16:47:55Z</time></trkpt>
<trkpt lat="50.521414" lon="5.600060"><time>2026-05-02T16:57:55Z</time></trkpt>
<trkpt lat="50.521291" lon="5.600259"><time>2026-05-02T17:07:55Z</time></trkpt>
<trkpt lat="50.521148" lon="5.600493"><time>2026-05-02T17:17:55Z</time></trkpt>
<trkpt lat="50.520501" lon="5.600736"><time>2026-05-02T17:27:55Z</time></trkpt>
</trkseg></trk>
<trk>
<name>lstsp10</name>
<cmt>d</cmt>
<desc>Sprimont Chemin n°10 Flagothier / Rue des Vieux Moulins</desc>
<link href="https://chemins.be/sprimont/chemin/10"/><trkseg>
<trkpt lat="50.520501" lon="5.600736"><time>2026-05-02T17:27:55Z</time></trkpt>
<trkpt lat="50.520102" lon="5.600954"><time>2026-05-02T17:37:55Z</time></trkpt>
</trkseg></trk>
<trk>
<name>lstsp10</name>
<cmt>v</cmt>
<desc>Sprimont Chemin n°10 Flagothier / Rue des Vieux Moulins</desc>
<link href="https://chemins.be/sprimont/chemin/10"/><trkseg>
<trkpt lat="50.520102" lon="5.600954"><time>2026-05-02T17:37:55Z</time></trkpt>
<trkpt lat="50.519994" lon="5.601467"><time>2026-05-02T17:47:55Z</time></trkpt>
</trkseg></trk>
<trk>
<name>lstsp10</name>
<cmt>r</cmt>
<desc>Sprimont Chemin n°10 Flagothier / Rue des Vieux Moulins</desc>
<link href="https://chemins.be/sprimont/chemin/10"/><trkseg>
<trkpt lat="50.519994" lon="5.601467"><time>2026-05-02T17:47:55Z</time></trkpt>
<trkpt lat="50.519819" lon="5.602376"><time>2026-05-02T17:57:55Z</time></trkpt>
<trkpt lat="50.519887" lon="5.602730"><time>2026-05-02T18:07:55Z</time></trkpt>
</trkseg>
</trk>
<trk>
<name>lstsp100</name>
<cmt>v</cmt>
<desc>Sprimont Chemin n°100 La Haze</desc>
<link href="https://chemins.be/sprimont/chemin/100"/><trkseg>
<trkpt lat="50.526566" lon="5.610558"><time>2026-05-02T16:47:55Z</time></trkpt>
<trkpt lat="50.525439" lon="5.609978"><time>2026-05-02T16:57:55Z</time></trkpt>
<trkpt lat="50.524941" lon="5.609443"><time>2026-05-02T17:07:55Z</time></trkpt>
<trkpt lat="50.524426" lon="5.609670"><time>2026-05-02T17:17:55Z</time></trkpt>
<trkpt lat="50.523868" lon="5.610369"><time>2026-05-02T17:27:55Z</time></trkpt>
<trkpt lat="50.523636" lon="5.611271"><time>2026-05-02T17:37:55Z</time></trkpt>
<trkpt lat="50.522648" lon="5.610328"><time>2026-05-02T17:47:55Z</time></trkpt>
<trkpt lat="50.522651" lon="5.609186"><time>2026-05-02T17:57:55Z</time></trkpt>
<trkpt lat="50.522944" lon="5.607840"><time>2026-05-02T18:07:55Z</time></trkpt>
</trkseg>
</trk>
<trk>
<name>lstsp101</name>
<cmt>v</cmt>
<desc>Sprimont Chemin n°101 Rue de la Croix</desc>
<link href="https://chemins.be/sprimont/chemin/101"/><trkseg>
<trkpt lat="50.494783" lon="5.646895"><time>2026-05-02T16:47:55Z</time></trkpt>
<trkpt lat="50.494213" lon="5.644793"><time>2026-05-02T16:57:55Z</time></trkpt>
<trkpt lat="50.493951" lon="5.641587"><time>2026-05-02T17:07:55Z</time></trkpt>
</trkseg>
</trk>
<trk>
<name>lstsp102</name>
<cmt>v</cmt>
<desc>Sprimont Chemin n°102 La Haze</desc>
<link href="https://chemins.be/sprimont/chemin/102"/><trkseg>
<trkpt lat="50.523618" lon="5.611271"><time>2026-05-02T16:47:55Z</time></trkpt>
<trkpt lat="50.523540" lon="5.611833"><time>2026-05-02T16:57:55Z</time></trkpt>
<trkpt lat="50.523506" lon="5.611951"><time>2026-05-02T17:07:55Z</time></trkpt>
<trkpt lat="50.523935" lon="5.612703"><time>2026-05-02T17:17:55Z</time></trkpt>
<trkpt lat="50.523923" lon="5.612985"><time>2026-05-02T17:27:55Z</time></trkpt>
<trkpt lat="50.523660" lon="5.614092"><time>2026-05-02T17:37:55Z</time></trkpt>
<trkpt lat="50.523889" lon="5.615340"><time>2026-05-02T17:47:55Z</time></trkpt>
<trkpt lat="50.523901" lon="5.616082"><time>2026-05-02T17:57:55Z</time></trkpt>
<trkpt lat="50.524366" lon="5.616424"><time>2026-05-02T18:07:55Z</time></trkpt>
<trkpt lat="50.525077" lon="5.616544"><time>2026-05-02T18:17:55Z</time></trkpt>
</trkseg>
</trk>
<trk>
<name>lstsp103</name>
<cmt>s</cmt>
<desc>Sprimont Chemin n°103 </desc>
<link href="https://chemins.be/sprimont/chemin/103"/><trkseg>
<trkpt lat="50.519242" lon="5.614720"><time>2026-05-02T16:47:55Z</time></trkpt>
<trkpt lat="50.520672" lon="5.615135"><time>2026-05-02T16:57:55Z</time></trkpt>
<trkpt lat="50.523790" lon="5.615993"><time>2026-05-02T17:07:55Z</time></trkpt>
<trkpt lat="50.523890" lon="5.616105"><time>2026-05-02T17:17:55Z</time></trkpt>
</trkseg>
</trk>
<trk>
<name>lstsp105</name>
<cmt>d</cmt>
<desc>Sprimont Chemin n°105 </desc>
<link href="https://chemins.be/sprimont/chemin/105"/><trkseg>
<trkpt lat="50.502589" lon="5.597579"><time>2026-05-02T16:47:55Z</time></trkpt>
<trkpt lat="50.503215" lon="5.597514"><time>2026-05-02T16:57:55Z</time></trkpt>
<trkpt lat="50.503421" lon="5.597556"><time>2026-05-02T17:07:55Z</time></trkpt>
<trkpt lat="50.503608" lon="5.596642"><time>2026-05-02T17:17:55Z</time></trkpt>
</trkseg>
</trk>
<trk>
<name>lstsp106</name>
<cmt>v</cmt>
<desc>Sprimont Sentier n°106 </desc>
<link href="https://chemins.be/sprimont/sentier/106"/><trkseg>
<trkpt lat="50.508939" lon="5.600399"><time>2026-05-02T16:47:55Z</time></trkpt>
<trkpt lat="50.508714" lon="5.600188"><time>2026-05-02T16:57:55Z</time></trkpt>
<trkpt lat="50.508625" lon="5.600091"><time>2026-05-02T17:07:55Z</time></trkpt>
<trkpt lat="50.508499" lon="5.600055"><time>2026-05-02T17:17:55Z</time></trkpt>
<trkpt lat="50.508380" lon="5.600048"><time>2026-05-02T17:27:55Z</time></trkpt>
<trkpt lat="50.508219" lon="5.600075"><time>2026-05-02T17:37:55Z</time></trkpt>
<trkpt lat="50.508059" lon="5.600113"><time>2026-05-02T17:47:55Z</time></trkpt>
<trkpt lat="50.507929" lon="5.600118"><time>2026-05-02T17:57:55Z</time></trkpt>
<trkpt lat="50.507755" lon="5.600129"><time>2026-05-02T18:07:55Z</time></trkpt>
<trkpt lat="50.507479" lon="5.600145"><time>2026-05-02T18:17:55Z</time></trkpt>
<trkpt lat="50.507329" lon="5.600150"><time>2026-05-02T18:27:55Z</time></trkpt>
<trkpt lat="50.507097" lon="5.600096"><time>2026-05-02T18:37:55Z</time></trkpt>
<trkpt lat="50.506841" lon="5.599866"><time>2026-05-02T18:47:55Z</time></trkpt>
<trkpt lat="50.506561" lon="5.599594"><time>2026-05-02T18:57:55Z</time></trkpt>
<trkpt lat="50.506240" lon="5.599245"><time>2026-05-02T19:07:55Z</time></trkpt>
<trkpt lat="50.505814" lon="5.598827"><time>2026-05-02T19:17:55Z</time></trkpt>
<trkpt lat="50.505466" lon="5.598569"><time>2026-05-02T19:27:55Z</time></trkpt>
<trkpt lat="50.505350" lon="5.598468"><time>2026-05-02T19:37:55Z</time></trkpt>
</trkseg>
</trk>
<trk>
<name>lstsp108</name>
<cmt>v</cmt>
<desc>Sprimont Chemin n°108 </desc>
<link href="https://chemins.be/sprimont/chemin/108"/><trkseg>
<trkpt lat="50.485705" lon="5.649218"><time>2026-05-02T16:47:55Z</time></trkpt>
<trkpt lat="50.484747" lon="5.649290"><time>2026-05-02T16:57:55Z</time></trkpt>
<trkpt lat="50.484311" lon="5.648745"><time>2026-05-02T17:07:55Z</time></trkpt>
</trkseg>
</trk>
<trk>
<name>lstsp11</name>
<cmt>v</cmt>
<desc>Sprimont Chemin n°11 Voie de la Sauvenière</desc>
<link href="https://chemins.be/sprimont/chemin/11"/><trkseg>
<trkpt lat="50.521475" lon="5.598831"><time>2026-05-02T16:47:55Z</time></trkpt>
<trkpt lat="50.521370" lon="5.598575"><time>2026-05-02T16:57:55Z</time></trkpt>
<trkpt lat="50.520751" lon="5.595907"><time>2026-05-02T17:07:55Z</time></trkpt>
<trkpt lat="50.520533" lon="5.595253"><time>2026-05-02T17:17:55Z</time></trkpt>
<trkpt lat="50.520094" lon="5.594198"><time>2026-05-02T17:27:55Z</time></trkpt>
<trkpt lat="50.519573" lon="5.592478"><time>2026-05-02T17:37:55Z</time></trkpt>
<trkpt lat="50.518917" lon="5.590698"><time>2026-05-02T17:47:55Z</time></trkpt>
<trkpt lat="50.518921" lon="5.590317"><time>2026-05-02T17:57:55Z</time></trkpt>
<trkpt lat="50.519034" lon="5.589869"><time>2026-05-02T18:07:55Z</time></trkpt>
</trkseg>
</trk>
<trk>
<name>lstsp110</name>
<cmt>q</cmt>
<desc>Sprimont Chemin n°110 </desc>
<link href="https://chemins.be/sprimont/chemin/110"/><trkseg>
<trkpt lat="50.480125" lon="5.654419"><time>2026-05-02T16:47:55Z</time></trkpt>
<trkpt lat="50.479912" lon="5.653300"><time>2026-05-02T16:57:55Z</time></trkpt>
<trkpt lat="50.478883" lon="5.652877"><time>2026-05-02T17:07:55Z</time></trkpt>
<trkpt lat="50.478178" lon="5.654028"><time>2026-05-02T17:17:55Z</time></trkpt>
<trkpt lat="50.478004" lon="5.655136"><time>2026-05-02T17:27:55Z</time></trkpt>
<trkpt lat="50.477756" lon="5.655623"><time>2026-05-02T17:37:55Z</time></trkpt>
</trkseg>
</trk>
<trk>
<name>lstsp111</name>
<cmt>v</cmt>
<desc>Sprimont Chemin n°111 </desc>
<link href="https://chemins.be/sprimont/chemin/111"/><trkseg>
<trkpt lat="50.479894" lon="5.653327"><time>2026-05-02T16:47:55Z</time></trkpt>
<trkpt lat="50.480665" lon="5.651869"><time>2026-05-02T16:57:55Z</time></trkpt>
<trkpt lat="50.481212" lon="5.650432"><time>2026-05-02T17:07:55Z</time></trkpt>
<trkpt lat="50.481410" lon="5.649564"><time>2026-05-02T17:17:55Z</time></trkpt>
<trkpt lat="50.482003" lon="5.650468"><time>2026-05-02T17:27:55Z</time></trkpt>
<trkpt lat="50.482700" lon="5.650811"><time>2026-05-02T17:37:55Z</time></trkpt>
<trkpt lat="50.483781" lon="5.651502"><time>2026-05-02T17:47:55Z</time></trkpt>
<trkpt lat="50.483935" lon="5.651394"><time>2026-05-02T17:57:55Z</time></trkpt>
</trkseg></trk>
<trk>
<name>lstsp111</name>
<cmt>q</cmt>
<desc>Sprimont Chemin n°111 </desc>
<link href="https://chemins.be/sprimont/chemin/111"/><trkseg>
<trkpt lat="50.483935" lon="5.651394"><time>2026-05-02T17:57:55Z</time></trkpt>
<trkpt lat="50.484371" lon="5.650705"><time>2026-05-02T18:07:55Z</time></trkpt>
<trkpt lat="50.484731" lon="5.649301"><time>2026-05-02T18:17:55Z</time></trkpt>
</trkseg>
</trk>
<trk>
<name>lstsp112</name>
<cmt>v</cmt>
<desc>Sprimont Chemin n°112 </desc>
<link href="https://chemins.be/sprimont/chemin/112"/><trkseg>
<trkpt lat="50.481419" lon="5.649606"><time>2026-05-02T16:47:55Z</time></trkpt>
<trkpt lat="50.481650" lon="5.650627"><time>2026-05-02T16:57:55Z</time></trkpt>
<trkpt lat="50.481708" lon="5.651080"><time>2026-05-02T17:07:55Z</time></trkpt>
<trkpt lat="50.481950" lon="5.653566"><time>2026-05-02T17:17:55Z</time></trkpt>
</trkseg>
</trk>
<trk>
<name>lstsp116</name>
<cmt>v</cmt>
<desc>Sprimont Chemin n°116 </desc>
<link href="https://chemins.be/sprimont/chemin/116"/><trkseg>
<trkpt lat="50.512449" lon="5.626161"><time>2026-05-02T16:47:55Z</time></trkpt>
<trkpt lat="50.511755" lon="5.625153"><time>2026-05-02T16:57:55Z</time></trkpt>
<trkpt lat="50.511505" lon="5.623898"><time>2026-05-02T17:07:55Z</time></trkpt>
<trkpt lat="50.511210" lon="5.622989"><time>2026-05-02T17:17:55Z</time></trkpt>
<trkpt lat="50.511130" lon="5.622546"><time>2026-05-02T17:27:55Z</time></trkpt>
</trkseg></trk>
<trk>
<name>lstsp116</name>
<cmt>q</cmt>
<desc>Sprimont Chemin n°116 </desc>
<link href="https://chemins.be/sprimont/chemin/116"/><trkseg>
<trkpt lat="50.511130" lon="5.622546"><time>2026-05-02T17:27:55Z</time></trkpt>
<trkpt lat="50.510843" lon="5.621823"><time>2026-05-02T17:37:55Z</time></trkpt>
</trkseg></trk>
<trk>
<name>lstsp116</name>
<cmt>d</cmt>
<desc>Sprimont Chemin n°116 </desc>
<link href="https://chemins.be/sprimont/chemin/116"/><trkseg>
<trkpt lat="50.510843" lon="5.621823"><time>2026-05-02T17:37:55Z</time></trkpt>
<trkpt lat="50.510427" lon="5.618980"><time>2026-05-02T17:47:55Z</time></trkpt>
</trkseg></trk>
<trk>
<name>lstsp116</name>
<cmt>v</cmt>
<desc>Sprimont Chemin n°116 </desc>
<link href="https://chemins.be/sprimont/chemin/116"/><trkseg>
<trkpt lat="50.510427" lon="5.618980"><time>2026-05-02T17:47:55Z</time></trkpt>
<trkpt lat="50.510198" lon="5.618004"><time>2026-05-02T17:57:55Z</time></trkpt>
<trkpt lat="50.508820" lon="5.612853"><time>2026-05-02T18:07:55Z</time></trkpt>
<trkpt lat="50.506359" lon="5.608283"><time>2026-05-02T18:17:55Z</time></trkpt>
<trkpt lat="50.505917" lon="5.608132"><time>2026-05-02T18:27:55Z</time></trkpt>
<trkpt lat="50.505981" lon="5.607453"><time>2026-05-02T18:37:55Z</time></trkpt>
<trkpt lat="50.505803" lon="5.607011"><time>2026-05-02T18:47:55Z</time></trkpt>
</trkseg></trk>
<trk>
<name>lstsp116</name>
<cmt>d</cmt>
<desc>Sprimont Chemin n°116 </desc>
<link href="https://chemins.be/sprimont/chemin/116"/><trkseg>
<trkpt lat="50.505803" lon="5.607011"><time>2026-05-02T18:47:55Z</time></trkpt>
<trkpt lat="50.505412" lon="5.604799"><time>2026-05-02T18:57:55Z</time></trkpt>
<trkpt lat="50.505162" lon="5.602961"><time>2026-05-02T19:07:55Z</time></trkpt>
</trkseg>
</trk>
<trk>
<name>lstsp117</name>
<cmt>v</cmt>
<desc>Sprimont Sentier n°117 Rue de la Préalle</desc>
<link href="https://chemins.be/sprimont/sentier/117"/><trkseg>
<trkpt lat="50.512818" lon="5.628989"><time>2026-05-02T16:47:55Z</time></trkpt>
<trkpt lat="50.512603" lon="5.628982"><time>2026-05-02T16:57:55Z</time></trkpt>
<trkpt lat="50.512445" lon="5.628869"><time>2026-05-02T17:07:55Z</time></trkpt>
<trkpt lat="50.512241" lon="5.628306"><time>2026-05-02T17:17:55Z</time></trkpt>
<trkpt lat="50.511285" lon="5.628114"><time>2026-05-02T17:27:55Z</time></trkpt>
</trkseg></trk>
<trk>
<name>lstsp117</name>
<cmt>q</cmt>
<desc>Sprimont Sentier n°117 Rue de la Préalle</desc>
<link href="https://chemins.be/sprimont/sentier/117"/><trkseg>
<trkpt lat="50.511285" lon="5.628114"><time>2026-05-02T17:27:55Z</time></trkpt>
<trkpt lat="50.510505" lon="5.626994"><time>2026-05-02T17:37:55Z</time></trkpt>
<trkpt lat="50.510084" lon="5.626455"><time>2026-05-02T17:47:55Z</time></trkpt>
</trkseg></trk>
<trk>
<name>lstsp117</name>
<cmt>v</cmt>
<desc>Sprimont Sentier n°117 Rue de la Préalle</desc>
<link href="https://chemins.be/sprimont/sentier/117"/><trkseg>
<trkpt lat="50.510084" lon="5.626455"><time>2026-05-02T17:47:55Z</time></trkpt>
<trkpt lat="50.509479" lon="5.625818"><time>2026-05-02T17:57:55Z</time></trkpt>
</trkseg></trk>
<trk>
<name>lstsp117</name>
<cmt>d</cmt>
<desc>Sprimont Sentier n°117 Rue de la Préalle</desc>
<link href="https://chemins.be/sprimont/sentier/117"/><trkseg>
<trkpt lat="50.509479" lon="5.625818"><time>2026-05-02T17:57:55Z</time></trkpt>
<trkpt lat="50.507987" lon="5.624364"><time>2026-05-02T18:07:55Z</time></trkpt>
</trkseg></trk>
<trk>
<name>lstsp117</name>
<cmt>r</cmt>
<desc>Sprimont Sentier n°117 Rue de la Préalle</desc>
<link href="https://chemins.be/sprimont/sentier/117"/><trkseg>
<trkpt lat="50.507987" lon="5.624364"><time>2026-05-02T18:07:55Z</time></trkpt>
<trkpt lat="50.506327" lon="5.621946"><time>2026-05-02T18:17:55Z</time></trkpt>
</trkseg></trk>
<trk>
<name>lstsp117</name>
<cmt>v</cmt>
<desc>Sprimont Sentier n°117 Rue de la Préalle</desc>
<link href="https://chemins.be/sprimont/sentier/117"/><trkseg>
<trkpt lat="50.506327" lon="5.621946"><time>2026-05-02T18:17:55Z</time></trkpt>
<trkpt lat="50.504661" lon="5.619522"><time>2026-05-02T18:27:55Z</time></trkpt>
</trkseg>
</trk>
<trk>
<name>lstsp118</name>
<cmt>d</cmt>
<desc>Sprimont Sentier n°118 </desc>
<link href="https://chemins.be/sprimont/sentier/118"/><trkseg>
<trkpt lat="50.509140" lon="5.635206"><time>2026-05-02T16:47:55Z</time></trkpt>
<trkpt lat="50.508733" lon="5.633203"><time>2026-05-02T16:57:55Z</time></trkpt>
</trkseg>
</trk>
<trk>
<name>lstsp119</name>
<cmt>v</cmt>
<desc>Sprimont Sentier n°119 </desc>
<link href="https://chemins.be/sprimont/sentier/119"/><trkseg>
<trkpt lat="50.510459" lon="5.634144"><time>2026-05-02T16:47:55Z</time></trkpt>
<trkpt lat="50.511244" lon="5.633800"><time>2026-05-02T16:57:55Z</time></trkpt>
</trkseg></trk>
<trk>
<name>lstsp119</name>
<cmt>s</cmt>
<desc>Sprimont Sentier n°119 </desc>
<link href="https://chemins.be/sprimont/sentier/119"/><trkseg>
<trkpt lat="50.511244" lon="5.633800"><time>2026-05-02T16:57:55Z</time></trkpt>
<trkpt lat="50.511510" lon="5.633571"><time>2026-05-02T17:07:55Z</time></trkpt>
</trkseg>
</trk>
<trk>
<name>lstsp120</name>
<cmt>v</cmt>
<desc>Sprimont Sentier n°120 </desc>
<link href="https://chemins.be/sprimont/sentier/120"/><trkseg>
<trkpt lat="50.512432" lon="5.629323"><time>2026-05-02T16:47:55Z</time></trkpt>
<trkpt lat="50.512642" lon="5.629562"><time>2026-05-02T16:57:55Z</time></trkpt>
<trkpt lat="50.512689" lon="5.629782"><time>2026-05-02T17:07:55Z</time></trkpt>
<trkpt lat="50.512732" lon="5.629835"><time>2026-05-02T17:17:55Z</time></trkpt>
</trkseg>
</trk>
<trk>
<name>lstsp121</name>
<cmt>v</cmt>
<desc>Sprimont Sentier n°121 </desc>
<link href="https://chemins.be/sprimont/sentier/121"/><trkseg>
<trkpt lat="50.512199" lon="5.622316"><time>2026-05-02T16:47:55Z</time></trkpt>
<trkpt lat="50.511007" lon="5.620370"><time>2026-05-02T16:57:55Z</time></trkpt>
<trkpt lat="50.510412" lon="5.618904"><time>2026-05-02T17:07:55Z</time></trkpt>
</trkseg>
</trk>
<trk>
<name>lstsp122</name>
<cmt>v</cmt>
<desc>Sprimont Chemin n°122 Li Gripète</desc>
<link href="https://chemins.be/sprimont/chemin/122"/><trkseg>
<trkpt lat="50.519467" lon="5.602516"><time>2026-05-02T16:47:55Z</time></trkpt>
<trkpt lat="50.519462" lon="5.603010"><time>2026-05-02T16:57:55Z</time></trkpt>
<trkpt lat="50.519499" lon="5.603758"><time>2026-05-02T17:07:55Z</time></trkpt>
<trkpt lat="50.519667" lon="5.604905"><time>2026-05-02T17:17:55Z</time></trkpt>
<trkpt lat="50.519687" lon="5.605512"><time>2026-05-02T17:27:55Z</time></trkpt>
<trkpt lat="50.519511" lon="5.606861"><time>2026-05-02T17:37:55Z</time></trkpt>
<trkpt lat="50.519548" lon="5.607596"><time>2026-05-02T17:47:55Z</time></trkpt>
<trkpt lat="50.519508" lon="5.607947"><time>2026-05-02T17:57:55Z</time></trkpt>
<trkpt lat="50.519424" lon="5.608269"><time>2026-05-02T18:07:55Z</time></trkpt>
<trkpt lat="50.519209" lon="5.609082"><time>2026-05-02T18:17:55Z</time></trkpt>
<trkpt lat="50.519037" lon="5.610036"><time>2026-05-02T18:27:55Z</time></trkpt>
<trkpt lat="50.518592" lon="5.611209"><time>2026-05-02T18:37:55Z</time></trkpt>
<trkpt lat="50.518317" lon="5.611981"><time>2026-05-02T18:47:55Z</time></trkpt>
</trkseg></trk>
<trk>
<name>lstsp122</name>
<cmt>q</cmt>
<desc>Sprimont Chemin n°122 Li Gripète</desc>
<link href="https://chemins.be/sprimont/chemin/122"/><trkseg>
<trkpt lat="50.518317" lon="5.611981"><time>2026-05-02T18:47:55Z</time></trkpt>
<trkpt lat="50.518170" lon="5.613820"><time>2026-05-02T18:57:55Z</time></trkpt>
</trkseg></trk>
<trk>
<name>lstsp122</name>
<cmt>v</cmt>
<desc>Sprimont Chemin n°122 Li Gripète</desc>
<link href="https://chemins.be/sprimont/chemin/122"/><trkseg>
<trkpt lat="50.518170" lon="5.613820"><time>2026-05-02T18:57:55Z</time></trkpt>
<trkpt lat="50.518117" lon="5.615729"><time>2026-05-02T19:07:55Z</time></trkpt>
<trkpt lat="50.518538" lon="5.616151"><time>2026-05-02T19:17:55Z</time></trkpt>
</trkseg>
</trk>
<trk>
<name>lstsp123</name>
<cmt>r</cmt>
<desc>Sprimont Sentier n°123 Rue des Fawes</desc>
<link href="https://chemins.be/sprimont/sentier/123"/><trkseg>
<trkpt lat="50.527741" lon="5.592902"><time>2026-05-02T16:47:55Z</time></trkpt>
<trkpt lat="50.527526" lon="5.594259"><time>2026-05-02T16:57:55Z</time></trkpt>
<trkpt lat="50.526026" lon="5.595445"><time>2026-05-02T17:07:55Z</time></trkpt>
</trkseg>
</trk>
<trk>
<name>lstsp124</name>
<cmt>v</cmt>
<desc>Sprimont Chemin n°124 </desc>
<link href="https://chemins.be/sprimont/chemin/124"/><trkseg>
<trkpt lat="50.529371" lon="5.591857"><time>2026-05-02T16:47:55Z</time></trkpt>
<trkpt lat="50.529642" lon="5.593500"><time>2026-05-02T16:57:55Z</time></trkpt>
<trkpt lat="50.529755" lon="5.595562"><time>2026-05-02T17:07:55Z</time></trkpt>
<trkpt lat="50.530082" lon="5.597814"><time>2026-05-02T17:17:55Z</time></trkpt>
</trkseg>
</trk>
<trk>
<name>lstsp125</name>
<cmt>r</cmt>
<desc>Sprimont Chemin n°125 </desc>
<link href="https://chemins.be/sprimont/chemin/125"/><trkseg>
<trkpt lat="50.527036" lon="5.607789"><time>2026-05-02T16:47:55Z</time></trkpt>
<trkpt lat="50.528282" lon="5.607889"><time>2026-05-02T16:57:55Z</time></trkpt>
<trkpt lat="50.529992" lon="5.607267"><time>2026-05-02T17:07:55Z</time></trkpt>
<trkpt lat="50.530519" lon="5.607310"><time>2026-05-02T17:17:55Z</time></trkpt>
<trkpt lat="50.532542" lon="5.606988"><time>2026-05-02T17:27:55Z</time></trkpt>
</trkseg></trk>
<trk>
<name>lstsp125</name>
<cmt>d</cmt>
<desc>Sprimont Chemin n°125 </desc>
<link href="https://chemins.be/sprimont/chemin/125"/><trkseg>
<trkpt lat="50.532542" lon="5.606988"><time>2026-05-02T17:27:55Z</time></trkpt>
<trkpt lat="50.534174" lon="5.606008"><time>2026-05-02T17:37:55Z</time></trkpt>
<trkpt lat="50.534761" lon="5.605143"><time>2026-05-02T17:47:55Z</time></trkpt>
<trkpt lat="50.535784" lon="5.605000"><time>2026-05-02T17:57:55Z</time></trkpt>
<trkpt lat="50.536612" lon="5.604582"><time>2026-05-02T18:07:55Z</time></trkpt>
<trkpt lat="50.537046" lon="5.604632"><time>2026-05-02T18:17:55Z</time></trkpt>
</trkseg></trk>
<trk>
<name>lstsp125</name>
<cmt>v</cmt>
<desc>Sprimont Chemin n°125 </desc>
<link href="https://chemins.be/sprimont/chemin/125"/><trkseg>
<trkpt lat="50.537046" lon="5.604632"><time>2026-05-02T18:17:55Z</time></trkpt>
<trkpt lat="50.537271" lon="5.605040"><time>2026-05-02T18:27:55Z</time></trkpt>
<trkpt lat="50.537707" lon="5.605283"><time>2026-05-02T18:37:55Z</time></trkpt>
</trkseg></trk>
<trk>
<name>lstsp125</name>
<cmt>r</cmt>
<desc>Sprimont Chemin n°125 </desc>
<link href="https://chemins.be/sprimont/chemin/125"/><trkseg>
<trkpt lat="50.537707" lon="5.605283"><time>2026-05-02T18:37:55Z</time></trkpt>
<trkpt lat="50.538019" lon="5.605644"><time>2026-05-02T18:47:55Z</time></trkpt>
<trkpt lat="50.538728" lon="5.606059"><time>2026-05-02T18:57:55Z</time></trkpt>
</trkseg></trk>
<trk>
<name>lstsp125</name>
<cmt>v</cmt>
<desc>Sprimont Chemin n°125 </desc>
<link href="https://chemins.be/sprimont/chemin/125"/><trkseg>
<trkpt lat="50.538728" lon="5.606059"><time>2026-05-02T18:57:55Z</time></trkpt>
<trkpt lat="50.539008" lon="5.605852"><time>2026-05-02T19:07:55Z</time></trkpt>
</trkseg>
</trk>
<trk>
<name>lstsp126</name>
<cmt>v</cmt>
<desc>Sprimont Chemin n°126 Hautgné</desc>
<link href="https://chemins.be/sprimont/chemin/126"/><trkseg>
<trkpt lat="50.537691" lon="5.605263"><time>2026-05-02T16:47:55Z</time></trkpt>
<trkpt lat="50.537342" lon="5.605085"><time>2026-05-02T16:57:55Z</time></trkpt>
<trkpt lat="50.537209" lon="5.604912"><time>2026-05-02T17:07:55Z</time></trkpt>
<trkpt lat="50.537076" lon="5.604669"><time>2026-05-02T17:17:55Z</time></trkpt>
<trkpt lat="50.536706" lon="5.603968"><time>2026-05-02T17:27:55Z</time></trkpt>
<trkpt lat="50.536547" lon="5.603738"><time>2026-05-02T17:37:55Z</time></trkpt>
</trkseg>
</trk>
<trk>
<name>lstsp127</name>
<cmt>v</cmt>
<desc>Sprimont Chemin n°127 </desc>
<link href="https://chemins.be/sprimont/chemin/127"/><trkseg>
<trkpt lat="50.539584" lon="5.610871"><time>2026-05-02T16:47:55Z</time></trkpt>
<trkpt lat="50.539540" lon="5.610780"><time>2026-05-02T16:57:55Z</time></trkpt>
<trkpt lat="50.538123" lon="5.610023"><time>2026-05-02T17:07:55Z</time></trkpt>
</trkseg></trk>
<trk>
<name>lstsp127</name>
<cmt>d</cmt>
<desc>Sprimont Chemin n°127 </desc>
<link href="https://chemins.be/sprimont/chemin/127"/><trkseg>
<trkpt lat="50.538123" lon="5.610023"><time>2026-05-02T17:07:55Z</time></trkpt>
<trkpt lat="50.536421" lon="5.608787"><time>2026-05-02T17:17:55Z</time></trkpt>
<trkpt lat="50.535505" lon="5.607413"><time>2026-05-02T17:27:55Z</time></trkpt>
</trkseg>
</trk>
<trk>
<name>lstsp128</name>
<cmt>v</cmt>
<desc>Sprimont Sentier n°128 Chemin des Boûfs / Hautgné</desc>
<link href="https://chemins.be/sprimont/sentier/128"/><trkseg>
<trkpt lat="50.536119" lon="5.623577"><time>2026-05-02T16:47:55Z</time></trkpt>
<trkpt lat="50.535979" lon="5.622374"><time>2026-05-02T16:57:55Z</time></trkpt>
<trkpt lat="50.535916" lon="5.620750"><time>2026-05-02T17:07:55Z</time></trkpt>
<trkpt lat="50.536182" lon="5.619374"><time>2026-05-02T17:17:55Z</time></trkpt>
<trkpt lat="50.536530" lon="5.618805"><time>2026-05-02T17:27:55Z</time></trkpt>
<trkpt lat="50.536533" lon="5.618537"><time>2026-05-02T17:37:55Z</time></trkpt>
<trkpt lat="50.536346" lon="5.618349"><time>2026-05-02T17:47:55Z</time></trkpt>
<trkpt lat="50.536321" lon="5.618179"><time>2026-05-02T17:57:55Z</time></trkpt>
<trkpt lat="50.535703" lon="5.617937"><time>2026-05-02T18:07:55Z</time></trkpt>
<trkpt lat="50.535642" lon="5.617738"><time>2026-05-02T18:17:55Z</time></trkpt>
</trkseg></trk>
<trk>
<name>lstsp128</name>
<cmt>q</cmt>
<desc>Sprimont Sentier n°128 Chemin des Boûfs / Hautgné</desc>
<link href="https://chemins.be/sprimont/sentier/128"/><trkseg>
<trkpt lat="50.535642" lon="5.617738"><time>2026-05-02T18:17:55Z</time></trkpt>
<trkpt lat="50.536313" lon="5.617276"><time>2026-05-02T18:27:55Z</time></trkpt>
<trkpt lat="50.537419" lon="5.615584"><time>2026-05-02T18:37:55Z</time></trkpt>
<trkpt lat="50.537497" lon="5.614189"><time>2026-05-02T18:47:55Z</time></trkpt>
</trkseg></trk>
<trk>
<name>lstsp128</name>
<cmt>v</cmt>
<desc>Sprimont Sentier n°128 Chemin des Boûfs / Hautgné</desc>
<link href="https://chemins.be/sprimont/sentier/128"/><trkseg>
<trkpt lat="50.537497" lon="5.614189"><time>2026-05-02T18:47:55Z</time></trkpt>
<trkpt lat="50.537577" lon="5.612286"><time>2026-05-02T18:57:55Z</time></trkpt>
<trkpt lat="50.537624" lon="5.611484"><time>2026-05-02T19:07:55Z</time></trkpt>
<trkpt lat="50.537523" lon="5.610780"><time>2026-05-02T19:17:55Z</time></trkpt>
<trkpt lat="50.537858" lon="5.610389"><time>2026-05-02T19:27:55Z</time></trkpt>
</trkseg>
</trk>
<trk>
<name>lstsp13</name>
<cmt>s</cmt>
<desc>Sprimont Chemin n°13 </desc>
<link href="https://chemins.be/sprimont/chemin/13"/><trkseg>
<trkpt lat="50.483110" lon="5.671583"><time>2026-05-02T16:47:55Z</time></trkpt>
<trkpt lat="50.484621" lon="5.669931"><time>2026-05-02T16:57:55Z</time></trkpt>
<trkpt lat="50.486123" lon="5.668852"><time>2026-05-02T17:07:55Z</time></trkpt>
</trkseg></trk>
<trk>
<name>lstsp13</name>
<cmt>r</cmt>
<desc>Sprimont Chemin n°13 </desc>
<link href="https://chemins.be/sprimont/chemin/13"/><trkseg>
<trkpt lat="50.486123" lon="5.668852"><time>2026-05-02T17:07:55Z</time></trkpt>
<trkpt lat="50.488448" lon="5.667534"><time>2026-05-02T17:17:55Z</time></trkpt>
<trkpt lat="50.488835" lon="5.666905"><time>2026-05-02T17:27:55Z</time></trkpt>
<trkpt lat="50.489399" lon="5.666955"><time>2026-05-02T17:37:55Z</time></trkpt>
<trkpt lat="50.490978" lon="5.666082"><time>2026-05-02T17:47:55Z</time></trkpt>
<trkpt lat="50.491247" lon="5.666032"><time>2026-05-02T17:57:55Z</time></trkpt>
<trkpt lat="50.492553" lon="5.665281"><time>2026-05-02T18:07:55Z</time></trkpt>
<trkpt lat="50.494778" lon="5.663422"><time>2026-05-02T18:17:55Z</time></trkpt>
<trkpt lat="50.495788" lon="5.662857"><time>2026-05-02T18:27:55Z</time></trkpt>
</trkseg></trk>
<trk>
<name>lstsp13</name>
<cmt>v</cmt>
<desc>Sprimont Chemin n°13 </desc>
<link href="https://chemins.be/sprimont/chemin/13"/><trkseg>
<trkpt lat="50.495788" lon="5.662857"><time>2026-05-02T18:27:55Z</time></trkpt>
<trkpt lat="50.496833" lon="5.662099"><time>2026-05-02T18:37:55Z</time></trkpt>
<trkpt lat="50.498431" lon="5.661741"><time>2026-05-02T18:47:55Z</time></trkpt>
<trkpt lat="50.499278" lon="5.661290"><time>2026-05-02T18:57:55Z</time></trkpt>
</trkseg>
</trk>
<trk>
<name>lstsp130</name>
<cmt>q</cmt>
<desc>Sprimont Chemin n°130 </desc>
<link href="https://chemins.be/sprimont/chemin/130"/><trkseg>
<trkpt lat="50.488644" lon="5.666118"><time>2026-05-02T16:47:55Z</time></trkpt>
<trkpt lat="50.487556" lon="5.665646"><time>2026-05-02T16:57:55Z</time></trkpt>
<trkpt lat="50.486755" lon="5.665882"><time>2026-05-02T17:07:55Z</time></trkpt>
</trkseg>
</trk>
<trk>
<name>lstsp131</name>
<cmt>q</cmt>
<desc>Sprimont Chemin n°131 </desc>
<link href="https://chemins.be/sprimont/chemin/131"/><trkseg>
<trkpt lat="50.507035" lon="5.678685"><time>2026-05-02T16:47:55Z</time></trkpt>
<trkpt lat="50.508117" lon="5.677862"><time>2026-05-02T16:57:55Z</time></trkpt>
<trkpt lat="50.509231" lon="5.677912"><time>2026-05-02T17:07:55Z</time></trkpt>
<trkpt lat="50.509843" lon="5.677054"><time>2026-05-02T17:17:55Z</time></trkpt>
<trkpt lat="50.511490" lon="5.676037"><time>2026-05-02T17:27:55Z</time></trkpt>
</trkseg>
</trk>
<trk>
<name>lstsp132</name>
<cmt>v</cmt>
<desc>Sprimont Sentier n°132 </desc>
<link href="https://chemins.be/sprimont/sentier/132"/><trkseg>
<trkpt lat="50.500298" lon="5.644943"><time>2026-05-02T16:47:55Z</time></trkpt>
<trkpt lat="50.499363" lon="5.646371"><time>2026-05-02T16:57:55Z</time></trkpt>
</trkseg>
</trk>
<trk>
<name>lstsp133</name>
<cmt>r</cmt>
<desc>Sprimont Chemin n°133 </desc>
<link href="https://chemins.be/sprimont/chemin/133"/><trkseg>
<trkpt lat="50.499598" lon="5.641020"><time>2026-05-02T16:47:55Z</time></trkpt>
<trkpt lat="50.499976" lon="5.640834"><time>2026-05-02T16:57:55Z</time></trkpt>
<trkpt lat="50.500536" lon="5.640054"><time>2026-05-02T17:07:55Z</time></trkpt>
<trkpt lat="50.500977" lon="5.639582"><time>2026-05-02T17:17:55Z</time></trkpt>
</trkseg></trk>
<trk>
<name>lstsp133</name>
<cmt>d</cmt>
<desc>Sprimont Chemin n°133 </desc>
<link href="https://chemins.be/sprimont/chemin/133"/><trkseg>
<trkpt lat="50.500977" lon="5.639582"><time>2026-05-02T17:17:55Z</time></trkpt>
<trkpt lat="50.501345" lon="5.639346"><time>2026-05-02T17:27:55Z</time></trkpt>
<trkpt lat="50.501350" lon="5.638960"><time>2026-05-02T17:37:55Z</time></trkpt>
</trkseg>
</trk>
<trk>
<name>lstsp134</name>
<cmt>r</cmt>
<desc>Sprimont Chemin n°134 Rue de Broumaye</desc>
<link href="https://chemins.be/sprimont/chemin/134"/><trkseg>
<trkpt lat="50.496293" lon="5.624749"><time>2026-05-02T16:47:55Z</time></trkpt>
<trkpt lat="50.496479" lon="5.624581"><time>2026-05-02T16:57:55Z</time></trkpt>
<trkpt lat="50.496522" lon="5.624259"><time>2026-05-02T17:07:55Z</time></trkpt>
</trkseg></trk>
<trk>
<name>lstsp134</name>
<cmt>v</cmt>
<desc>Sprimont Chemin n°134 Rue de Broumaye</desc>
<link href="https://chemins.be/sprimont/chemin/134"/><trkseg>
<trkpt lat="50.496522" lon="5.624259"><time>2026-05-02T17:07:55Z</time></trkpt>
<trkpt lat="50.496523" lon="5.623812"><time>2026-05-02T17:17:55Z</time></trkpt>
<trkpt lat="50.496408" lon="5.623213"><time>2026-05-02T17:27:55Z</time></trkpt>
</trkseg></trk>
<trk>
<name>lstsp134</name>
<cmt>d</cmt>
<desc>Sprimont Chemin n°134 Rue de Broumaye</desc>
<link href="https://chemins.be/sprimont/chemin/134"/><trkseg>
<trkpt lat="50.496408" lon="5.623213"><time>2026-05-02T17:27:55Z</time></trkpt>
<trkpt lat="50.496814" lon="5.622138"><time>2026-05-02T17:37:55Z</time></trkpt>
<trkpt lat="50.497383" lon="5.621787"><time>2026-05-02T17:47:55Z</time></trkpt>
<trkpt lat="50.497760" lon="5.622123"><time>2026-05-02T17:57:55Z</time></trkpt>
<trkpt lat="50.497992" lon="5.621329"><time>2026-05-02T18:07:55Z</time></trkpt>
<trkpt lat="50.498484" lon="5.621021"><time>2026-05-02T18:17:55Z</time></trkpt>
</trkseg>
</trk>
<trk>
<name>lstsp135</name>
<cmt>q</cmt>
<desc>Sprimont Chemin n°135 </desc>
<link href="https://chemins.be/sprimont/chemin/135"/><trkseg>
<trkpt lat="50.496097" lon="5.626240"><time>2026-05-02T16:47:55Z</time></trkpt>
<trkpt lat="50.496661" lon="5.626691"><time>2026-05-02T16:57:55Z</time></trkpt>
<trkpt lat="50.497332" lon="5.626498"><time>2026-05-02T17:07:55Z</time></trkpt>
<trkpt lat="50.498265" lon="5.627195"><time>2026-05-02T17:17:55Z</time></trkpt>
<trkpt lat="50.498620" lon="5.624770"><time>2026-05-02T17:27:55Z</time></trkpt>
</trkseg>
</trk>
<trk>
<name>lstsp136</name>
<cmt>d</cmt>
<desc>Sprimont Chemin n°136 </desc>
<link href="https://chemins.be/sprimont/chemin/136"/><trkseg>
<trkpt lat="50.509334" lon="5.659495"><time>2026-05-02T16:47:55Z</time></trkpt>
<trkpt lat="50.509605" lon="5.659554"><time>2026-05-02T16:57:55Z</time></trkpt>
</trkseg></trk>
<trk>
<name>lstsp136</name>
<cmt>q</cmt>
<desc>Sprimont Chemin n°136 </desc>
<link href="https://chemins.be/sprimont/chemin/136"/><trkseg>
<trkpt lat="50.509605" lon="5.659554"><time>2026-05-02T16:57:55Z</time></trkpt>
<trkpt lat="50.509955" lon="5.659609"><time>2026-05-02T17:07:55Z</time></trkpt>
</trkseg>
</trk>
<trk>
<name>lstsp138</name>
<cmt>q</cmt>
<desc>Sprimont Sentier n°138 </desc>
<link href="https://chemins.be/sprimont/sentier/138"/><trkseg>
<trkpt lat="50.507694" lon="5.664731"><time>2026-05-02T16:47:55Z</time></trkpt>
<trkpt lat="50.509491" lon="5.665010"><time>2026-05-02T16:57:55Z</time></trkpt>
<trkpt lat="50.509887" lon="5.665267"><time>2026-05-02T17:07:55Z</time></trkpt>
<trkpt lat="50.511965" lon="5.666780"><time>2026-05-02T17:17:55Z</time></trkpt>
<trkpt lat="50.513152" lon="5.666644"><time>2026-05-02T17:27:55Z</time></trkpt>
<trkpt lat="50.514025" lon="5.667209"><time>2026-05-02T17:37:55Z</time></trkpt>
</trkseg>
</trk>
<trk>
<name>lstsp139</name>
<cmt>v</cmt>
<desc>Sprimont Sentier n°139 </desc>
<link href="https://chemins.be/sprimont/sentier/139"/><trkseg>
<trkpt lat="50.510189" lon="5.618010"><time>2026-05-02T16:47:55Z</time></trkpt>
<trkpt lat="50.509243" lon="5.617917"><time>2026-05-02T16:57:55Z</time></trkpt>
<trkpt lat="50.508465" lon="5.618482"><time>2026-05-02T17:07:55Z</time></trkpt>
<trkpt lat="50.507948" lon="5.617610"><time>2026-05-02T17:17:55Z</time></trkpt>
<trkpt lat="50.507432" lon="5.616255"><time>2026-05-02T17:27:55Z</time></trkpt>
<trkpt lat="50.507259" lon="5.616365"><time>2026-05-02T17:37:55Z</time></trkpt>
</trkseg>
</trk>
<trk>
<name>lstsp14</name>
<cmt>q</cmt>
<desc>Sprimont Chemin n°14 Hautgné</desc>
<link href="https://chemins.be/sprimont/chemin/14"/><trkseg>
<trkpt lat="50.549427" lon="5.635781"><time>2026-05-02T16:47:55Z</time></trkpt>
<trkpt lat="50.549323" lon="5.634016"><time>2026-05-02T16:57:55Z</time></trkpt>
<trkpt lat="50.549215" lon="5.632406"><time>2026-05-02T17:07:55Z</time></trkpt>
<trkpt lat="50.549139" lon="5.630840"><time>2026-05-02T17:17:55Z</time></trkpt>
<trkpt lat="50.549538" lon="5.629441"><time>2026-05-02T17:27:55Z</time></trkpt>
<trkpt lat="50.549134" lon="5.626374"><time>2026-05-02T17:37:55Z</time></trkpt>
<trkpt lat="50.547561" lon="5.622791"><time>2026-05-02T17:47:55Z</time></trkpt>
</trkseg></trk>
<trk>
<name>lstsp14</name>
<cmt>v</cmt>
<desc>Sprimont Chemin n°14 Hautgné</desc>
<link href="https://chemins.be/sprimont/chemin/14"/><trkseg>
<trkpt lat="50.547561" lon="5.622791"><time>2026-05-02T17:47:55Z</time></trkpt>
<trkpt lat="50.547254" lon="5.622319"><time>2026-05-02T17:57:55Z</time></trkpt>
<trkpt lat="50.546932" lon="5.621156"><time>2026-05-02T18:07:55Z</time></trkpt>
<trkpt lat="50.546215" lon="5.619735"><time>2026-05-02T18:17:55Z</time></trkpt>
<trkpt lat="50.545904" lon="5.619592"><time>2026-05-02T18:27:55Z</time></trkpt>
</trkseg></trk>
<trk>
<name>lstsp14</name>
<cmt>r</cmt>
<desc>Sprimont Chemin n°14 Hautgné</desc>
<link href="https://chemins.be/sprimont/chemin/14"/><trkseg>
<trkpt lat="50.545904" lon="5.619592"><time>2026-05-02T18:27:55Z</time></trkpt>
<trkpt lat="50.545596" lon="5.619369"><time>2026-05-02T18:37:55Z</time></trkpt>
<trkpt lat="50.545407" lon="5.617212"><time>2026-05-02T18:47:55Z</time></trkpt>
<trkpt lat="50.544634" lon="5.614573"><time>2026-05-02T18:57:55Z</time></trkpt>
<trkpt lat="50.543968" lon="5.613461"><time>2026-05-02T19:07:55Z</time></trkpt>
</trkseg></trk>
<trk>
<name>lstsp14</name>
<cmt>v</cmt>
<desc>Sprimont Chemin n°14 Hautgné</desc>
<link href="https://chemins.be/sprimont/chemin/14"/><trkseg>
<trkpt lat="50.543968" lon="5.613461"><time>2026-05-02T19:07:55Z</time></trkpt>
<trkpt lat="50.543612" lon="5.611556"><time>2026-05-02T19:17:55Z</time></trkpt>
<trkpt lat="50.543197" lon="5.610811"><time>2026-05-02T19:27:55Z</time></trkpt>
<trkpt lat="50.543154" lon="5.610641"><time>2026-05-02T19:37:55Z</time></trkpt>
<trkpt lat="50.543275" lon="5.610277"><time>2026-05-02T19:47:55Z</time></trkpt>
<trkpt lat="50.543238" lon="5.609543"><time>2026-05-02T19:57:55Z</time></trkpt>
<trkpt lat="50.543179" lon="5.609188"><time>2026-05-02T20:07:55Z</time></trkpt>
<trkpt lat="50.542836" lon="5.608403"><time>2026-05-02T20:17:55Z</time></trkpt>
<trkpt lat="50.542479" lon="5.608154"><time>2026-05-02T20:27:55Z</time></trkpt>
<trkpt lat="50.541941" lon="5.607180"><time>2026-05-02T20:37:55Z</time></trkpt>
<trkpt lat="50.541748" lon="5.606696"><time>2026-05-02T20:47:55Z</time></trkpt>
<trkpt lat="50.541296" lon="5.606077"><time>2026-05-02T20:57:55Z</time></trkpt>
<trkpt lat="50.540383" lon="5.603681"><time>2026-05-02T21:07:55Z</time></trkpt>
<trkpt lat="50.539808" lon="5.601495"><time>2026-05-02T21:17:55Z</time></trkpt>
<trkpt lat="50.539103" lon="5.600066"><time>2026-05-02T21:27:55Z</time></trkpt>
<trkpt lat="50.538765" lon="5.598914"><time>2026-05-02T21:37:55Z</time></trkpt>
</trkseg>
</trk>
<trk>
<name>lstsp143</name>
<cmt>r</cmt>
<desc>Sprimont Chemin n°143 Impasse Sur les Courtils</desc>
<link href="https://chemins.be/sprimont/chemin/143"/><trkseg>
<trkpt lat="50.489999" lon="5.644419"><time>2026-05-02T16:47:55Z</time></trkpt>
<trkpt lat="50.489847" lon="5.644211"><time>2026-05-02T16:57:55Z</time></trkpt>
<trkpt lat="50.489689" lon="5.643612"><time>2026-05-02T17:07:55Z</time></trkpt>
</trkseg>
</trk>
<trk>
<name>lstsp146</name>
<cmt>s</cmt>
<desc>Sprimont Sentier n°146 </desc>
<link href="https://chemins.be/sprimont/sentier/146"/><trkseg>
<trkpt lat="50.538433" lon="5.630649"><time>2026-05-02T16:47:55Z</time></trkpt>
<trkpt lat="50.539687" lon="5.631915"><time>2026-05-02T16:57:55Z</time></trkpt>
<trkpt lat="50.539960" lon="5.631947"><time>2026-05-02T17:07:55Z</time></trkpt>
<trkpt lat="50.540257" lon="5.632231"><time>2026-05-02T17:17:55Z</time></trkpt>
</trkseg>
</trk>
<trk>
<name>lstsp147</name>
<cmt>d</cmt>
<desc>Sprimont Sentier n°147 </desc>
<link href="https://chemins.be/sprimont/sentier/147"/><trkseg>
<trkpt lat="50.537068" lon="5.624756"><time>2026-05-02T16:47:55Z</time></trkpt>
<trkpt lat="50.537011" lon="5.624284"><time>2026-05-02T16:57:55Z</time></trkpt>
<trkpt lat="50.537099" lon="5.623991"><time>2026-05-02T17:07:55Z</time></trkpt>
<trkpt lat="50.536806" lon="5.623020"><time>2026-05-02T17:17:55Z</time></trkpt>
</trkseg></trk>
<trk>
<name>lstsp147</name>
<cmt>q</cmt>
<desc>Sprimont Sentier n°147 </desc>
<link href="https://chemins.be/sprimont/sentier/147"/><trkseg>
<trkpt lat="50.536806" lon="5.623020"><time>2026-05-02T17:17:55Z</time></trkpt>
<trkpt lat="50.535981" lon="5.620429"><time>2026-05-02T17:27:55Z</time></trkpt>
</trkseg>
</trk>
<trk>
<name>lstsp148</name>
<cmt>d</cmt>
<desc>Sprimont Sentier n°148 </desc>
<link href="https://chemins.be/sprimont/sentier/148"/><trkseg>
<trkpt lat="50.537807" lon="5.636314"><time>2026-05-02T16:47:55Z</time></trkpt>
<trkpt lat="50.538481" lon="5.638212"><time>2026-05-02T16:57:55Z</time></trkpt>
<trkpt lat="50.538830" lon="5.638817"><time>2026-05-02T17:07:55Z</time></trkpt>
<trkpt lat="50.539439" lon="5.641549"><time>2026-05-02T17:17:55Z</time></trkpt>
<trkpt lat="50.539830" lon="5.642057"><time>2026-05-02T17:27:55Z</time></trkpt>
</trkseg></trk>
<trk>
<name>lstsp148</name>
<cmt>q</cmt>
<desc>Sprimont Sentier n°148 </desc>
<link href="https://chemins.be/sprimont/sentier/148"/><trkseg>
<trkpt lat="50.539830" lon="5.642057"><time>2026-05-02T17:27:55Z</time></trkpt>
<trkpt lat="50.540335" lon="5.643216"><time>2026-05-02T17:37:55Z</time></trkpt>
</trkseg>
</trk>
<trk>
<name>lstsp150</name>
<cmt>q</cmt>
<desc>Sprimont Sentier n°150 </desc>
<link href="https://chemins.be/sprimont/sentier/150"/><trkseg>
<trkpt lat="50.536266" lon="5.653587"><time>2026-05-02T16:47:55Z</time></trkpt>
<trkpt lat="50.535939" lon="5.650647"><time>2026-05-02T16:57:55Z</time></trkpt>
<trkpt lat="50.536425" lon="5.645540"><time>2026-05-02T17:07:55Z</time></trkpt>
<trkpt lat="50.537198" lon="5.643423"><time>2026-05-02T17:17:55Z</time></trkpt>
<trkpt lat="50.537262" lon="5.638888"><time>2026-05-02T17:27:55Z</time></trkpt>
<trkpt lat="50.537339" lon="5.638681"><time>2026-05-02T17:37:55Z</time></trkpt>
<trkpt lat="50.537080" lon="5.638137"><time>2026-05-02T17:47:55Z</time></trkpt>
<trkpt lat="50.536902" lon="5.637115"><time>2026-05-02T17:57:55Z</time></trkpt>
</trkseg>
</trk>
<trk>
<name>lstsp151</name>
<cmt>v</cmt>
<desc>Sprimont Sentier n°151 </desc>
<link href="https://chemins.be/sprimont/sentier/151"/><trkseg>
<trkpt lat="50.535701" lon="5.643328"><time>2026-05-02T16:47:55Z</time></trkpt>
<trkpt lat="50.536317" lon="5.644450"><time>2026-05-02T16:57:55Z</time></trkpt>
<trkpt lat="50.536464" lon="5.645545"><time>2026-05-02T17:07:55Z</time></trkpt>
</trkseg>
</trk>
<trk>
<name>lstsp152</name>
<cmt>s</cmt>
<desc>Sprimont Sentier n°152 </desc>
<link href="https://chemins.be/sprimont/sentier/152"/><trkseg>
<trkpt lat="50.536969" lon="5.631372"><time>2026-05-02T16:47:55Z</time></trkpt>
<trkpt lat="50.536339" lon="5.634072"><time>2026-05-02T16:57:55Z</time></trkpt>
</trkseg>
</trk>
<trk>
<name>lstsp153</name>
<cmt>q</cmt>
<desc>Sprimont Sentier n°153 </desc>
<link href="https://chemins.be/sprimont/sentier/153"/><trkseg>
<trkpt lat="50.530087" lon="5.597987"><time>2026-05-02T16:47:55Z</time></trkpt>
<trkpt lat="50.530626" lon="5.599881"><time>2026-05-02T16:57:55Z</time></trkpt>
<trkpt lat="50.530721" lon="5.601056"><time>2026-05-02T17:07:55Z</time></trkpt>
<trkpt lat="50.530711" lon="5.604001"><time>2026-05-02T17:17:55Z</time></trkpt>
<trkpt lat="50.531727" lon="5.607064"><time>2026-05-02T17:27:55Z</time></trkpt>
<trkpt lat="50.531325" lon="5.609580"><time>2026-05-02T17:37:55Z</time></trkpt>
<trkpt lat="50.531438" lon="5.610465"><time>2026-05-02T17:47:55Z</time></trkpt>
<trkpt lat="50.531366" lon="5.611055"><time>2026-05-02T17:57:55Z</time></trkpt>
</trkseg>
</trk>
<trk>
<name>lstsp154</name>
<cmt>q</cmt>
<desc>Sprimont Sentier n°154 </desc>
<link href="https://chemins.be/sprimont/sentier/154"/><trkseg>
<trkpt lat="50.529498" lon="5.592476"><time>2026-05-02T16:47:55Z</time></trkpt>
<trkpt lat="50.530076" lon="5.592840"><time>2026-05-02T16:57:55Z</time></trkpt>
<trkpt lat="50.530230" lon="5.593284"><time>2026-05-02T17:07:55Z</time></trkpt>
<trkpt lat="50.530853" lon="5.593985"><time>2026-05-02T17:17:55Z</time></trkpt>
<trkpt lat="50.531140" lon="5.594564"><time>2026-05-02T17:27:55Z</time></trkpt>
</trkseg>
</trk>
<trk>
<name>lstsp155</name>
<cmt>v</cmt>
<desc>Sprimont Sentier n°155 Betgné</desc>
<link href="https://chemins.be/sprimont/sentier/155"/><trkseg>
<trkpt lat="50.527373" lon="5.589477"><time>2026-05-02T16:47:55Z</time></trkpt>
<trkpt lat="50.527924" lon="5.590973"><time>2026-05-02T16:57:55Z</time></trkpt>
<trkpt lat="50.528140" lon="5.592657"><time>2026-05-02T17:07:55Z</time></trkpt>
<trkpt lat="50.528005" lon="5.592668"><time>2026-05-02T17:17:55Z</time></trkpt>
</trkseg></trk>
<trk>
<name>lstsp155</name>
<cmt>q</cmt>
<desc>Sprimont Sentier n°155 Betgné</desc>
<link href="https://chemins.be/sprimont/sentier/155"/><trkseg>
<trkpt lat="50.528005" lon="5.592668"><time>2026-05-02T17:17:55Z</time></trkpt>
<trkpt lat="50.528664" lon="5.596719"><time>2026-05-02T17:27:55Z</time></trkpt>
<trkpt lat="50.528713" lon="5.598822"><time>2026-05-02T17:37:55Z</time></trkpt>
<trkpt lat="50.528184" lon="5.600672"><time>2026-05-02T17:47:55Z</time></trkpt>
</trkseg></trk>
<trk>
<name>lstsp155</name>
<cmt>d</cmt>
<desc>Sprimont Sentier n°155 Betgné</desc>
<link href="https://chemins.be/sprimont/sentier/155"/><trkseg>
<trkpt lat="50.528184" lon="5.600672"><time>2026-05-02T17:47:55Z</time></trkpt>
<trkpt lat="50.527488" lon="5.604164"><time>2026-05-02T17:57:55Z</time></trkpt>
<trkpt lat="50.527411" lon="5.604628"><time>2026-05-02T18:07:55Z</time></trkpt>
<trkpt lat="50.527381" lon="5.604937"><time>2026-05-02T18:17:55Z</time></trkpt>
<trkpt lat="50.527333" lon="5.605204"><time>2026-05-02T18:27:55Z</time></trkpt>
<trkpt lat="50.527195" lon="5.605525"><time>2026-05-02T18:37:55Z</time></trkpt>
<trkpt lat="50.526553" lon="5.606206"><time>2026-05-02T18:47:55Z</time></trkpt>
<trkpt lat="50.526891" lon="5.607071"><time>2026-05-02T18:57:55Z</time></trkpt>
<trkpt lat="50.527016" lon="5.607797"><time>2026-05-02T19:07:55Z</time></trkpt>
</trkseg>
</trk>
<trk>
<name>lstsp156</name>
<cmt>q</cmt>
<desc>Sprimont Sentier n°156 </desc>
<link href="https://chemins.be/sprimont/sentier/156"/><trkseg>
<trkpt lat="50.511659" lon="5.624568"><time>2026-05-02T16:47:55Z</time></trkpt>
<trkpt lat="50.510730" lon="5.624474"><time>2026-05-02T16:57:55Z</time></trkpt>
<trkpt lat="50.510615" lon="5.624166"><time>2026-05-02T17:07:55Z</time></trkpt>
<trkpt lat="50.510009" lon="5.623830"><time>2026-05-02T17:17:55Z</time></trkpt>
</trkseg>
</trk>
<trk>
<name>lstsp157</name>
<cmt>q</cmt>
<desc>Sprimont Sentier n°157 </desc>
<link href="https://chemins.be/sprimont/sentier/157"/><trkseg>
<trkpt lat="50.529463" lon="5.591282"><time>2026-05-02T16:47:55Z</time></trkpt>
<trkpt lat="50.528921" lon="5.591497"><time>2026-05-02T16:57:55Z</time></trkpt>
<trkpt lat="50.528880" lon="5.592001"><time>2026-05-02T17:07:55Z</time></trkpt>
<trkpt lat="50.528645" lon="5.592156"><time>2026-05-02T17:17:55Z</time></trkpt>
<trkpt lat="50.528658" lon="5.592258"><time>2026-05-02T17:27:55Z</time></trkpt>
<trkpt lat="50.528143" lon="5.592349"><time>2026-05-02T17:37:55Z</time></trkpt>
</trkseg>
</trk>
<trk>
<name>lstsp158</name>
<cmt>q</cmt>
<desc>Sprimont Sentier n°158 </desc>
<link href="https://chemins.be/sprimont/sentier/158"/><trkseg>
<trkpt lat="50.529555" lon="5.590306"><time>2026-05-02T16:47:55Z</time></trkpt>
<trkpt lat="50.528999" lon="5.590461"><time>2026-05-02T16:57:55Z</time></trkpt>
<trkpt lat="50.528602" lon="5.589979"><time>2026-05-02T17:07:55Z</time></trkpt>
<trkpt lat="50.527772" lon="5.588970"><time>2026-05-02T17:17:55Z</time></trkpt>
</trkseg>
</trk>
<trk>
<name>lstsp159</name>
<cmt>v</cmt>
<desc>Sprimont Sentier n°159 </desc>
<link href="https://chemins.be/sprimont/sentier/159"/><trkseg>
<trkpt lat="50.522042" lon="5.601414"><time>2026-05-02T16:47:55Z</time></trkpt>
<trkpt lat="50.522134" lon="5.601192"><time>2026-05-02T16:57:55Z</time></trkpt>
</trkseg></trk>
<trk>
<name>lstsp159</name>
<cmt>q</cmt>
<desc>Sprimont Sentier n°159 </desc>
<link href="https://chemins.be/sprimont/sentier/159"/><trkseg>
<trkpt lat="50.522134" lon="5.601192"><time>2026-05-02T16:57:55Z</time></trkpt>
<trkpt lat="50.523160" lon="5.598847"><time>2026-05-02T17:07:55Z</time></trkpt>
</trkseg></trk>
<trk>
<name>lstsp159</name>
<cmt>r</cmt>
<desc>Sprimont Sentier n°159 </desc>
<link href="https://chemins.be/sprimont/sentier/159"/><trkseg>
<trkpt lat="50.523160" lon="5.598847"><time>2026-05-02T17:07:55Z</time></trkpt>
<trkpt lat="50.524179" lon="5.597702"><time>2026-05-02T17:17:55Z</time></trkpt>
</trkseg></trk>
<trk>
<name>lstsp159</name>
<cmt>d</cmt>
<desc>Sprimont Sentier n°159 </desc>
<link href="https://chemins.be/sprimont/sentier/159"/><trkseg>
<trkpt lat="50.524179" lon="5.597702"><time>2026-05-02T17:17:55Z</time></trkpt>
<trkpt lat="50.525188" lon="5.593210"><time>2026-05-02T17:27:55Z</time></trkpt>
</trkseg></trk>
<trk>
<name>lstsp159</name>
<cmt>q</cmt>
<desc>Sprimont Sentier n°159 </desc>
<link href="https://chemins.be/sprimont/sentier/159"/><trkseg>
<trkpt lat="50.525188" lon="5.593210"><time>2026-05-02T17:27:55Z</time></trkpt>
<trkpt lat="50.525898" lon="5.590335"><time>2026-05-02T17:37:55Z</time></trkpt>
</trkseg>
</trk>
<trk>
<name>lstsp16</name>
<cmt>v</cmt>
<desc>Sprimont Chemin n°16 Fond du Rothys</desc>
<link href="https://chemins.be/sprimont/chemin/16"/><trkseg>
<trkpt lat="50.538312" lon="5.629132"><time>2026-05-02T16:47:55Z</time></trkpt>
<trkpt lat="50.538462" lon="5.629697"><time>2026-05-02T16:57:55Z</time></trkpt>
<trkpt lat="50.538339" lon="5.630355"><time>2026-05-02T17:07:55Z</time></trkpt>
<trkpt lat="50.538916" lon="5.632351"><time>2026-05-02T17:17:55Z</time></trkpt>
<trkpt lat="50.539160" lon="5.634513"><time>2026-05-02T17:27:55Z</time></trkpt>
<trkpt lat="50.539244" lon="5.635248"><time>2026-05-02T17:37:55Z</time></trkpt>
<trkpt lat="50.540362" lon="5.634854"><time>2026-05-02T17:47:55Z</time></trkpt>
<trkpt lat="50.540653" lon="5.635462"><time>2026-05-02T17:57:55Z</time></trkpt>
<trkpt lat="50.541425" lon="5.635756"><time>2026-05-02T18:07:55Z</time></trkpt>
<trkpt lat="50.542970" lon="5.635139"><time>2026-05-02T18:17:55Z</time></trkpt>
</trkseg></trk>
<trk>
<name>lstsp16</name>
<cmt>r</cmt>
<desc>Sprimont Chemin n°16 Fond du Rothys</desc>
<link href="https://chemins.be/sprimont/chemin/16"/><trkseg>
<trkpt lat="50.542970" lon="5.635139"><time>2026-05-02T18:17:55Z</time></trkpt>
<trkpt lat="50.544099" lon="5.634702"><time>2026-05-02T18:27:55Z</time></trkpt>
</trkseg></trk>
<trk>
<name>lstsp16</name>
<cmt>v</cmt>
<desc>Sprimont Chemin n°16 Fond du Rothys</desc>
<link href="https://chemins.be/sprimont/chemin/16"/><trkseg>
<trkpt lat="50.544099" lon="5.634702"><time>2026-05-02T18:27:55Z</time></trkpt>
<trkpt lat="50.545031" lon="5.634115"><time>2026-05-02T18:37:55Z</time></trkpt>
<trkpt lat="50.545288" lon="5.634037"><time>2026-05-02T18:47:55Z</time></trkpt>
<trkpt lat="50.546124" lon="5.634538"><time>2026-05-02T18:57:55Z</time></trkpt>
<trkpt lat="50.548997" lon="5.636069"><time>2026-05-02T19:07:55Z</time></trkpt>
<trkpt lat="50.549378" lon="5.635897"><time>2026-05-02T19:17:55Z</time></trkpt>
</trkseg>
</trk>
<trk>
<name>lstsp160</name>
<cmt>q</cmt>
<desc>Sprimont Sentier n°160 </desc>
<link href="https://chemins.be/sprimont/sentier/160"/><trkseg>
<trkpt lat="50.524619" lon="5.597203"><time>2026-05-02T16:47:55Z</time></trkpt>
<trkpt lat="50.525651" lon="5.598212"><time>2026-05-02T16:57:55Z</time></trkpt>
<trkpt lat="50.525697" lon="5.598362"><time>2026-05-02T17:07:55Z</time></trkpt>
<trkpt lat="50.527320" lon="5.598355"><time>2026-05-02T17:17:55Z</time></trkpt>
<trkpt lat="50.528693" lon="5.598834"><time>2026-05-02T17:27:55Z</time></trkpt>
<trkpt lat="50.529303" lon="5.599628"><time>2026-05-02T17:37:55Z</time></trkpt>
</trkseg>
</trk>
<trk>
<name>lstsp161</name>
<cmt>v</cmt>
<desc>Sprimont Sentier n°161 Rue d'Esneux / Rue Jean Doinet</desc>
<link href="https://chemins.be/sprimont/sentier/161"/><trkseg>
<trkpt lat="50.527191" lon="5.608445"><time>2026-05-02T16:47:55Z</time></trkpt>
<trkpt lat="50.527896" lon="5.608929"><time>2026-05-02T16:57:55Z</time></trkpt>
<trkpt lat="50.529389" lon="5.610604"><time>2026-05-02T17:07:55Z</time></trkpt>
<trkpt lat="50.529764" lon="5.611615"><time>2026-05-02T17:17:55Z</time></trkpt>
<trkpt lat="50.529828" lon="5.613211"><time>2026-05-02T17:27:55Z</time></trkpt>
</trkseg></trk>
<trk>
<name>lstsp161</name>
<cmt>q</cmt>
<desc>Sprimont Sentier n°161 Rue d'Esneux / Rue Jean Doinet</desc>
<link href="https://chemins.be/sprimont/sentier/161"/><trkseg>
<trkpt lat="50.529828" lon="5.613211"><time>2026-05-02T17:27:55Z</time></trkpt>
<trkpt lat="50.530319" lon="5.616892"><time>2026-05-02T17:37:55Z</time></trkpt>
<trkpt lat="50.530494" lon="5.617390"><time>2026-05-02T17:47:55Z</time></trkpt>
<trkpt lat="50.531605" lon="5.619446"><time>2026-05-02T17:57:55Z</time></trkpt>
</trkseg></trk>
<trk>
<name>lstsp161</name>
<cmt>r</cmt>
<desc>Sprimont Sentier n°161 Rue d'Esneux / Rue Jean Doinet</desc>
<link href="https://chemins.be/sprimont/sentier/161"/><trkseg>
<trkpt lat="50.531605" lon="5.619446"><time>2026-05-02T17:57:55Z</time></trkpt>
<trkpt lat="50.531614" lon="5.620791"><time>2026-05-02T18:07:55Z</time></trkpt>
</trkseg></trk>
<trk>
<name>lstsp161</name>
<cmt>q</cmt>
<desc>Sprimont Sentier n°161 Rue d'Esneux / Rue Jean Doinet</desc>
<link href="https://chemins.be/sprimont/sentier/161"/><trkseg>
<trkpt lat="50.531614" lon="5.620791"><time>2026-05-02T18:07:55Z</time></trkpt>
<trkpt lat="50.532550" lon="5.622507"><time>2026-05-02T18:17:55Z</time></trkpt>
</trkseg></trk>
<trk>
<name>lstsp161</name>
<cmt>r</cmt>
<desc>Sprimont Sentier n°161 Rue d'Esneux / Rue Jean Doinet</desc>
<link href="https://chemins.be/sprimont/sentier/161"/><trkseg>
<trkpt lat="50.532550" lon="5.622507"><time>2026-05-02T18:17:55Z</time></trkpt>
<trkpt lat="50.533023" lon="5.622493"><time>2026-05-02T18:27:55Z</time></trkpt>
</trkseg></trk>
<trk>
<name>lstsp161</name>
<cmt>q</cmt>
<desc>Sprimont Sentier n°161 Rue d'Esneux / Rue Jean Doinet</desc>
<link href="https://chemins.be/sprimont/sentier/161"/><trkseg>
<trkpt lat="50.533023" lon="5.622493"><time>2026-05-02T18:27:55Z</time></trkpt>
<trkpt lat="50.534005" lon="5.624825"><time>2026-05-02T18:37:55Z</time></trkpt>
</trkseg>
</trk>
<trk>
<name>lstsp162</name>
<cmt>v</cmt>
<desc>Sprimont Sentier n°162 Rue d'Esneux / Haie des Pauvres</desc>
<link href="https://chemins.be/sprimont/sentier/162"/><trkseg>
<trkpt lat="50.536856" lon="5.624759"><time>2026-05-02T16:47:55Z</time></trkpt>
<trkpt lat="50.536458" lon="5.624992"><time>2026-05-02T16:57:55Z</time></trkpt>
</trkseg></trk>
<trk>
<name>lstsp162</name>
<cmt>q</cmt>
<desc>Sprimont Sentier n°162 Rue d'Esneux / Haie des Pauvres</desc>
<link href="https://chemins.be/sprimont/sentier/162"/><trkseg>
<trkpt lat="50.536458" lon="5.624992"><time>2026-05-02T16:57:55Z</time></trkpt>
<trkpt lat="50.536322" lon="5.624413"><time>2026-05-02T17:07:55Z</time></trkpt>
<trkpt lat="50.535686" lon="5.624717"><time>2026-05-02T17:17:55Z</time></trkpt>
<trkpt lat="50.534345" lon="5.624926"><time>2026-05-02T17:27:55Z</time></trkpt>
</trkseg></trk>
<trk>
<name>lstsp162</name>
<cmt>v</cmt>
<desc>Sprimont Sentier n°162 Rue d'Esneux / Haie des Pauvres</desc>
<link href="https://chemins.be/sprimont/sentier/162"/><trkseg>
<trkpt lat="50.534345" lon="5.624926"><time>2026-05-02T17:27:55Z</time></trkpt>
<trkpt lat="50.532839" lon="5.624418"><time>2026-05-02T17:37:55Z</time></trkpt>
</trkseg></trk>
<trk>
<name>lstsp162</name>
<cmt>r</cmt>
<desc>Sprimont Sentier n°162 Rue d'Esneux / Haie des Pauvres</desc>
<link href="https://chemins.be/sprimont/sentier/162"/><trkseg>
<trkpt lat="50.532839" lon="5.624418"><time>2026-05-02T17:37:55Z</time></trkpt>
<trkpt lat="50.532490" lon="5.623888"><time>2026-05-02T17:47:55Z</time></trkpt>
</trkseg></trk>
<trk>
<name>lstsp162</name>
<cmt>v</cmt>
<desc>Sprimont Sentier n°162 Rue d'Esneux / Haie des Pauvres</desc>
<link href="https://chemins.be/sprimont/sentier/162"/><trkseg>
<trkpt lat="50.532490" lon="5.623888"><time>2026-05-02T17:47:55Z</time></trkpt>
<trkpt lat="50.531610" lon="5.623909"><time>2026-05-02T17:57:55Z</time></trkpt>
</trkseg></trk>
<trk>
<name>lstsp162</name>
<cmt>r</cmt>
<desc>Sprimont Sentier n°162 Rue d'Esneux / Haie des Pauvres</desc>
<link href="https://chemins.be/sprimont/sentier/162"/><trkseg>
<trkpt lat="50.531610" lon="5.623909"><time>2026-05-02T17:57:55Z</time></trkpt>
<trkpt lat="50.531568" lon="5.624561"><time>2026-05-02T18:07:55Z</time></trkpt>
</trkseg></trk>
<trk>
<name>lstsp162</name>
<cmt>v</cmt>
<desc>Sprimont Sentier n°162 Rue d'Esneux / Haie des Pauvres</desc>
<link href="https://chemins.be/sprimont/sentier/162"/><trkseg>
<trkpt lat="50.531568" lon="5.624561"><time>2026-05-02T18:07:55Z</time></trkpt>
<trkpt lat="50.530525" lon="5.625268"><time>2026-05-02T18:17:55Z</time></trkpt>
<trkpt lat="50.530389" lon="5.624936"><time>2026-05-02T18:27:55Z</time></trkpt>
<trkpt lat="50.529076" lon="5.624232"><time>2026-05-02T18:37:55Z</time></trkpt>
</trkseg></trk>
<trk>
<name>lstsp162</name>
<cmt>q</cmt>
<desc>Sprimont Sentier n°162 Rue d'Esneux / Haie des Pauvres</desc>
<link href="https://chemins.be/sprimont/sentier/162"/><trkseg>
<trkpt lat="50.529076" lon="5.624232"><time>2026-05-02T18:37:55Z</time></trkpt>
<trkpt lat="50.527726" lon="5.623922"><time>2026-05-02T18:47:55Z</time></trkpt>
<trkpt lat="50.527266" lon="5.623732"><time>2026-05-02T18:57:55Z</time></trkpt>
<trkpt lat="50.526336" lon="5.624192"><time>2026-05-02T19:07:55Z</time></trkpt>
</trkseg>
</trk>
<trk>
<name>lstsp163</name>
<cmt>q</cmt>
<desc>Sprimont Sentier n°163 </desc>
<link href="https://chemins.be/sprimont/sentier/163"/><trkseg>
<trkpt lat="50.535697" lon="5.623608"><time>2026-05-02T16:47:55Z</time></trkpt>
<trkpt lat="50.535670" lon="5.624692"><time>2026-05-02T16:57:55Z</time></trkpt>
</trkseg>
</trk>
<trk>
<name>lstsp164</name>
<cmt>q</cmt>
<desc>Sprimont Sentier n°164 </desc>
<link href="https://chemins.be/sprimont/sentier/164"/><trkseg>
<trkpt lat="50.535880" lon="5.653194"><time>2026-05-02T16:47:55Z</time></trkpt>
<trkpt lat="50.535316" lon="5.653186"><time>2026-05-02T16:57:55Z</time></trkpt>
<trkpt lat="50.533756" lon="5.652285"><time>2026-05-02T17:07:55Z</time></trkpt>
<trkpt lat="50.533525" lon="5.651820"><time>2026-05-02T17:17:55Z</time></trkpt>
</trkseg>
</trk>
<trk>
<name>lstsp165</name>
<cmt>q</cmt>
<desc>Sprimont Sentier n°165 Rue des Waides</desc>
<link href="https://chemins.be/sprimont/sentier/165"/><trkseg>
<trkpt lat="50.521524" lon="5.603406"><time>2026-05-02T16:47:55Z</time></trkpt>
<trkpt lat="50.522059" lon="5.603642"><time>2026-05-02T16:57:55Z</time></trkpt>
<trkpt lat="50.523680" lon="5.604911"><time>2026-05-02T17:07:55Z</time></trkpt>
</trkseg></trk>
<trk>
<name>lstsp165</name>
<cmt>r</cmt>
<desc>Sprimont Sentier n°165 Rue des Waides</desc>
<link href="https://chemins.be/sprimont/sentier/165"/><trkseg>
<trkpt lat="50.523680" lon="5.604911"><time>2026-05-02T17:07:55Z</time></trkpt>
<trkpt lat="50.524230" lon="5.605222"><time>2026-05-02T17:17:55Z</time></trkpt>
<trkpt lat="50.525265" lon="5.606052"><time>2026-05-02T17:27:55Z</time></trkpt>
</trkseg>
</trk>
<trk>
<name>lstsp166</name>
<cmt>v</cmt>
<desc>Sprimont Sentier n°166 </desc>
<link href="https://chemins.be/sprimont/sentier/166"/><trkseg>
<trkpt lat="50.526252" lon="5.602891"><time>2026-05-02T16:47:55Z</time></trkpt>
<trkpt lat="50.525258" lon="5.604191"><time>2026-05-02T16:57:55Z</time></trkpt>
<trkpt lat="50.524828" lon="5.604913"><time>2026-05-02T17:07:55Z</time></trkpt>
<trkpt lat="50.524248" lon="5.605279"><time>2026-05-02T17:17:55Z</time></trkpt>
<trkpt lat="50.523553" lon="5.603892"><time>2026-05-02T17:27:55Z</time></trkpt>
<trkpt lat="50.522867" lon="5.603268"><time>2026-05-02T17:37:55Z</time></trkpt>
<trkpt lat="50.522140" lon="5.601486"><time>2026-05-02T17:47:55Z</time></trkpt>
<trkpt lat="50.521978" lon="5.601411"><time>2026-05-02T17:57:55Z</time></trkpt>
</trkseg>
</trk>
<trk>
<name>lstsp167</name>
<cmt>r</cmt>
<desc>Sprimont Sentier n°167 Flagothier</desc>
<link href="https://chemins.be/sprimont/sentier/167"/><trkseg>
<trkpt lat="50.521848" lon="5.599864"><time>2026-05-02T16:47:55Z</time></trkpt>
<trkpt lat="50.521846" lon="5.600193"><time>2026-05-02T16:57:55Z</time></trkpt>
<trkpt lat="50.521644" lon="5.600763"><time>2026-05-02T17:07:55Z</time></trkpt>
</trkseg>
</trk>
<trk>
<name>lstsp168</name>
<cmt>d</cmt>
<desc>Sprimont Chemin n°168 </desc>
<link href="https://chemins.be/sprimont/chemin/168"/><trkseg>
<trkpt lat="50.519654" lon="5.602555"><time>2026-05-02T16:47:55Z</time></trkpt>
<trkpt lat="50.519696" lon="5.602680"><time>2026-05-02T16:57:55Z</time></trkpt>
<trkpt lat="50.519866" lon="5.602780"><time>2026-05-02T17:07:55Z</time></trkpt>
</trkseg></trk>
<trk>
<name>lstsp168</name>
<cmt>v</cmt>
<desc>Sprimont Chemin n°168 </desc>
<link href="https://chemins.be/sprimont/chemin/168"/><trkseg>
<trkpt lat="50.519866" lon="5.602780"><time>2026-05-02T17:07:55Z</time></trkpt>
<trkpt lat="50.520024" lon="5.602615"><time>2026-05-02T17:17:55Z</time></trkpt>
<trkpt lat="50.519963" lon="5.602374"><time>2026-05-02T17:27:55Z</time></trkpt>
<trkpt lat="50.520017" lon="5.602375"><time>2026-05-02T17:37:55Z</time></trkpt>
<trkpt lat="50.520181" lon="5.602542"><time>2026-05-02T17:47:55Z</time></trkpt>
<trkpt lat="50.520500" lon="5.602292"><time>2026-05-02T17:57:55Z</time></trkpt>
</trkseg>
</trk>
<trk>
<name>lstsp169</name>
<cmt>q</cmt>
<desc>Sprimont Sentier n°169 </desc>
<link href="https://chemins.be/sprimont/sentier/169"/><trkseg>
<trkpt lat="50.517582" lon="5.630313"><time>2026-05-02T16:47:55Z</time></trkpt>
<trkpt lat="50.518005" lon="5.630298"><time>2026-05-02T16:57:55Z</time></trkpt>
<trkpt lat="50.519661" lon="5.631357"><time>2026-05-02T17:07:55Z</time></trkpt>
<trkpt lat="50.520184" lon="5.631471"><time>2026-05-02T17:17:55Z</time></trkpt>
</trkseg>
</trk>
<trk>
<name>lstsp17</name>
<cmt>v</cmt>
<desc>Sprimont Chemin n°17 </desc>
<link href="https://chemins.be/sprimont/chemin/17"/><trkseg>
<trkpt lat="50.538393" lon="5.635841"><time>2026-05-02T16:47:55Z</time></trkpt>
<trkpt lat="50.539284" lon="5.635226"><time>2026-05-02T16:57:55Z</time></trkpt>
</trkseg>
</trk>
<trk>
<name>lstsp170</name>
<cmt>v</cmt>
<desc>Sprimont Sentier n°170 </desc>
<link href="https://chemins.be/sprimont/sentier/170"/><trkseg>
<trkpt lat="50.516227" lon="5.630005"><time>2026-05-02T16:47:55Z</time></trkpt>
<trkpt lat="50.517578" lon="5.630355"><time>2026-05-02T16:57:55Z</time></trkpt>
<trkpt lat="50.517678" lon="5.630878"><time>2026-05-02T17:07:55Z</time></trkpt>
<trkpt lat="50.518007" lon="5.631572"><time>2026-05-02T17:17:55Z</time></trkpt>
<trkpt lat="50.518733" lon="5.632530"><time>2026-05-02T17:27:55Z</time></trkpt>
<trkpt lat="50.521139" lon="5.633503"><time>2026-05-02T17:37:55Z</time></trkpt>
<trkpt lat="50.522668" lon="5.634018"><time>2026-05-02T17:47:55Z</time></trkpt>
<trkpt lat="50.522759" lon="5.633410"><time>2026-05-02T17:57:55Z</time></trkpt>
<trkpt lat="50.523749" lon="5.633309"><time>2026-05-02T18:07:55Z</time></trkpt>
</trkseg>
</trk>
<trk>
<name>lstsp171</name>
<cmt>r</cmt>
<desc>Sprimont Sentier n°171 </desc>
<link href="https://chemins.be/sprimont/sentier/171"/><trkseg>
<trkpt lat="50.520584" lon="5.643893"><time>2026-05-02T16:47:55Z</time></trkpt>
<trkpt lat="50.522910" lon="5.642948"><time>2026-05-02T16:57:55Z</time></trkpt>
</trkseg></trk>
<trk>
<name>lstsp171</name>
<cmt>q</cmt>
<desc>Sprimont Sentier n°171 </desc>
<link href="https://chemins.be/sprimont/sentier/171"/><trkseg>
<trkpt lat="50.522910" lon="5.642948"><time>2026-05-02T16:57:55Z</time></trkpt>
<trkpt lat="50.523904" lon="5.642401"><time>2026-05-02T17:07:55Z</time></trkpt>
</trkseg>
</trk>
<trk>
<name>lstsp174</name>
<cmt>q</cmt>
<desc>Sprimont Sentier n°174 </desc>
<link href="https://chemins.be/sprimont/sentier/174"/><trkseg>
<trkpt lat="50.527466" lon="5.671670"><time>2026-05-02T16:47:55Z</time></trkpt>
<trkpt lat="50.527261" lon="5.670876"><time>2026-05-02T16:57:55Z</time></trkpt>
<trkpt lat="50.525679" lon="5.668302"><time>2026-05-02T17:07:55Z</time></trkpt>
</trkseg></trk>
<trk>
<name>lstsp174</name>
<cmt>s</cmt>
<desc>Sprimont Sentier n°174 </desc>
<link href="https://chemins.be/sprimont/sentier/174"/><trkseg>
<trkpt lat="50.525679" lon="5.668302"><time>2026-05-02T17:07:55Z</time></trkpt>
<trkpt lat="50.524369" lon="5.666885"><time>2026-05-02T17:17:55Z</time></trkpt>
<trkpt lat="50.523578" lon="5.666370"><time>2026-05-02T17:27:55Z</time></trkpt>
</trkseg>
</trk>
<trk>
<name>lstsp175</name>
<cmt>q</cmt>
<desc>Sprimont Sentier n°175 </desc>
<link href="https://chemins.be/sprimont/sentier/175"/><trkseg>
<trkpt lat="50.519917" lon="5.672640"><time>2026-05-02T16:47:55Z</time></trkpt>
<trkpt lat="50.519199" lon="5.674314"><time>2026-05-02T16:57:55Z</time></trkpt>
<trkpt lat="50.518711" lon="5.674933"><time>2026-05-02T17:07:55Z</time></trkpt>
</trkseg>
</trk>
<trk>
<name>lstsp177</name>
<cmt>r</cmt>
<desc>Sprimont Sentier n°177 </desc>
<link href="https://chemins.be/sprimont/sentier/177"/><trkseg>
<trkpt lat="50.518301" lon="5.666348"><time>2026-05-02T16:47:55Z</time></trkpt>
<trkpt lat="50.517666" lon="5.665711"><time>2026-05-02T16:57:55Z</time></trkpt>
</trkseg></trk>
<trk>
<name>lstsp177</name>
<cmt>v</cmt>
<desc>Sprimont Sentier n°177 </desc>
<link href="https://chemins.be/sprimont/sentier/177"/><trkseg>
<trkpt lat="50.517666" lon="5.665711"><time>2026-05-02T16:57:55Z</time></trkpt>
<trkpt lat="50.516892" lon="5.664832"><time>2026-05-02T17:07:55Z</time></trkpt>
</trkseg>
</trk>
<trk>
<name>lstsp178</name>
<cmt>s</cmt>
<desc>Sprimont Sentier n°178 </desc>
<link href="https://chemins.be/sprimont/sentier/178"/><trkseg>
<trkpt lat="50.516909" lon="5.652621"><time>2026-05-02T16:47:55Z</time></trkpt>
<trkpt lat="50.518724" lon="5.652593"><time>2026-05-02T16:57:55Z</time></trkpt>
<trkpt lat="50.520206" lon="5.653065"><time>2026-05-02T17:07:55Z</time></trkpt>
</trkseg>
</trk>
<trk>
<name>lstsp179</name>
<cmt>r</cmt>
<desc>Sprimont Sentier n°179 </desc>
<link href="https://chemins.be/sprimont/sentier/179"/><trkseg>
<trkpt lat="50.517010" lon="5.655555"><time>2026-05-02T16:47:55Z</time></trkpt>
<trkpt lat="50.517669" lon="5.655712"><time>2026-05-02T16:57:55Z</time></trkpt>
<trkpt lat="50.518951" lon="5.655811"><time>2026-05-02T17:07:55Z</time></trkpt>
</trkseg></trk>
<trk>
<name>lstsp179</name>
<cmt>q</cmt>
<desc>Sprimont Sentier n°179 </desc>
<link href="https://chemins.be/sprimont/sentier/179"/><trkseg>
<trkpt lat="50.518951" lon="5.655811"><time>2026-05-02T17:07:55Z</time></trkpt>
<trkpt lat="50.520134" lon="5.655890"><time>2026-05-02T17:17:55Z</time></trkpt>
</trkseg>
</trk>
<trk>
<name>lstsp180</name>
<cmt>s</cmt>
<desc>Sprimont Sentier n°180 </desc>
<link href="https://chemins.be/sprimont/sentier/180"/><trkseg>
<trkpt lat="50.520384" lon="5.658916"><time>2026-05-02T16:47:55Z</time></trkpt>
<trkpt lat="50.519330" lon="5.657690"><time>2026-05-02T16:57:55Z</time></trkpt>
</trkseg></trk>
<trk>
<name>lstsp180</name>
<cmt>v</cmt>
<desc>Sprimont Sentier n°180 </desc>
<link href="https://chemins.be/sprimont/sentier/180"/><trkseg>
<trkpt lat="50.519330" lon="5.657690"><time>2026-05-02T16:57:55Z</time></trkpt>
<trkpt lat="50.518928" lon="5.657282"><time>2026-05-02T17:07:55Z</time></trkpt>
<trkpt lat="50.518896" lon="5.657046"><time>2026-05-02T17:17:55Z</time></trkpt>
<trkpt lat="50.518714" lon="5.656996"><time>2026-05-02T17:27:55Z</time></trkpt>
</trkseg></trk>
<trk>
<name>lstsp180</name>
<cmt>s</cmt>
<desc>Sprimont Sentier n°180 </desc>
<link href="https://chemins.be/sprimont/sentier/180"/><trkseg>
<trkpt lat="50.518714" lon="5.656996"><time>2026-05-02T17:27:55Z</time></trkpt>
<trkpt lat="50.517687" lon="5.655740"><time>2026-05-02T17:37:55Z</time></trkpt>
</trkseg>
</trk>
<trk>
<name>lstsp180bis</name>
<cmt>d</cmt>
<desc>Sprimont Sentier n°180bis </desc>
<link href="https://chemins.be/sprimont/sentier/180bis"/><trkseg>
<trkpt lat="50.520333" lon="5.657740"><time>2026-05-02T16:47:55Z</time></trkpt>
<trkpt lat="50.519373" lon="5.657751"><time>2026-05-02T16:57:55Z</time></trkpt>
</trkseg>
</trk>
<trk>
<name>lstsp181</name>
<cmt>q</cmt>
<desc>Sprimont Sentier n°181 </desc>
<link href="https://chemins.be/sprimont/sentier/181"/><trkseg>
<trkpt lat="50.510920" lon="5.634323"><time>2026-05-02T16:47:55Z</time></trkpt>
<trkpt lat="50.510286" lon="5.636354"><time>2026-05-02T16:57:55Z</time></trkpt>
<trkpt lat="50.510179" lon="5.637080"><time>2026-05-02T17:07:55Z</time></trkpt>
<trkpt lat="50.510291" lon="5.637369"><time>2026-05-02T17:17:55Z</time></trkpt>
<trkpt lat="50.510532" lon="5.637344"><time>2026-05-02T17:27:55Z</time></trkpt>
<trkpt lat="50.510707" lon="5.635978"><time>2026-05-02T17:37:55Z</time></trkpt>
<trkpt lat="50.511003" lon="5.635696"><time>2026-05-02T17:47:55Z</time></trkpt>
<trkpt lat="50.511241" lon="5.635617"><time>2026-05-02T17:57:55Z</time></trkpt>
<trkpt lat="50.511364" lon="5.636200"><time>2026-05-02T18:07:55Z</time></trkpt>
<trkpt lat="50.512286" lon="5.636070"><time>2026-05-02T18:17:55Z</time></trkpt>
</trkseg></trk>
<trk>
<name>lstsp181</name>
<cmt>v</cmt>
<desc>Sprimont Sentier n°181 </desc>
<link href="https://chemins.be/sprimont/sentier/181"/><trkseg>
<trkpt lat="50.512286" lon="5.636070"><time>2026-05-02T18:17:55Z</time></trkpt>
<trkpt lat="50.513368" lon="5.636120"><time>2026-05-02T18:27:55Z</time></trkpt>
<trkpt lat="50.513996" lon="5.635605"><time>2026-05-02T18:37:55Z</time></trkpt>
<trkpt lat="50.514987" lon="5.635992"><time>2026-05-02T18:47:55Z</time></trkpt>
<trkpt lat="50.515810" lon="5.635706"><time>2026-05-02T18:57:55Z</time></trkpt>
</trkseg>
</trk>
<trk>
<name>lstsp182</name>
<cmt>r</cmt>
<desc>Sprimont Sentier n°182 </desc>
<link href="https://chemins.be/sprimont/sentier/182"/><trkseg>
<trkpt lat="50.508826" lon="5.636236"><time>2026-05-02T16:47:55Z</time></trkpt>
<trkpt lat="50.509531" lon="5.635882"><time>2026-05-02T16:57:55Z</time></trkpt>
</trkseg></trk>
<trk>
<name>lstsp182</name>
<cmt>v</cmt>
<desc>Sprimont Sentier n°182 </desc>
<link href="https://chemins.be/sprimont/sentier/182"/><trkseg>
<trkpt lat="50.509531" lon="5.635882"><time>2026-05-02T16:57:55Z</time></trkpt>
<trkpt lat="50.510095" lon="5.635739"><time>2026-05-02T17:07:55Z</time></trkpt>
<trkpt lat="50.510284" lon="5.636368"><time>2026-05-02T17:17:55Z</time></trkpt>
</trkseg>
</trk>
<trk>
<name>lstsp183</name>
<cmt>q</cmt>
<desc>Sprimont Sentier n°183 </desc>
<link href="https://chemins.be/sprimont/sentier/183"/><trkseg>
<trkpt lat="50.512704" lon="5.626185"><time>2026-05-02T16:47:55Z</time></trkpt>
<trkpt lat="50.514056" lon="5.624000"><time>2026-05-02T16:57:55Z</time></trkpt>
<trkpt lat="50.514242" lon="5.623239"><time>2026-05-02T17:07:55Z</time></trkpt>
</trkseg>
</trk>
<trk>
<name>lstsp184</name>
<cmt>r</cmt>
<desc>Sprimont Sentier n°184 </desc>
<link href="https://chemins.be/sprimont/sentier/184"/><trkseg>
<trkpt lat="50.512704" lon="5.630614"><time>2026-05-02T16:47:55Z</time></trkpt>
<trkpt lat="50.512434" lon="5.630716"><time>2026-05-02T16:57:55Z</time></trkpt>
</trkseg></trk>
<trk>
<name>lstsp184</name>
<cmt>q</cmt>
<desc>Sprimont Sentier n°184 </desc>
<link href="https://chemins.be/sprimont/sentier/184"/><trkseg>
<trkpt lat="50.512434" lon="5.630716"><time>2026-05-02T16:57:55Z</time></trkpt>
<trkpt lat="50.511944" lon="5.631358"><time>2026-05-02T17:07:55Z</time></trkpt>
<trkpt lat="50.511799" lon="5.632173"><time>2026-05-02T17:17:55Z</time></trkpt>
<trkpt lat="50.511837" lon="5.632599"><time>2026-05-02T17:27:55Z</time></trkpt>
<trkpt lat="50.511266" lon="5.632838"><time>2026-05-02T17:37:55Z</time></trkpt>
</trkseg>
</trk>
<trk>
<name>lstsp185</name>
<cmt>v</cmt>
<desc>Sprimont Sentier n°185 </desc>
<link href="https://chemins.be/sprimont/sentier/185"/><trkseg>
<trkpt lat="50.511164" lon="5.632917"><time>2026-05-02T16:47:55Z</time></trkpt>
<trkpt lat="50.511207" lon="5.633804"><time>2026-05-02T16:57:55Z</time></trkpt>
</trkseg>
</trk>
<trk>
<name>lstsp186</name>
<cmt>v</cmt>
<desc>Sprimont Sentier n°186 Cour Hazotte</desc>
<link href="https://chemins.be/sprimont/sentier/186"/><trkseg>
<trkpt lat="50.510741" lon="5.633046"><time>2026-05-02T16:47:55Z</time></trkpt>
<trkpt lat="50.510768" lon="5.633263"><time>2026-05-02T16:57:55Z</time></trkpt>
<trkpt lat="50.510704" lon="5.633338"><time>2026-05-02T17:07:55Z</time></trkpt>
<trkpt lat="50.510703" lon="5.633471"><time>2026-05-02T17:17:55Z</time></trkpt>
<trkpt lat="50.510804" lon="5.633986"><time>2026-05-02T17:27:55Z</time></trkpt>
<trkpt lat="50.510920" lon="5.634323"><time>2026-05-02T17:37:55Z</time></trkpt>
<trkpt lat="50.511148" lon="5.634280"><time>2026-05-02T17:47:55Z</time></trkpt>
<trkpt lat="50.511337" lon="5.634816"><time>2026-05-02T17:57:55Z</time></trkpt>
<trkpt lat="50.511601" lon="5.634791"><time>2026-05-02T18:07:55Z</time></trkpt>
<trkpt lat="50.511926" lon="5.635149"><time>2026-05-02T18:17:55Z</time></trkpt>
<trkpt lat="50.512258" lon="5.636049"><time>2026-05-02T18:27:55Z</time></trkpt>
</trkseg>
</trk>
<trk>
<name>lstsp188</name>
<cmt>v</cmt>
<desc>Sprimont Sentier n°188 </desc>
<link href="https://chemins.be/sprimont/sentier/188"/><trkseg>
<trkpt lat="50.512925" lon="5.627204"><time>2026-05-02T16:47:55Z</time></trkpt>
<trkpt lat="50.513025" lon="5.627199"><time>2026-05-02T16:57:55Z</time></trkpt>
<trkpt lat="50.513166" lon="5.627322"><time>2026-05-02T17:07:55Z</time></trkpt>
<trkpt lat="50.513613" lon="5.627051"><time>2026-05-02T17:17:55Z</time></trkpt>
<trkpt lat="50.513691" lon="5.627280"><time>2026-05-02T17:27:55Z</time></trkpt>
<trkpt lat="50.514052" lon="5.627517"><time>2026-05-02T17:37:55Z</time></trkpt>
</trkseg></trk>
<trk>
<name>lstsp188</name>
<cmt>q</cmt>
<desc>Sprimont Sentier n°188 </desc>
<link href="https://chemins.be/sprimont/sentier/188"/><trkseg>
<trkpt lat="50.514052" lon="5.627517"><time>2026-05-02T17:37:55Z</time></trkpt>
<trkpt lat="50.514677" lon="5.628246"><time>2026-05-02T17:47:55Z</time></trkpt>
<trkpt lat="50.515786" lon="5.627702"><time>2026-05-02T17:57:55Z</time></trkpt>
<trkpt lat="50.515804" lon="5.627459"><time>2026-05-02T18:07:55Z</time></trkpt>
<trkpt lat="50.515991" lon="5.627316"><time>2026-05-02T18:17:55Z</time></trkpt>
<trkpt lat="50.516773" lon="5.624934"><time>2026-05-02T18:27:55Z</time></trkpt>
<trkpt lat="50.517437" lon="5.619412"><time>2026-05-02T18:37:55Z</time></trkpt>
</trkseg>
</trk>
<trk>
<name>lstsp189</name>
<cmt>q</cmt>
<desc>Sprimont Sentier n°189 </desc>
<link href="https://chemins.be/sprimont/sentier/189"/><trkseg>
<trkpt lat="50.513691" lon="5.627290"><time>2026-05-02T16:47:55Z</time></trkpt>
<trkpt lat="50.513944" lon="5.628253"><time>2026-05-02T16:57:55Z</time></trkpt>
</trkseg>
</trk>
<trk>
<name>lstsp19</name>
<cmt>v</cmt>
<desc>Sprimont Chemin n°19 Rue Sart le Coq</desc>
<link href="https://chemins.be/sprimont/chemin/19"/><trkseg>
<trkpt lat="50.526905" lon="5.644822"><time>2026-05-02T16:47:55Z</time></trkpt>
<trkpt lat="50.525914" lon="5.646285"><time>2026-05-02T16:57:55Z</time></trkpt>
<trkpt lat="50.523767" lon="5.646399"><time>2026-05-02T17:07:55Z</time></trkpt>
<trkpt lat="50.522939" lon="5.646849"><time>2026-05-02T17:17:55Z</time></trkpt>
<trkpt lat="50.522307" lon="5.647865"><time>2026-05-02T17:27:55Z</time></trkpt>
<trkpt lat="50.521525" lon="5.648323"><time>2026-05-02T17:37:55Z</time></trkpt>
<trkpt lat="50.520369" lon="5.648127"><time>2026-05-02T17:47:55Z</time></trkpt>
<trkpt lat="50.519802" lon="5.648065"><time>2026-05-02T17:57:55Z</time></trkpt>
</trkseg>
</trk>
<trk>
<name>lstsp192</name>
<cmt>v</cmt>
<desc>Sprimont Sentier n°192 </desc>
<link href="https://chemins.be/sprimont/sentier/192"/><trkseg>
<trkpt lat="50.511391" lon="5.627649"><time>2026-05-02T16:47:55Z</time></trkpt>
<trkpt lat="50.511255" lon="5.627467"><time>2026-05-02T16:57:55Z</time></trkpt>
<trkpt lat="50.511114" lon="5.626755"><time>2026-05-02T17:07:55Z</time></trkpt>
<trkpt lat="50.510097" lon="5.626494"><time>2026-05-02T17:17:55Z</time></trkpt>
</trkseg>
</trk>
<trk>
<name>lstsp193</name>
<cmt>q</cmt>
<desc>Sprimont Sentier n°193 </desc>
<link href="https://chemins.be/sprimont/sentier/193"/><trkseg>
<trkpt lat="50.516404" lon="5.620542"><time>2026-05-02T16:47:55Z</time></trkpt>
<trkpt lat="50.517105" lon="5.617967"><time>2026-05-02T16:57:55Z</time></trkpt>
<trkpt lat="50.517751" lon="5.614513"><time>2026-05-02T17:07:55Z</time></trkpt>
<trkpt lat="50.518146" lon="5.613790"><time>2026-05-02T17:17:55Z</time></trkpt>
</trkseg>
</trk>
<trk>
<name>lstsp194</name>
<cmt>q</cmt>
<desc>Sprimont Sentier n°194 </desc>
<link href="https://chemins.be/sprimont/sentier/194"/><trkseg>
<trkpt lat="50.519247" lon="5.614642"><time>2026-05-02T16:47:55Z</time></trkpt>
<trkpt lat="50.520184" lon="5.614016"><time>2026-05-02T16:57:55Z</time></trkpt>
<trkpt lat="50.520771" lon="5.613162"><time>2026-05-02T17:07:55Z</time></trkpt>
<trkpt lat="50.523585" lon="5.612023"><time>2026-05-02T17:17:55Z</time></trkpt>
</trkseg>
</trk>
<trk>
<name>lstsp195</name>
<cmt>s</cmt>
<desc>Sprimont Sentier n°195 </desc>
<link href="https://chemins.be/sprimont/sentier/195"/><trkseg>
<trkpt lat="50.509038" lon="5.638435"><time>2026-05-02T16:47:55Z</time></trkpt>
<trkpt lat="50.509567" lon="5.638145"><time>2026-05-02T16:57:55Z</time></trkpt>
<trkpt lat="50.509711" lon="5.637244"><time>2026-05-02T17:07:55Z</time></trkpt>
<trkpt lat="50.509720" lon="5.635227"><time>2026-05-02T17:17:55Z</time></trkpt>
<trkpt lat="50.509597" lon="5.634891"><time>2026-05-02T17:27:55Z</time></trkpt>
</trkseg>
</trk>
<trk>
<name>lstsp196</name>
<cmt>d</cmt>
<desc>Sprimont Sentier n°196 </desc>
<link href="https://chemins.be/sprimont/sentier/196"/><trkseg>
<trkpt lat="50.500428" lon="5.644937"><time>2026-05-02T16:47:55Z</time></trkpt>
<trkpt lat="50.500695" lon="5.644697"><time>2026-05-02T16:57:55Z</time></trkpt>
<trkpt lat="50.500695" lon="5.644572"><time>2026-05-02T17:07:55Z</time></trkpt>
<trkpt lat="50.501254" lon="5.643735"><time>2026-05-02T17:17:55Z</time></trkpt>
<trkpt lat="50.501623" lon="5.643474"><time>2026-05-02T17:27:55Z</time></trkpt>
<trkpt lat="50.502132" lon="5.643560"><time>2026-05-02T17:37:55Z</time></trkpt>
<trkpt lat="50.502196" lon="5.643227"><time>2026-05-02T17:47:55Z</time></trkpt>
<trkpt lat="50.503657" lon="5.642994"><time>2026-05-02T17:57:55Z</time></trkpt>
<trkpt lat="50.504262" lon="5.642636"><time>2026-05-02T18:07:55Z</time></trkpt>
<trkpt lat="50.506706" lon="5.640345"><time>2026-05-02T18:17:55Z</time></trkpt>
</trkseg></trk>
<trk>
<name>lstsp196</name>
<cmt>s</cmt>
<desc>Sprimont Sentier n°196 </desc>
<link href="https://chemins.be/sprimont/sentier/196"/><trkseg>
<trkpt lat="50.506706" lon="5.640345"><time>2026-05-02T18:17:55Z</time></trkpt>
<trkpt lat="50.507534" lon="5.640030"><time>2026-05-02T18:27:55Z</time></trkpt>
</trkseg>
</trk>
<trk>
<name>lstsp196bis</name>
<cmt>d</cmt>
<desc>Sprimont Sentier n°196bis </desc>
<link href="https://chemins.be/sprimont/sentier/196bis"/><trkseg>
<trkpt lat="50.507275" lon="5.640953"><time>2026-05-02T16:47:55Z</time></trkpt>
<trkpt lat="50.506931" lon="5.640552"><time>2026-05-02T16:57:55Z</time></trkpt>
<trkpt lat="50.506856" lon="5.640595"><time>2026-05-02T17:07:55Z</time></trkpt>
<trkpt lat="50.506718" lon="5.640388"><time>2026-05-02T17:17:55Z</time></trkpt>
</trkseg>
</trk>
<trk>
<name>lstsp197</name>
<cmt>v</cmt>
<desc>Sprimont Sentier n°197 </desc>
<link href="https://chemins.be/sprimont/sentier/197"/><trkseg>
<trkpt lat="50.504096" lon="5.682609"><time>2026-05-02T16:47:55Z</time></trkpt>
<trkpt lat="50.504081" lon="5.683762"><time>2026-05-02T16:57:55Z</time></trkpt>
<trkpt lat="50.504370" lon="5.686444"><time>2026-05-02T17:07:55Z</time></trkpt>
<trkpt lat="50.504524" lon="5.686837"><time>2026-05-02T17:17:55Z</time></trkpt>
<trkpt lat="50.505044" lon="5.688150"><time>2026-05-02T17:27:55Z</time></trkpt>
<trkpt lat="50.505784" lon="5.689739"><time>2026-05-02T17:37:55Z</time></trkpt>
<trkpt lat="50.506312" lon="5.690554"><time>2026-05-02T17:47:55Z</time></trkpt>
</trkseg></trk>
<trk>
<name>lstsp197</name>
<cmt>s</cmt>
<desc>Sprimont Sentier n°197 </desc>
<link href="https://chemins.be/sprimont/sentier/197"/><trkseg>
<trkpt lat="50.506312" lon="5.690554"><time>2026-05-02T17:47:55Z</time></trkpt>
<trkpt lat="50.506886" lon="5.691472"><time>2026-05-02T17:57:55Z</time></trkpt>
</trkseg></trk>
<trk>
<name>lstsp197</name>
<cmt>q</cmt>
<desc>Sprimont Sentier n°197 </desc>
<link href="https://chemins.be/sprimont/sentier/197"/><trkseg>
<trkpt lat="50.506886" lon="5.691472"><time>2026-05-02T17:57:55Z</time></trkpt>
<trkpt lat="50.507634" lon="5.693394"><time>2026-05-02T18:07:55Z</time></trkpt>
<trkpt lat="50.507427" lon="5.693735"><time>2026-05-02T18:17:55Z</time></trkpt>
<trkpt lat="50.507801" lon="5.694776"><time>2026-05-02T18:27:55Z</time></trkpt>
<trkpt lat="50.507811" lon="5.695595"><time>2026-05-02T18:37:55Z</time></trkpt>
<trkpt lat="50.508038" lon="5.696326"><time>2026-05-02T18:47:55Z</time></trkpt>
</trkseg>
</trk>
<trk>
<name>lstsp198</name>
<cmt>v</cmt>
<desc>Sprimont Sentier n°198 Rue de Chevrimont</desc>
<link href="https://chemins.be/sprimont/sentier/198"/><trkseg>
<trkpt lat="50.503018" lon="5.599188"><time>2026-05-02T16:47:55Z</time></trkpt>
<trkpt lat="50.502986" lon="5.599317"><time>2026-05-02T16:57:55Z</time></trkpt>
<trkpt lat="50.503148" lon="5.599869"><time>2026-05-02T17:07:55Z</time></trkpt>
<trkpt lat="50.502249" lon="5.599761"><time>2026-05-02T17:17:55Z</time></trkpt>
<trkpt lat="50.502105" lon="5.599987"><time>2026-05-02T17:27:55Z</time></trkpt>
<trkpt lat="50.502138" lon="5.600309"><time>2026-05-02T17:37:55Z</time></trkpt>
<trkpt lat="50.501759" lon="5.601285"><time>2026-05-02T17:47:55Z</time></trkpt>
<trkpt lat="50.501333" lon="5.601828"><time>2026-05-02T17:57:55Z</time></trkpt>
<trkpt lat="50.500440" lon="5.602967"><time>2026-05-02T18:07:55Z</time></trkpt>
<trkpt lat="50.499217" lon="5.604791"><time>2026-05-02T18:17:55Z</time></trkpt>
</trkseg></trk>
<trk>
<name>lstsp198</name>
<cmt>r</cmt>
<desc>Sprimont Sentier n°198 Rue de Chevrimont</desc>
<link href="https://chemins.be/sprimont/sentier/198"/><trkseg>
<trkpt lat="50.499217" lon="5.604791"><time>2026-05-02T18:17:55Z</time></trkpt>
<trkpt lat="50.496605" lon="5.609838"><time>2026-05-02T18:27:55Z</time></trkpt>
<trkpt lat="50.495955" lon="5.610469"><time>2026-05-02T18:37:55Z</time></trkpt>
<trkpt lat="50.495480" lon="5.610834"><time>2026-05-02T18:47:55Z</time></trkpt>
</trkseg>
</trk>
<trk>
<name>lstsp199</name>
<cmt>v</cmt>
<desc>Sprimont Sentier n°199 </desc>
<link href="https://chemins.be/sprimont/sentier/199"/><trkseg>
<trkpt lat="50.496220" lon="5.603521"><time>2026-05-02T16:47:55Z</time></trkpt>
<trkpt lat="50.496597" lon="5.602946"><time>2026-05-02T16:57:55Z</time></trkpt>
<trkpt lat="50.497006" lon="5.603195"><time>2026-05-02T17:07:55Z</time></trkpt>
<trkpt lat="50.497577" lon="5.603384"><time>2026-05-02T17:17:55Z</time></trkpt>
<trkpt lat="50.497953" lon="5.603203"><time>2026-05-02T17:27:55Z</time></trkpt>
<trkpt lat="50.498846" lon="5.603525"><time>2026-05-02T17:37:55Z</time></trkpt>
<trkpt lat="50.499231" lon="5.604795"><time>2026-05-02T17:47:55Z</time></trkpt>
</trkseg>
</trk>
<trk>
<name>lstsp2</name>
<cmt>v</cmt>
<desc>Sprimont Chemin n°2 </desc>
<link href="https://chemins.be/sprimont/chemin/2"/><trkseg>
<trkpt lat="50.505495" lon="5.681750"><time>2026-05-02T16:47:55Z</time></trkpt>
<trkpt lat="50.506709" lon="5.682984"><time>2026-05-02T16:57:55Z</time></trkpt>
<trkpt lat="50.507521" lon="5.684003"><time>2026-05-02T17:07:55Z</time></trkpt>
<trkpt lat="50.508647" lon="5.685965"><time>2026-05-02T17:17:55Z</time></trkpt>
</trkseg></trk>
<trk>
<name>lstsp2</name>
<cmt>q</cmt>
<desc>Sprimont Chemin n°2 </desc>
<link href="https://chemins.be/sprimont/chemin/2"/><trkseg>
<trkpt lat="50.508647" lon="5.685965"><time>2026-05-02T17:17:55Z</time></trkpt>
<trkpt lat="50.508867" lon="5.686348"><time>2026-05-02T17:27:55Z</time></trkpt>
</trkseg></trk>
<trk>
<name>lstsp2</name>
<cmt>s</cmt>
<desc>Sprimont Chemin n°2 </desc>
<link href="https://chemins.be/sprimont/chemin/2"/><trkseg>
<trkpt lat="50.508867" lon="5.686348"><time>2026-05-02T17:27:55Z</time></trkpt>
<trkpt lat="50.509609" lon="5.687640"><time>2026-05-02T17:37:55Z</time></trkpt>
</trkseg></trk>
<trk>
<name>lstsp2</name>
<cmt>d</cmt>
<desc>Sprimont Chemin n°2 </desc>
<link href="https://chemins.be/sprimont/chemin/2"/><trkseg>
<trkpt lat="50.509609" lon="5.687640"><time>2026-05-02T17:37:55Z</time></trkpt>
<trkpt lat="50.511501" lon="5.691613"><time>2026-05-02T17:47:55Z</time></trkpt>
</trkseg>
</trk>
<trk>
<name>lstsp200</name>
<cmt>b</cmt>
<desc>Sprimont Sentier n°200 </desc>
<link href="https://chemins.be/sprimont/sentier/200"/><trkseg>
<trkpt lat="50.503459" lon="5.597531"><time>2026-05-02T16:47:55Z</time></trkpt>
<trkpt lat="50.504055" lon="5.596827"><time>2026-05-02T16:57:55Z</time></trkpt>
</trkseg></trk>
<trk>
<name>lstsp200</name>
<cmt>d</cmt>
<desc>Sprimont Sentier n°200 </desc>
<link href="https://chemins.be/sprimont/sentier/200"/><trkseg>
<trkpt lat="50.504055" lon="5.596827"><time>2026-05-02T16:57:55Z</time></trkpt>
<trkpt lat="50.504371" lon="5.596379"><time>2026-05-02T17:07:55Z</time></trkpt>
<trkpt lat="50.506827" lon="5.594791"><time>2026-05-02T17:17:55Z</time></trkpt>
<trkpt lat="50.508610" lon="5.593618"><time>2026-05-02T17:27:55Z</time></trkpt>
<trkpt lat="50.509411" lon="5.592560"><time>2026-05-02T17:37:55Z</time></trkpt>
<trkpt lat="50.510818" lon="5.592257"><time>2026-05-02T17:47:55Z</time></trkpt>
<trkpt lat="50.511269" lon="5.591184"><time>2026-05-02T17:57:55Z</time></trkpt>
</trkseg>
</trk>
<trk>
<name>lstsp202</name>
<cmt>q</cmt>
<desc>Sprimont Sentier n°202 </desc>
<link href="https://chemins.be/sprimont/sentier/202"/><trkseg>
<trkpt lat="50.494619" lon="5.623673"><time>2026-05-02T16:47:55Z</time></trkpt>
<trkpt lat="50.494140" lon="5.622921"><time>2026-05-02T16:57:55Z</time></trkpt>
<trkpt lat="50.493312" lon="5.620575"><time>2026-05-02T17:07:55Z</time></trkpt>
<trkpt lat="50.492244" lon="5.615462"><time>2026-05-02T17:17:55Z</time></trkpt>
<trkpt lat="50.492262" lon="5.614747"><time>2026-05-02T17:27:55Z</time></trkpt>
</trkseg>
</trk>
<trk>
<name>lstsp203</name>
<cmt>v</cmt>
<desc>Sprimont Sentier n°203 </desc>
<link href="https://chemins.be/sprimont/sentier/203"/><trkseg>
<trkpt lat="50.498827" lon="5.636039"><time>2026-05-02T16:47:55Z</time></trkpt>
<trkpt lat="50.500312" lon="5.633968"><time>2026-05-02T16:57:55Z</time></trkpt>
</trkseg></trk>
<trk>
<name>lstsp203</name>
<cmt>q</cmt>
<desc>Sprimont Sentier n°203 </desc>
<link href="https://chemins.be/sprimont/sentier/203"/><trkseg>
<trkpt lat="50.500312" lon="5.633968"><time>2026-05-02T16:57:55Z</time></trkpt>
<trkpt lat="50.500779" lon="5.633121"><time>2026-05-02T17:07:55Z</time></trkpt>
</trkseg>
</trk>
<trk>
<name>lstsp204</name>
<cmt>d</cmt>
<desc>Sprimont Sentier n°204 </desc>
<link href="https://chemins.be/sprimont/sentier/204"/><trkseg>
<trkpt lat="50.496825" lon="5.622212"><time>2026-05-02T16:47:55Z</time></trkpt>
<trkpt lat="50.496981" lon="5.621101"><time>2026-05-02T16:57:55Z</time></trkpt>
</trkseg>
</trk>
<trk>
<name>lstsp205</name>
<cmt>r</cmt>
<desc>Sprimont Sentier n°205 Rue Haute Lillé</desc>
<link href="https://chemins.be/sprimont/sentier/205"/><trkseg>
<trkpt lat="50.500978" lon="5.647303"><time>2026-05-02T16:47:55Z</time></trkpt>
<trkpt lat="50.500755" lon="5.647388"><time>2026-05-02T16:57:55Z</time></trkpt>
<trkpt lat="50.499602" lon="5.647106"><time>2026-05-02T17:07:55Z</time></trkpt>
</trkseg>
</trk>
<trk>
<name>lstsp206</name>
<cmt>q</cmt>
<desc>Sprimont Sentier n°206 </desc>
<link href="https://chemins.be/sprimont/sentier/206"/><trkseg>
<trkpt lat="50.522059" lon="5.662554"><time>2026-05-02T16:47:55Z</time></trkpt>
<trkpt lat="50.520273" lon="5.662705"><time>2026-05-02T16:57:55Z</time></trkpt>
</trkseg>
</trk>
<trk>
<name>lstsp207</name>
<cmt>v</cmt>
<desc>Sprimont Sentier n°207 </desc>
<link href="https://chemins.be/sprimont/sentier/207"/><trkseg>
<trkpt lat="50.501802" lon="5.662208"><time>2026-05-02T16:47:55Z</time></trkpt>
<trkpt lat="50.501403" lon="5.659912"><time>2026-05-02T16:57:55Z</time></trkpt>
<trkpt lat="50.501444" lon="5.659874"><time>2026-05-02T17:07:55Z</time></trkpt>
<trkpt lat="50.501430" lon="5.659552"><time>2026-05-02T17:17:55Z</time></trkpt>
<trkpt lat="50.501309" lon="5.658998"><time>2026-05-02T17:27:55Z</time></trkpt>
</trkseg></trk>
<trk>
<name>lstsp207</name>
<cmt>q</cmt>
<desc>Sprimont Sentier n°207 </desc>
<link href="https://chemins.be/sprimont/sentier/207"/><trkseg>
<trkpt lat="50.501309" lon="5.658998"><time>2026-05-02T17:27:55Z</time></trkpt>
<trkpt lat="50.501269" lon="5.658803"><time>2026-05-02T17:37:55Z</time></trkpt>
<trkpt lat="50.500713" lon="5.658385"><time>2026-05-02T17:47:55Z</time></trkpt>
<trkpt lat="50.500128" lon="5.654624"><time>2026-05-02T17:57:55Z</time></trkpt>
</trkseg>
</trk>
<trk>
<name>lstsp208</name>
<cmt>q</cmt>
<desc>Sprimont Sentier n°208 </desc>
<link href="https://chemins.be/sprimont/sentier/208"/><trkseg>
<trkpt lat="50.500095" lon="5.660941"><time>2026-05-02T16:47:55Z</time></trkpt>
<trkpt lat="50.499719" lon="5.658479"><time>2026-05-02T16:57:55Z</time></trkpt>
<trkpt lat="50.499100" lon="5.657979"><time>2026-05-02T17:07:55Z</time></trkpt>
<trkpt lat="50.499100" lon="5.657471"><time>2026-05-02T17:17:55Z</time></trkpt>
</trkseg>
</trk>
<trk>
<name>lstsp209</name>
<cmt>v</cmt>
<desc>Sprimont Sentier n°209 </desc>
<link href="https://chemins.be/sprimont/sentier/209"/><trkseg>
<trkpt lat="50.502181" lon="5.662547"><time>2026-05-02T16:47:55Z</time></trkpt>
<trkpt lat="50.502039" lon="5.662566"><time>2026-05-02T16:57:55Z</time></trkpt>
<trkpt lat="50.501823" lon="5.662200"><time>2026-05-02T17:07:55Z</time></trkpt>
</trkseg></trk>
<trk>
<name>lstsp209</name>
<cmt>q</cmt>
<desc>Sprimont Sentier n°209 </desc>
<link href="https://chemins.be/sprimont/sentier/209"/><trkseg>
<trkpt lat="50.501823" lon="5.662200"><time>2026-05-02T17:07:55Z</time></trkpt>
<trkpt lat="50.501205" lon="5.662432"><time>2026-05-02T17:17:55Z</time></trkpt>
<trkpt lat="50.501108" lon="5.662010"><time>2026-05-02T17:27:55Z</time></trkpt>
<trkpt lat="50.500293" lon="5.662527"><time>2026-05-02T17:37:55Z</time></trkpt>
<trkpt lat="50.499285" lon="5.661280"><time>2026-05-02T17:47:55Z</time></trkpt>
</trkseg></trk>
<trk>
<name>lstsp209</name>
<cmt>r</cmt>
<desc>Sprimont Sentier n°209 </desc>
<link href="https://chemins.be/sprimont/sentier/209"/><trkseg>
<trkpt lat="50.499285" lon="5.661280"><time>2026-05-02T17:47:55Z</time></trkpt>
<trkpt lat="50.498132" lon="5.659584"><time>2026-05-02T17:57:55Z</time></trkpt>
<trkpt lat="50.496221" lon="5.658501"><time>2026-05-02T18:07:55Z</time></trkpt>
<trkpt lat="50.495040" lon="5.657364"><time>2026-05-02T18:17:55Z</time></trkpt>
</trkseg>
</trk>
<trk>
<name>lstsp210</name>
<cmt>v</cmt>
<desc>Sprimont Sentier n°210 </desc>
<link href="https://chemins.be/sprimont/sentier/210"/><trkseg>
<trkpt lat="50.502218" lon="5.664169"><time>2026-05-02T16:47:55Z</time></trkpt>
<trkpt lat="50.502422" lon="5.664420"><time>2026-05-02T16:57:55Z</time></trkpt>
<trkpt lat="50.502149" lon="5.665622"><time>2026-05-02T17:07:55Z</time></trkpt>
<trkpt lat="50.502255" lon="5.666057"><time>2026-05-02T17:17:55Z</time></trkpt>
<trkpt lat="50.501995" lon="5.666731"><time>2026-05-02T17:27:55Z</time></trkpt>
<trkpt lat="50.502215" lon="5.667696"><time>2026-05-02T17:37:55Z</time></trkpt>
</trkseg>
</trk>
<trk>
<name>lstsp211</name>
<cmt>r</cmt>
<desc>Sprimont Sentier n°211 Rue des Broux</desc>
<link href="https://chemins.be/sprimont/sentier/211"/><trkseg>
<trkpt lat="50.503932" lon="5.667610"><time>2026-05-02T16:47:55Z</time></trkpt>
<trkpt lat="50.503257" lon="5.667352"><time>2026-05-02T16:57:55Z</time></trkpt>
<trkpt lat="50.502445" lon="5.667449"><time>2026-05-02T17:07:55Z</time></trkpt>
<trkpt lat="50.501100" lon="5.668318"><time>2026-05-02T17:17:55Z</time></trkpt>
<trkpt lat="50.499524" lon="5.670989"><time>2026-05-02T17:27:55Z</time></trkpt>
</trkseg>
</trk>
<trk>
<name>lstsp214</name>
<cmt>v</cmt>
<desc>Sprimont Sentier n°214 Rue de Damré</desc>
<link href="https://chemins.be/sprimont/sentier/214"/><trkseg>
<trkpt lat="50.503356" lon="5.675604"><time>2026-05-02T16:47:55Z</time></trkpt>
<trkpt lat="50.503472" lon="5.674303"><time>2026-05-02T16:57:55Z</time></trkpt>
<trkpt lat="50.503199" lon="5.672847"><time>2026-05-02T17:07:55Z</time></trkpt>
<trkpt lat="50.503239" lon="5.671519"><time>2026-05-02T17:17:55Z</time></trkpt>
<trkpt lat="50.503753" lon="5.668986"><time>2026-05-02T17:27:55Z</time></trkpt>
<trkpt lat="50.503879" lon="5.668385"><time>2026-05-02T17:37:55Z</time></trkpt>
<trkpt lat="50.504091" lon="5.668181"><time>2026-05-02T17:47:55Z</time></trkpt>
</trkseg>
</trk>
<trk>
<name>lstsp215</name>
<cmt>v</cmt>
<desc>Sprimont Sentier n°215 </desc>
<link href="https://chemins.be/sprimont/sentier/215"/><trkseg>
<trkpt lat="50.499563" lon="5.671036"><time>2026-05-02T16:47:55Z</time></trkpt>
<trkpt lat="50.499795" lon="5.673103"><time>2026-05-02T16:57:55Z</time></trkpt>
<trkpt lat="50.499749" lon="5.674798"><time>2026-05-02T17:07:55Z</time></trkpt>
</trkseg>
</trk>
<trk>
<name>lstsp216</name>
<cmt>d</cmt>
<desc>Sprimont Sentier n°216 </desc>
<link href="https://chemins.be/sprimont/sentier/216"/><trkseg>
<trkpt lat="50.505824" lon="5.678787"><time>2026-05-02T16:47:55Z</time></trkpt>
<trkpt lat="50.506300" lon="5.679237"><time>2026-05-02T16:57:55Z</time></trkpt>
<trkpt lat="50.507518" lon="5.679796"><time>2026-05-02T17:07:55Z</time></trkpt>
</trkseg>
</trk>
<trk>
<name>lstsp217</name>
<cmt>q</cmt>
<desc>Sprimont Sentier n°217 </desc>
<link href="https://chemins.be/sprimont/sentier/217"/><trkseg>
<trkpt lat="50.505525" lon="5.679651"><time>2026-05-02T16:47:55Z</time></trkpt>
<trkpt lat="50.505422" lon="5.679627"><time>2026-05-02T16:57:55Z</time></trkpt>
<trkpt lat="50.505009" lon="5.681043"><time>2026-05-02T17:07:55Z</time></trkpt>
</trkseg></trk>
<trk>
<name>lstsp217</name>
<cmt>r</cmt>
<desc>Sprimont Sentier n°217 </desc>
<link href="https://chemins.be/sprimont/sentier/217"/><trkseg>
<trkpt lat="50.505009" lon="5.681043"><time>2026-05-02T17:07:55Z</time></trkpt>
<trkpt lat="50.504871" lon="5.682370"><time>2026-05-02T17:17:55Z</time></trkpt>
</trkseg></trk>
<trk>
<name>lstsp217</name>
<cmt>v</cmt>
<desc>Sprimont Sentier n°217 </desc>
<link href="https://chemins.be/sprimont/sentier/217"/><trkseg>
<trkpt lat="50.504871" lon="5.682370"><time>2026-05-02T17:17:55Z</time></trkpt>
<trkpt lat="50.504904" lon="5.682893"><time>2026-05-02T17:27:55Z</time></trkpt>
</trkseg></trk>
<trk>
<name>lstsp217</name>
<cmt>q</cmt>
<desc>Sprimont Sentier n°217 </desc>
<link href="https://chemins.be/sprimont/sentier/217"/><trkseg>
<trkpt lat="50.504904" lon="5.682893"><time>2026-05-02T17:27:55Z</time></trkpt>
<trkpt lat="50.504480" lon="5.684151"><time>2026-05-02T17:37:55Z</time></trkpt>
<trkpt lat="50.504733" lon="5.685685"><time>2026-05-02T17:47:55Z</time></trkpt>
</trkseg>
</trk>
<trk>
<name>lstsp217bis</name>
<cmt>q</cmt>
<desc>Sprimont Sentier n°217bis </desc>
<link href="https://chemins.be/sprimont/sentier/217bis"/><trkseg>
<trkpt lat="50.504106" lon="5.682960"><time>2026-05-02T16:47:55Z</time></trkpt>
<trkpt lat="50.504460" lon="5.684192"><time>2026-05-02T16:57:55Z</time></trkpt>
</trkseg>
</trk>
<trk>
<name>lstsp219</name>
<cmt>q</cmt>
<desc>Sprimont Sentier n°219 </desc>
<link href="https://chemins.be/sprimont/sentier/219"/><trkseg>
<trkpt lat="50.504255" lon="5.680213"><time>2026-05-02T16:47:55Z</time></trkpt>
<trkpt lat="50.505043" lon="5.680782"><time>2026-05-02T16:57:55Z</time></trkpt>
</trkseg>
</trk>
<trk>
<name>lstsp22</name>
<cmt>q</cmt>
<desc>Sprimont Chemin n°22 </desc>
<link href="https://chemins.be/sprimont/chemin/22"/><trkseg>
<trkpt lat="50.507402" lon="5.640867"><time>2026-05-02T16:47:55Z</time></trkpt>
<trkpt lat="50.507923" lon="5.638181"><time>2026-05-02T16:57:55Z</time></trkpt>
<trkpt lat="50.508480" lon="5.637427"><time>2026-05-02T17:07:55Z</time></trkpt>
</trkseg>
</trk>
<trk>
<name>lstsp220</name>
<cmt>q</cmt>
<desc>Sprimont Sentier n°220 </desc>
<link href="https://chemins.be/sprimont/sentier/220"/><trkseg>
<trkpt lat="50.485872" lon="5.648194"><time>2026-05-02T16:47:55Z</time></trkpt>
<trkpt lat="50.484320" lon="5.648730"><time>2026-05-02T16:57:55Z</time></trkpt>
</trkseg>
</trk>
<trk>
<name>lstsp221</name>
<cmt>r</cmt>
<desc>Sprimont Sentier n°221 Rue de l'Abèvrêye</desc>
<link href="https://chemins.be/sprimont/sentier/221"/><trkseg>
<trkpt lat="50.491768" lon="5.620621"><time>2026-05-02T16:47:55Z</time></trkpt>
<trkpt lat="50.493743" lon="5.622974"><time>2026-05-02T16:57:55Z</time></trkpt>
</trkseg>
</trk>
<trk>
<name>lstsp222</name>
<cmt>d</cmt>
<desc>Sprimont Sentier n°222 Rue de l'Escarlotte</desc>
<link href="https://chemins.be/sprimont/sentier/222"/><trkseg>
<trkpt lat="50.502496" lon="5.702757"><time>2026-05-02T16:47:55Z</time></trkpt>
<trkpt lat="50.502572" lon="5.700477"><time>2026-05-02T16:57:55Z</time></trkpt>
<trkpt lat="50.502217" lon="5.698589"><time>2026-05-02T17:07:55Z</time></trkpt>
</trkseg></trk>
<trk>
<name>lstsp222</name>
<cmt>s</cmt>
<desc>Sprimont Sentier n°222 Rue de l'Escarlotte</desc>
<link href="https://chemins.be/sprimont/sentier/222"/><trkseg>
<trkpt lat="50.502217" lon="5.698589"><time>2026-05-02T17:07:55Z</time></trkpt>
<trkpt lat="50.502165" lon="5.697173"><time>2026-05-02T17:17:55Z</time></trkpt>
</trkseg></trk>
<trk>
<name>lstsp222</name>
<cmt>d</cmt>
<desc>Sprimont Sentier n°222 Rue de l'Escarlotte</desc>
<link href="https://chemins.be/sprimont/sentier/222"/><trkseg>
<trkpt lat="50.502165" lon="5.697173"><time>2026-05-02T17:17:55Z</time></trkpt>
<trkpt lat="50.502015" lon="5.695462"><time>2026-05-02T17:27:55Z</time></trkpt>
<trkpt lat="50.502101" lon="5.694491"><time>2026-05-02T17:37:55Z</time></trkpt>
<trkpt lat="50.501590" lon="5.688579"><time>2026-05-02T17:47:55Z</time></trkpt>
<trkpt lat="50.501751" lon="5.688434"><time>2026-05-02T17:57:55Z</time></trkpt>
<trkpt lat="50.501554" lon="5.687879"><time>2026-05-02T18:07:55Z</time></trkpt>
<trkpt lat="50.501449" lon="5.687109"><time>2026-05-02T18:17:55Z</time></trkpt>
<trkpt lat="50.501391" lon="5.686852"><time>2026-05-02T18:27:55Z</time></trkpt>
</trkseg></trk>
<trk>
<name>lstsp222</name>
<cmt>q</cmt>
<desc>Sprimont Sentier n°222 Rue de l'Escarlotte</desc>
<link href="https://chemins.be/sprimont/sentier/222"/><trkseg>
<trkpt lat="50.501391" lon="5.686852"><time>2026-05-02T18:27:55Z</time></trkpt>
<trkpt lat="50.501003" lon="5.685768"><time>2026-05-02T18:37:55Z</time></trkpt>
<trkpt lat="50.501159" lon="5.684657"><time>2026-05-02T18:47:55Z</time></trkpt>
</trkseg></trk>
<trk>
<name>lstsp222</name>
<cmt>v</cmt>
<desc>Sprimont Sentier n°222 Rue de l'Escarlotte</desc>
<link href="https://chemins.be/sprimont/sentier/222"/><trkseg>
<trkpt lat="50.501159" lon="5.684657"><time>2026-05-02T18:47:55Z</time></trkpt>
<trkpt lat="50.500683" lon="5.683354"><time>2026-05-02T18:57:55Z</time></trkpt>
<trkpt lat="50.502165" lon="5.682315"><time>2026-05-02T19:07:55Z</time></trkpt>
<trkpt lat="50.502367" lon="5.681409"><time>2026-05-02T19:17:55Z</time></trkpt>
<trkpt lat="50.503459" lon="5.680871"><time>2026-05-02T19:27:55Z</time></trkpt>
<trkpt lat="50.504202" lon="5.680699"><time>2026-05-02T19:37:55Z</time></trkpt>
</trkseg>
</trk>
<trk>
<name>lstsp223</name>
<cmt>q</cmt>
<desc>Sprimont Sentier n°223 </desc>
<link href="https://chemins.be/sprimont/sentier/223"/><trkseg>
<trkpt lat="50.486781" lon="5.644450"><time>2026-05-02T16:47:55Z</time></trkpt>
<trkpt lat="50.485698" lon="5.645209"><time>2026-05-02T16:57:55Z</time></trkpt>
</trkseg>
</trk>
<trk>
<name>lstsp224</name>
<cmt>v</cmt>
<desc>Sprimont Sentier n°224 </desc>
<link href="https://chemins.be/sprimont/sentier/224"/><trkseg>
<trkpt lat="50.492793" lon="5.678821"><time>2026-05-02T16:47:55Z</time></trkpt>
<trkpt lat="50.493054" lon="5.680288"><time>2026-05-02T16:57:55Z</time></trkpt>
<trkpt lat="50.492972" lon="5.684619"><time>2026-05-02T17:07:55Z</time></trkpt>
<trkpt lat="50.493153" lon="5.685673"><time>2026-05-02T17:17:55Z</time></trkpt>
<trkpt lat="50.493585" lon="5.686430"><time>2026-05-02T17:27:55Z</time></trkpt>
<trkpt lat="50.494322" lon="5.687061"><time>2026-05-02T17:37:55Z</time></trkpt>
<trkpt lat="50.494878" lon="5.688083"><time>2026-05-02T17:47:55Z</time></trkpt>
<trkpt lat="50.497075" lon="5.692125"><time>2026-05-02T17:57:55Z</time></trkpt>
<trkpt lat="50.498006" lon="5.693363"><time>2026-05-02T18:07:55Z</time></trkpt>
</trkseg>
</trk>
<trk>
<name>lstsp225</name>
<cmt>q</cmt>
<desc>Sprimont Sentier n°225 </desc>
<link href="https://chemins.be/sprimont/sentier/225"/><trkseg>
<trkpt lat="50.486760" lon="5.665854"><time>2026-05-02T16:47:55Z</time></trkpt>
<trkpt lat="50.485995" lon="5.666998"><time>2026-05-02T16:57:55Z</time></trkpt>
<trkpt lat="50.484383" lon="5.668050"><time>2026-05-02T17:07:55Z</time></trkpt>
</trkseg>
</trk>
<trk>
<name>lstsp226</name>
<cmt>q</cmt>
<desc>Sprimont Sentier n°226 </desc>
<link href="https://chemins.be/sprimont/sentier/226"/><trkseg>
<trkpt lat="50.486781" lon="5.665938"><time>2026-05-02T16:47:55Z</time></trkpt>
<trkpt lat="50.486271" lon="5.665895"><time>2026-05-02T16:57:55Z</time></trkpt>
<trkpt lat="50.482541" lon="5.664466"><time>2026-05-02T17:07:55Z</time></trkpt>
<trkpt lat="50.480552" lon="5.661784"><time>2026-05-02T17:17:55Z</time></trkpt>
<trkpt lat="50.480224" lon="5.661591"><time>2026-05-02T17:27:55Z</time></trkpt>
<trkpt lat="50.479856" lon="5.660439"><time>2026-05-02T17:37:55Z</time></trkpt>
<trkpt lat="50.478768" lon="5.659838"><time>2026-05-02T17:47:55Z</time></trkpt>
<trkpt lat="50.477709" lon="5.659936"><time>2026-05-02T17:57:55Z</time></trkpt>
</trkseg>
</trk>
<trk>
<name>lstsp227</name>
<cmt>d</cmt>
<desc>Sprimont Chemin n°227 </desc>
<link href="https://chemins.be/sprimont/chemin/227"/><trkseg>
<trkpt lat="50.488001" lon="5.679542"><time>2026-05-02T16:47:55Z</time></trkpt>
<trkpt lat="50.489111" lon="5.678412"><time>2026-05-02T16:57:55Z</time></trkpt>
<trkpt lat="50.490121" lon="5.677696"><time>2026-05-02T17:07:55Z</time></trkpt>
</trkseg>
</trk>
<trk>
<name>lstsp228</name>
<cmt>q</cmt>
<desc>Sprimont Sentier n°228 </desc>
<link href="https://chemins.be/sprimont/sentier/228"/><trkseg>
<trkpt lat="50.500473" lon="5.664508"><time>2026-05-02T16:47:55Z</time></trkpt>
<trkpt lat="50.500321" lon="5.664237"><time>2026-05-02T16:57:55Z</time></trkpt>
<trkpt lat="50.499818" lon="5.663773"><time>2026-05-02T17:07:55Z</time></trkpt>
</trkseg>
</trk>
<trk>
<name>lstsp229</name>
<cmt>q</cmt>
<desc>Sprimont Sentier n°229 </desc>
<link href="https://chemins.be/sprimont/sentier/229"/><trkseg>
<trkpt lat="50.517499" lon="5.669942"><time>2026-05-02T16:47:55Z</time></trkpt>
<trkpt lat="50.518533" lon="5.670593"><time>2026-05-02T16:57:55Z</time></trkpt>
<trkpt lat="50.519397" lon="5.670336"><time>2026-05-02T17:07:55Z</time></trkpt>
</trkseg>
</trk>
<trk>
<name>lstsp230</name>
<cmt>q</cmt>
<desc>Sprimont Sentier n°230 Voie du Moulin</desc>
<link href="https://chemins.be/sprimont/sentier/230"/><trkseg>
<trkpt lat="50.518389" lon="5.599783"><time>2026-05-02T16:47:55Z</time></trkpt>
<trkpt lat="50.517634" lon="5.600351"><time>2026-05-02T16:57:55Z</time></trkpt>
<trkpt lat="50.517468" lon="5.601070"><time>2026-05-02T17:07:55Z</time></trkpt>
<trkpt lat="50.517477" lon="5.602418"><time>2026-05-02T17:17:55Z</time></trkpt>
<trkpt lat="50.517240" lon="5.602826"><time>2026-05-02T17:27:55Z</time></trkpt>
<trkpt lat="50.515494" lon="5.602912"><time>2026-05-02T17:37:55Z</time></trkpt>
<trkpt lat="50.514223" lon="5.602998"><time>2026-05-02T17:47:55Z</time></trkpt>
<trkpt lat="50.513259" lon="5.602974"><time>2026-05-02T17:57:55Z</time></trkpt>
</trkseg></trk>
<trk>
<name>lstsp230</name>
<cmt>r</cmt>
<desc>Sprimont Sentier n°230 Voie du Moulin</desc>
<link href="https://chemins.be/sprimont/sentier/230"/><trkseg>
<trkpt lat="50.513259" lon="5.602974"><time>2026-05-02T17:57:55Z</time></trkpt>
<trkpt lat="50.512398" lon="5.602644"><time>2026-05-02T18:07:55Z</time></trkpt>
</trkseg></trk>
<trk>
<name>lstsp230</name>
<cmt>q</cmt>
<desc>Sprimont Sentier n°230 Voie du Moulin</desc>
<link href="https://chemins.be/sprimont/sentier/230"/><trkseg>
<trkpt lat="50.512398" lon="5.602644"><time>2026-05-02T18:07:55Z</time></trkpt>
<trkpt lat="50.510943" lon="5.602862"><time>2026-05-02T18:17:55Z</time></trkpt>
<trkpt lat="50.510447" lon="5.602314"><time>2026-05-02T18:27:55Z</time></trkpt>
<trkpt lat="50.510396" lon="5.602400"><time>2026-05-02T18:37:55Z</time></trkpt>
<trkpt lat="50.510316" lon="5.602118"><time>2026-05-02T18:47:55Z</time></trkpt>
<trkpt lat="50.510355" lon="5.601960"><time>2026-05-02T18:57:55Z</time></trkpt>
<trkpt lat="50.510291" lon="5.601584"><time>2026-05-02T19:07:55Z</time></trkpt>
<trkpt lat="50.510316" lon="5.600971"><time>2026-05-02T19:17:55Z</time></trkpt>
</trkseg>
</trk>
<trk>
<name>lstsp231</name>
<cmt>q</cmt>
<desc>Sprimont Sentier n°231 </desc>
<link href="https://chemins.be/sprimont/sentier/231"/><trkseg>
<trkpt lat="50.511005" lon="5.599989"><time>2026-05-02T16:47:55Z</time></trkpt>
<trkpt lat="50.511105" lon="5.597851"><time>2026-05-02T16:57:55Z</time></trkpt>
<trkpt lat="50.510946" lon="5.596234"><time>2026-05-02T17:07:55Z</time></trkpt>
<trkpt lat="50.511273" lon="5.594732"><time>2026-05-02T17:17:55Z</time></trkpt>
<trkpt lat="50.511646" lon="5.593988"><time>2026-05-02T17:27:55Z</time></trkpt>
<trkpt lat="50.511860" lon="5.592379"><time>2026-05-02T17:37:55Z</time></trkpt>
</trkseg>
</trk>
<trk>
<name>lstsp232</name>
<cmt>r</cmt>
<desc>Sprimont Sentier n°232 </desc>
<link href="https://chemins.be/sprimont/sentier/232"/><trkseg>
<trkpt lat="50.510640" lon="5.600428"><time>2026-05-02T16:47:55Z</time></trkpt>
<trkpt lat="50.511784" lon="5.599237"><time>2026-05-02T16:57:55Z</time></trkpt>
<trkpt lat="50.512543" lon="5.595227"><time>2026-05-02T17:07:55Z</time></trkpt>
<trkpt lat="50.512759" lon="5.594547"><time>2026-05-02T17:17:55Z</time></trkpt>
<trkpt lat="50.513007" lon="5.594318"><time>2026-05-02T17:27:55Z</time></trkpt>
<trkpt lat="50.513523" lon="5.594125"><time>2026-05-02T17:37:55Z</time></trkpt>
</trkseg></trk>
<trk>
<name>lstsp232</name>
<cmt>b</cmt>
<desc>Sprimont Sentier n°232 </desc>
<link href="https://chemins.be/sprimont/sentier/232"/><trkseg>
<trkpt lat="50.513523" lon="5.594125"><time>2026-05-02T17:37:55Z</time></trkpt>
<trkpt lat="50.513442" lon="5.593595"><time>2026-05-02T17:47:55Z</time></trkpt>
<trkpt lat="50.514341" lon="5.593267"><time>2026-05-02T17:57:55Z</time></trkpt>
</trkseg>
</trk>
<trk>
<name>lstsp233</name>
<cmt>r</cmt>
<desc>Sprimont Sentier n°233 Rue des Vieux Moulins</desc>
<link href="https://chemins.be/sprimont/sentier/233"/><trkseg>
<trkpt lat="50.519661" lon="5.600072"><time>2026-05-02T16:47:55Z</time></trkpt>
<trkpt lat="50.519542" lon="5.599522"><time>2026-05-02T16:57:55Z</time></trkpt>
<trkpt lat="50.518096" lon="5.596445"><time>2026-05-02T17:07:55Z</time></trkpt>
<trkpt lat="50.517232" lon="5.595945"><time>2026-05-02T17:17:55Z</time></trkpt>
<trkpt lat="50.515986" lon="5.593448"><time>2026-05-02T17:27:55Z</time></trkpt>
<trkpt lat="50.515390" lon="5.590687"><time>2026-05-02T17:37:55Z</time></trkpt>
</trkseg>
</trk>
<trk>
<name>lstsp234</name>
<cmt>q</cmt>
<desc>Sprimont Sentier n°234 </desc>
<link href="https://chemins.be/sprimont/sentier/234"/><trkseg>
<trkpt lat="50.511469" lon="5.608681"><time>2026-05-02T16:47:55Z</time></trkpt>
<trkpt lat="50.511489" lon="5.608242"><time>2026-05-02T16:57:55Z</time></trkpt>
<trkpt lat="50.510479" lon="5.605581"><time>2026-05-02T17:07:55Z</time></trkpt>
<trkpt lat="50.510363" lon="5.602394"><time>2026-05-02T17:17:55Z</time></trkpt>
</trkseg>
</trk>
<trk>
<name>lstsp235</name>
<cmt>q</cmt>
<desc>Sprimont Sentier n°235 </desc>
<link href="https://chemins.be/sprimont/sentier/235"/><trkseg>
<trkpt lat="50.538148" lon="5.605699"><time>2026-05-02T16:47:55Z</time></trkpt>
<trkpt lat="50.538475" lon="5.606959"><time>2026-05-02T16:57:55Z</time></trkpt>
</trkseg>
</trk>
<trk>
<name>lstsp236</name>
<cmt>q</cmt>
<desc>Sprimont Sentier n°236 </desc>
<link href="https://chemins.be/sprimont/sentier/236"/><trkseg>
<trkpt lat="50.538559" lon="5.608480"><time>2026-05-02T16:47:55Z</time></trkpt>
<trkpt lat="50.539124" lon="5.609265"><time>2026-05-02T16:57:55Z</time></trkpt>
<trkpt lat="50.539623" lon="5.610767"><time>2026-05-02T17:07:55Z</time></trkpt>
</trkseg>
</trk>
<trk>
<name>lstsp237</name>
<cmt>r</cmt>
<desc>Sprimont Sentier n°237 </desc>
<link href="https://chemins.be/sprimont/sentier/237"/><trkseg>
<trkpt lat="50.545248" lon="5.615045"><time>2026-05-02T16:47:55Z</time></trkpt>
<trkpt lat="50.545164" lon="5.614921"><time>2026-05-02T16:57:55Z</time></trkpt>
<trkpt lat="50.545025" lon="5.612923"><time>2026-05-02T17:07:55Z</time></trkpt>
<trkpt lat="50.545154" lon="5.611756"><time>2026-05-02T17:17:55Z</time></trkpt>
</trkseg></trk>
<trk>
<name>lstsp237</name>
<cmt>v</cmt>
<desc>Sprimont Sentier n°237 </desc>
<link href="https://chemins.be/sprimont/sentier/237"/><trkseg>
<trkpt lat="50.545154" lon="5.611756"><time>2026-05-02T17:17:55Z</time></trkpt>
<trkpt lat="50.545190" lon="5.611083"><time>2026-05-02T17:27:55Z</time></trkpt>
</trkseg></trk>
<trk>
<name>lstsp237</name>
<cmt>q</cmt>
<desc>Sprimont Sentier n°237 </desc>
<link href="https://chemins.be/sprimont/sentier/237"/><trkseg>
<trkpt lat="50.545190" lon="5.611083"><time>2026-05-02T17:27:55Z</time></trkpt>
<trkpt lat="50.545277" lon="5.608676"><time>2026-05-02T17:37:55Z</time></trkpt>
<trkpt lat="50.545188" lon="5.604942"><time>2026-05-02T17:47:55Z</time></trkpt>
<trkpt lat="50.545420" lon="5.603870"><time>2026-05-02T17:57:55Z</time></trkpt>
<trkpt lat="50.546259" lon="5.602550"><time>2026-05-02T18:07:55Z</time></trkpt>
</trkseg>
</trk>
<trk>
<name>lstsp238</name>
<cmt>v</cmt>
<desc>Sprimont Sentier n°238 </desc>
<link href="https://chemins.be/sprimont/sentier/238"/><trkseg>
<trkpt lat="50.547718" lon="5.614754"><time>2026-05-02T16:47:55Z</time></trkpt>
<trkpt lat="50.548304" lon="5.612844"><time>2026-05-02T16:57:55Z</time></trkpt>
<trkpt lat="50.548141" lon="5.610720"><time>2026-05-02T17:07:55Z</time></trkpt>
<trkpt lat="50.547716" lon="5.609241"><time>2026-05-02T17:17:55Z</time></trkpt>
<trkpt lat="50.547363" lon="5.608016"><time>2026-05-02T17:27:55Z</time></trkpt>
</trkseg></trk>
<trk>
<name>lstsp238</name>
<cmt>q</cmt>
<desc>Sprimont Sentier n°238 </desc>
<link href="https://chemins.be/sprimont/sentier/238"/><trkseg>
<trkpt lat="50.547363" lon="5.608016"><time>2026-05-02T17:27:55Z</time></trkpt>
<trkpt lat="50.547336" lon="5.606107"><time>2026-05-02T17:37:55Z</time></trkpt>
<trkpt lat="50.546709" lon="5.603596"><time>2026-05-02T17:47:55Z</time></trkpt>
<trkpt lat="50.546259" lon="5.603017"><time>2026-05-02T17:57:55Z</time></trkpt>
<trkpt lat="50.546259" lon="5.602480"><time>2026-05-02T18:07:55Z</time></trkpt>
</trkseg>
</trk>
<trk>
<name>lstsp239</name>
<cmt>v</cmt>
<desc>Sprimont Sentier n°239 </desc>
<link href="https://chemins.be/sprimont/sentier/239"/><trkseg>
<trkpt lat="50.544414" lon="5.595085"><time>2026-05-02T16:47:55Z</time></trkpt>
<trkpt lat="50.545549" lon="5.593017"><time>2026-05-02T16:57:55Z</time></trkpt>
<trkpt lat="50.546094" lon="5.591775"><time>2026-05-02T17:07:55Z</time></trkpt>
</trkseg>
</trk>
<trk>
<name>lstsp24</name>
<cmt>v</cmt>
<desc>Sprimont Chemin n°24 Hautgné</desc>
<link href="https://chemins.be/sprimont/chemin/24"/><trkseg>
<trkpt lat="50.537895" lon="5.623934"><time>2026-05-02T16:47:55Z</time></trkpt>
<trkpt lat="50.538065" lon="5.624038"><time>2026-05-02T16:57:55Z</time></trkpt>
<trkpt lat="50.539044" lon="5.623358"><time>2026-05-02T17:07:55Z</time></trkpt>
<trkpt lat="50.539274" lon="5.622038"><time>2026-05-02T17:17:55Z</time></trkpt>
<trkpt lat="50.539064" lon="5.618957"><time>2026-05-02T17:27:55Z</time></trkpt>
<trkpt lat="50.538907" lon="5.618501"><time>2026-05-02T17:37:55Z</time></trkpt>
<trkpt lat="50.539042" lon="5.615147"><time>2026-05-02T17:47:55Z</time></trkpt>
<trkpt lat="50.539269" lon="5.614066"><time>2026-05-02T17:57:55Z</time></trkpt>
<trkpt lat="50.539489" lon="5.613705"><time>2026-05-02T18:07:55Z</time></trkpt>
</trkseg></trk>
<trk>
<name>lstsp24</name>
<cmt>d</cmt>
<desc>Sprimont Chemin n°24 Hautgné</desc>
<link href="https://chemins.be/sprimont/chemin/24"/><trkseg>
<trkpt lat="50.539489" lon="5.613705"><time>2026-05-02T18:07:55Z</time></trkpt>
<trkpt lat="50.539797" lon="5.612641"><time>2026-05-02T18:17:55Z</time></trkpt>
</trkseg></trk>
<trk>
<name>lstsp24</name>
<cmt>v</cmt>
<desc>Sprimont Chemin n°24 Hautgné</desc>
<link href="https://chemins.be/sprimont/chemin/24"/><trkseg>
<trkpt lat="50.539797" lon="5.612641"><time>2026-05-02T18:17:55Z</time></trkpt>
<trkpt lat="50.539835" lon="5.611640"><time>2026-05-02T18:27:55Z</time></trkpt>
<trkpt lat="50.539600" lon="5.610844"><time>2026-05-02T18:37:55Z</time></trkpt>
</trkseg></trk>
<trk>
<name>lstsp24</name>
<cmt>q</cmt>
<desc>Sprimont Chemin n°24 Hautgné</desc>
<link href="https://chemins.be/sprimont/chemin/24"/><trkseg>
<trkpt lat="50.539600" lon="5.610844"><time>2026-05-02T18:37:55Z</time></trkpt>
<trkpt lat="50.540007" lon="5.609839"><time>2026-05-02T18:47:55Z</time></trkpt>
<trkpt lat="50.539970" lon="5.609062"><time>2026-05-02T18:57:55Z</time></trkpt>
<trkpt lat="50.539408" lon="5.606987"><time>2026-05-02T19:07:55Z</time></trkpt>
</trkseg></trk>
<trk>
<name>lstsp24</name>
<cmt>r</cmt>
<desc>Sprimont Chemin n°24 Hautgné</desc>
<link href="https://chemins.be/sprimont/chemin/24"/><trkseg>
<trkpt lat="50.539408" lon="5.606987"><time>2026-05-02T19:07:55Z</time></trkpt>
<trkpt lat="50.538786" lon="5.606267"><time>2026-05-02T19:17:55Z</time></trkpt>
</trkseg></trk>
<trk>
<name>lstsp24</name>
<cmt>v</cmt>
<desc>Sprimont Chemin n°24 Hautgné</desc>
<link href="https://chemins.be/sprimont/chemin/24"/><trkseg>
<trkpt lat="50.538786" lon="5.606267"><time>2026-05-02T19:17:55Z</time></trkpt>
<trkpt lat="50.538492" lon="5.606949"><time>2026-05-02T19:27:55Z</time></trkpt>
<trkpt lat="50.538281" lon="5.607587"><time>2026-05-02T19:37:55Z</time></trkpt>
</trkseg>
</trk>
<trk>
<name>lstsp240</name>
<cmt>v</cmt>
<desc>Sprimont Sentier n°240 </desc>
<link href="https://chemins.be/sprimont/sentier/240"/><trkseg>
<trkpt lat="50.539241" lon="5.606545"><time>2026-05-02T16:47:55Z</time></trkpt>
<trkpt lat="50.539857" lon="5.606166"><time>2026-05-02T16:57:55Z</time></trkpt>
<trkpt lat="50.540380" lon="5.605207"><time>2026-05-02T17:07:55Z</time></trkpt>
<trkpt lat="50.540473" lon="5.604038"><time>2026-05-02T17:17:55Z</time></trkpt>
</trkseg>
</trk>
<trk>
<name>lstsp241</name>
<cmt>q</cmt>
<desc>Sprimont Sentier n°241 </desc>
<link href="https://chemins.be/sprimont/sentier/241"/><trkseg>
<trkpt lat="50.539084" lon="5.604742"><time>2026-05-02T16:47:55Z</time></trkpt>
<trkpt lat="50.539098" lon="5.603505"><time>2026-05-02T16:57:55Z</time></trkpt>
<trkpt lat="50.539357" lon="5.600679"><time>2026-05-02T17:07:55Z</time></trkpt>
</trkseg>
</trk>
<trk>
<name>lstsp242</name>
<cmt>q</cmt>
<desc>Sprimont Sentier n°242 </desc>
<link href="https://chemins.be/sprimont/sentier/242"/><trkseg>
<trkpt lat="50.545846" lon="5.614612"><time>2026-05-02T16:47:55Z</time></trkpt>
<trkpt lat="50.545979" lon="5.614794"><time>2026-05-02T16:57:55Z</time></trkpt>
<trkpt lat="50.546515" lon="5.616475"><time>2026-05-02T17:07:55Z</time></trkpt>
<trkpt lat="50.546840" lon="5.617044"><time>2026-05-02T17:17:55Z</time></trkpt>
<trkpt lat="50.549046" lon="5.619711"><time>2026-05-02T17:27:55Z</time></trkpt>
<trkpt lat="50.551511" lon="5.621809"><time>2026-05-02T17:37:55Z</time></trkpt>
<trkpt lat="50.551884" lon="5.622358"><time>2026-05-02T17:47:55Z</time></trkpt>
</trkseg>
</trk>
<trk>
<name>lstsp243</name>
<cmt>q</cmt>
<desc>Sprimont Sentier n°243 </desc>
<link href="https://chemins.be/sprimont/sentier/243"/><trkseg>
<trkpt lat="50.545478" lon="5.615581"><time>2026-05-02T16:47:55Z</time></trkpt>
<trkpt lat="50.545979" lon="5.616376"><time>2026-05-02T16:57:55Z</time></trkpt>
<trkpt lat="50.546194" lon="5.616356"><time>2026-05-02T17:07:55Z</time></trkpt>
<trkpt lat="50.546363" lon="5.616026"><time>2026-05-02T17:17:55Z</time></trkpt>
<trkpt lat="50.546406" lon="5.616153"><time>2026-05-02T17:27:55Z</time></trkpt>
<trkpt lat="50.546772" lon="5.616416"><time>2026-05-02T17:37:55Z</time></trkpt>
</trkseg>
</trk>
<trk>
<name>lstsp245</name>
<cmt>q</cmt>
<desc>Sprimont Sentier n°245 </desc>
<link href="https://chemins.be/sprimont/sentier/245"/><trkseg>
<trkpt lat="50.547011" lon="5.621165"><time>2026-05-02T16:47:55Z</time></trkpt>
<trkpt lat="50.549097" lon="5.619798"><time>2026-05-02T16:57:55Z</time></trkpt>
</trkseg>
</trk>
<trk>
<name>lstsp246</name>
<cmt>r</cmt>
<desc>Sprimont Sentier n°246 Rue de Méry</desc>
<link href="https://chemins.be/sprimont/sentier/246"/><trkseg>
<trkpt lat="50.537592" lon="5.624523"><time>2026-05-02T16:47:55Z</time></trkpt>
<trkpt lat="50.537906" lon="5.624430"><time>2026-05-02T16:57:55Z</time></trkpt>
<trkpt lat="50.538057" lon="5.624540"><time>2026-05-02T17:07:55Z</time></trkpt>
</trkseg></trk>
<trk>
<name>lstsp246</name>
<cmt>b</cmt>
<desc>Sprimont Sentier n°246 Rue de Méry</desc>
<link href="https://chemins.be/sprimont/sentier/246"/><trkseg>
<trkpt lat="50.538057" lon="5.624540"><time>2026-05-02T17:07:55Z</time></trkpt>
<trkpt lat="50.538298" lon="5.624497"><time>2026-05-02T17:17:55Z</time></trkpt>
<trkpt lat="50.538468" lon="5.624793"><time>2026-05-02T17:27:55Z</time></trkpt>
<trkpt lat="50.540633" lon="5.626261"><time>2026-05-02T17:37:55Z</time></trkpt>
<trkpt lat="50.541613" lon="5.624717"><time>2026-05-02T17:47:55Z</time></trkpt>
<trkpt lat="50.542540" lon="5.624303"><time>2026-05-02T17:57:55Z</time></trkpt>
</trkseg></trk>
<trk>
<name>lstsp246</name>
<cmt>r</cmt>
<desc>Sprimont Sentier n°246 Rue de Méry</desc>
<link href="https://chemins.be/sprimont/sentier/246"/><trkseg>
<trkpt lat="50.542540" lon="5.624303"><time>2026-05-02T17:57:55Z</time></trkpt>
<trkpt lat="50.542652" lon="5.623671"><time>2026-05-02T18:07:55Z</time></trkpt>
</trkseg></trk>
<trk>
<name>lstsp246</name>
<cmt>d</cmt>
<desc>Sprimont Sentier n°246 Rue de Méry</desc>
<link href="https://chemins.be/sprimont/sentier/246"/><trkseg>
<trkpt lat="50.542652" lon="5.623671"><time>2026-05-02T18:07:55Z</time></trkpt>
<trkpt lat="50.543461" lon="5.623328"><time>2026-05-02T18:17:55Z</time></trkpt>
<trkpt lat="50.544106" lon="5.623414"><time>2026-05-02T18:27:55Z</time></trkpt>
<trkpt lat="50.544771" lon="5.624003"><time>2026-05-02T18:37:55Z</time></trkpt>
</trkseg></trk>
<trk>
<name>lstsp246</name>
<cmt>v</cmt>
<desc>Sprimont Sentier n°246 Rue de Méry</desc>
<link href="https://chemins.be/sprimont/sentier/246"/><trkseg>
<trkpt lat="50.544771" lon="5.624003"><time>2026-05-02T18:37:55Z</time></trkpt>
<trkpt lat="50.545725" lon="5.623536"><time>2026-05-02T18:47:55Z</time></trkpt>
</trkseg></trk>
<trk>
<name>lstsp246</name>
<cmt>q</cmt>
<desc>Sprimont Sentier n°246 Rue de Méry</desc>
<link href="https://chemins.be/sprimont/sentier/246"/><trkseg>
<trkpt lat="50.545725" lon="5.623536"><time>2026-05-02T18:47:55Z</time></trkpt>
<trkpt lat="50.547599" lon="5.622779"><time>2026-05-02T18:57:55Z</time></trkpt>
<trkpt lat="50.550801" lon="5.622366"><time>2026-05-02T19:07:55Z</time></trkpt>
<trkpt lat="50.551760" lon="5.622842"><time>2026-05-02T19:17:55Z</time></trkpt>
</trkseg>
</trk>
<trk>
<name>lstsp247</name>
<cmt>r</cmt>
<desc>Sprimont Sentier n°247 Route de Hayen</desc>
<link href="https://chemins.be/sprimont/sentier/247"/><trkseg>
<trkpt lat="50.545156" lon="5.616447"><time>2026-05-02T16:47:55Z</time></trkpt>
<trkpt lat="50.543979" lon="5.620667"><time>2026-05-02T16:57:55Z</time></trkpt>
<trkpt lat="50.543683" lon="5.621647"><time>2026-05-02T17:07:55Z</time></trkpt>
<trkpt lat="50.542820" lon="5.622413"><time>2026-05-02T17:17:55Z</time></trkpt>
</trkseg>
</trk>
<trk>
<name>lstsp248</name>
<cmt>v</cmt>
<desc>Sprimont Sentier n°248 </desc>
<link href="https://chemins.be/sprimont/sentier/248"/><trkseg>
<trkpt lat="50.544856" lon="5.615413"><time>2026-05-02T16:47:55Z</time></trkpt>
<trkpt lat="50.543352" lon="5.616474"><time>2026-05-02T16:57:55Z</time></trkpt>
<trkpt lat="50.542322" lon="5.616764"><time>2026-05-02T17:07:55Z</time></trkpt>
<trkpt lat="50.541947" lon="5.617735"><time>2026-05-02T17:17:55Z</time></trkpt>
</trkseg></trk>
<trk>
<name>lstsp248</name>
<cmt>d</cmt>
<desc>Sprimont Sentier n°248 </desc>
<link href="https://chemins.be/sprimont/sentier/248"/><trkseg>
<trkpt lat="50.541947" lon="5.617735"><time>2026-05-02T17:17:55Z</time></trkpt>
<trkpt lat="50.541386" lon="5.618681"><time>2026-05-02T17:27:55Z</time></trkpt>
<trkpt lat="50.541177" lon="5.619796"><time>2026-05-02T17:37:55Z</time></trkpt>
<trkpt lat="50.540240" lon="5.621113"><time>2026-05-02T17:47:55Z</time></trkpt>
<trkpt lat="50.540106" lon="5.621948"><time>2026-05-02T17:57:55Z</time></trkpt>
<trkpt lat="50.539652" lon="5.622620"><time>2026-05-02T18:07:55Z</time></trkpt>
<trkpt lat="50.539113" lon="5.623029"><time>2026-05-02T18:17:55Z</time></trkpt>
</trkseg>
</trk>
<trk>
<name>lstsp249</name>
<cmt>q</cmt>
<desc>Sprimont Sentier n°249 </desc>
<link href="https://chemins.be/sprimont/sentier/249"/><trkseg>
<trkpt lat="50.542255" lon="5.612744"><time>2026-05-02T16:47:55Z</time></trkpt>
<trkpt lat="50.543148" lon="5.613854"><time>2026-05-02T16:57:55Z</time></trkpt>
<trkpt lat="50.544693" lon="5.614863"><time>2026-05-02T17:07:55Z</time></trkpt>
</trkseg>
</trk>
<trk>
<name>lstsp250</name>
<cmt>q</cmt>
<desc>Sprimont Sentier n°250 </desc>
<link href="https://chemins.be/sprimont/sentier/250"/><trkseg>
<trkpt lat="50.544694" lon="5.614902"><time>2026-05-02T16:47:55Z</time></trkpt>
<trkpt lat="50.544194" lon="5.615355"><time>2026-05-02T16:57:55Z</time></trkpt>
</trkseg>
</trk>
<trk>
<name>lstsp251</name>
<cmt>d</cmt>
<desc>Sprimont Sentier n°251 </desc>
<link href="https://chemins.be/sprimont/sentier/251"/><trkseg>
<trkpt lat="50.538315" lon="5.628991"><time>2026-05-02T16:47:55Z</time></trkpt>
<trkpt lat="50.539583" lon="5.629292"><time>2026-05-02T16:57:55Z</time></trkpt>
<trkpt lat="50.541220" lon="5.631051"><time>2026-05-02T17:07:55Z</time></trkpt>
</trkseg></trk>
<trk>
<name>lstsp251</name>
<cmt>v</cmt>
<desc>Sprimont Sentier n°251 </desc>
<link href="https://chemins.be/sprimont/sentier/251"/><trkseg>
<trkpt lat="50.541220" lon="5.631051"><time>2026-05-02T17:07:55Z</time></trkpt>
<trkpt lat="50.542007" lon="5.631169"><time>2026-05-02T17:17:55Z</time></trkpt>
</trkseg></trk>
<trk>
<name>lstsp251</name>
<cmt>d</cmt>
<desc>Sprimont Sentier n°251 </desc>
<link href="https://chemins.be/sprimont/sentier/251"/><trkseg>
<trkpt lat="50.542007" lon="5.631169"><time>2026-05-02T17:17:55Z</time></trkpt>
<trkpt lat="50.542474" lon="5.632253"><time>2026-05-02T17:27:55Z</time></trkpt>
<trkpt lat="50.543293" lon="5.633047"><time>2026-05-02T17:37:55Z</time></trkpt>
<trkpt lat="50.543899" lon="5.633544"><time>2026-05-02T17:47:55Z</time></trkpt>
</trkseg></trk>
<trk>
<name>lstsp251</name>
<cmt>q</cmt>
<desc>Sprimont Sentier n°251 </desc>
<link href="https://chemins.be/sprimont/sentier/251"/><trkseg>
<trkpt lat="50.543899" lon="5.633544"><time>2026-05-02T17:47:55Z</time></trkpt>
<trkpt lat="50.544699" lon="5.634199"><time>2026-05-02T17:57:55Z</time></trkpt>
</trkseg></trk>
<trk>
<name>lstsp251</name>
<cmt>d</cmt>
<desc>Sprimont Sentier n°251 </desc>
<link href="https://chemins.be/sprimont/sentier/251"/><trkseg>
<trkpt lat="50.544699" lon="5.634199"><time>2026-05-02T17:57:55Z</time></trkpt>
<trkpt lat="50.545761" lon="5.635096"><time>2026-05-02T18:07:55Z</time></trkpt>
<trkpt lat="50.549351" lon="5.638715"><time>2026-05-02T18:17:55Z</time></trkpt>
<trkpt lat="50.549902" lon="5.639259"><time>2026-05-02T18:27:55Z</time></trkpt>
</trkseg></trk>
<trk>
<name>lstsp251</name>
<cmt>q</cmt>
<desc>Sprimont Sentier n°251 </desc>
<link href="https://chemins.be/sprimont/sentier/251"/><trkseg>
<trkpt lat="50.549902" lon="5.639259"><time>2026-05-02T18:27:55Z</time></trkpt>
<trkpt lat="50.551169" lon="5.640074"><time>2026-05-02T18:37:55Z</time></trkpt>
</trkseg>
</trk>
<trk>
<name>lstsp252</name>
<cmt>q</cmt>
<desc>Sprimont Sentier n°252 </desc>
<link href="https://chemins.be/sprimont/sentier/252"/><trkseg>
<trkpt lat="50.544842" lon="5.617592"><time>2026-05-02T16:47:55Z</time></trkpt>
<trkpt lat="50.544965" lon="5.618121"><time>2026-05-02T16:57:55Z</time></trkpt>
<trkpt lat="50.544847" lon="5.621819"><time>2026-05-02T17:07:55Z</time></trkpt>
<trkpt lat="50.544902" lon="5.623371"><time>2026-05-02T17:17:55Z</time></trkpt>
<trkpt lat="50.544752" lon="5.624050"><time>2026-05-02T17:27:55Z</time></trkpt>
</trkseg>
</trk>
<trk>
<name>lstsp253</name>
<cmt>r</cmt>
<desc>Sprimont Sentier n°253 Rue des Grevales</desc>
<link href="https://chemins.be/sprimont/sentier/253"/><trkseg>
<trkpt lat="50.536939" lon="5.624961"><time>2026-05-02T16:47:55Z</time></trkpt>
<trkpt lat="50.537062" lon="5.626006"><time>2026-05-02T16:57:55Z</time></trkpt>
<trkpt lat="50.537063" lon="5.626354"><time>2026-05-02T17:07:55Z</time></trkpt>
</trkseg></trk>
<trk>
<name>lstsp253</name>
<cmt>q</cmt>
<desc>Sprimont Sentier n°253 Rue des Grevales</desc>
<link href="https://chemins.be/sprimont/sentier/253"/><trkseg>
<trkpt lat="50.537063" lon="5.626354"><time>2026-05-02T17:07:55Z</time></trkpt>
<trkpt lat="50.537114" lon="5.627774"><time>2026-05-02T17:17:55Z</time></trkpt>
<trkpt lat="50.537146" lon="5.629517"><time>2026-05-02T17:27:55Z</time></trkpt>
<trkpt lat="50.537224" lon="5.629679"><time>2026-05-02T17:37:55Z</time></trkpt>
</trkseg>
</trk>
<trk>
<name>lstsp254</name>
<cmt>r</cmt>
<desc>Sprimont Sentier n°254 Rue de Rouvreux</desc>
<link href="https://chemins.be/sprimont/sentier/254"/><trkseg>
<trkpt lat="50.500119" lon="5.661019"><time>2026-05-02T16:47:55Z</time></trkpt>
<trkpt lat="50.500273" lon="5.662575"><time>2026-05-02T16:57:55Z</time></trkpt>
<trkpt lat="50.500078" lon="5.663600"><time>2026-05-02T17:07:55Z</time></trkpt>
<trkpt lat="50.499522" lon="5.663932"><time>2026-05-02T17:17:55Z</time></trkpt>
<trkpt lat="50.499580" lon="5.664538"><time>2026-05-02T17:27:55Z</time></trkpt>
<trkpt lat="50.500030" lon="5.664925"><time>2026-05-02T17:37:55Z</time></trkpt>
</trkseg>
</trk>
<trk>
<name>lstsp256</name>
<cmt>r</cmt>
<desc>Sprimont Sentier n°256 Rue de l'Abèvrêye</desc>
<link href="https://chemins.be/sprimont/sentier/256"/><trkseg>
<trkpt lat="50.494871" lon="5.623668"><time>2026-05-02T16:47:55Z</time></trkpt>
<trkpt lat="50.494207" lon="5.623603"><time>2026-05-02T16:57:55Z</time></trkpt>
<trkpt lat="50.493701" lon="5.622930"><time>2026-05-02T17:07:55Z</time></trkpt>
</trkseg></trk>
<trk>
<name>lstsp256</name>
<cmt>v</cmt>
<desc>Sprimont Sentier n°256 Rue de l'Abèvrêye</desc>
<link href="https://chemins.be/sprimont/sentier/256"/><trkseg>
<trkpt lat="50.493701" lon="5.622930"><time>2026-05-02T17:07:55Z</time></trkpt>
<trkpt lat="50.493210" lon="5.622731"><time>2026-05-02T17:17:55Z</time></trkpt>
<trkpt lat="50.492532" lon="5.622917"><time>2026-05-02T17:27:55Z</time></trkpt>
</trkseg>
</trk>
<trk>
<name>lstsp258</name>
<cmt>q</cmt>
<desc>Sprimont Sentier n°258 </desc>
<link href="https://chemins.be/sprimont/sentier/258"/><trkseg>
<trkpt lat="50.511448" lon="5.629276"><time>2026-05-02T16:47:55Z</time></trkpt>
<trkpt lat="50.511289" lon="5.629248"><time>2026-05-02T16:57:55Z</time></trkpt>
<trkpt lat="50.511237" lon="5.629119"><time>2026-05-02T17:07:55Z</time></trkpt>
<trkpt lat="50.510641" lon="5.628243"><time>2026-05-02T17:17:55Z</time></trkpt>
<trkpt lat="50.510072" lon="5.628118"><time>2026-05-02T17:27:55Z</time></trkpt>
<trkpt lat="50.509481" lon="5.625764"><time>2026-05-02T17:37:55Z</time></trkpt>
</trkseg></trk>
<trk>
<name>lstsp258</name>
<cmt>v</cmt>
<desc>Sprimont Sentier n°258 </desc>
<link href="https://chemins.be/sprimont/sentier/258"/><trkseg>
<trkpt lat="50.509481" lon="5.625764"><time>2026-05-02T17:37:55Z</time></trkpt>
<trkpt lat="50.508908" lon="5.625975"><time>2026-05-02T17:47:55Z</time></trkpt>
</trkseg></trk>
<trk>
<name>lstsp258</name>
<cmt>q</cmt>
<desc>Sprimont Sentier n°258 </desc>
<link href="https://chemins.be/sprimont/sentier/258"/><trkseg>
<trkpt lat="50.508908" lon="5.625975"><time>2026-05-02T17:47:55Z</time></trkpt>
<trkpt lat="50.508205" lon="5.626072"><time>2026-05-02T17:57:55Z</time></trkpt>
<trkpt lat="50.507960" lon="5.626315"><time>2026-05-02T18:07:55Z</time></trkpt>
</trkseg>
</trk>
<trk>
<name>lstsp259</name>
<cmt>r</cmt>
<desc>Sprimont Sentier n°259 Rue de Xhygnez</desc>
<link href="https://chemins.be/sprimont/sentier/259"/><trkseg>
<trkpt lat="50.508638" lon="5.636736"><time>2026-05-02T16:47:55Z</time></trkpt>
<trkpt lat="50.508292" lon="5.636407"><time>2026-05-02T16:57:55Z</time></trkpt>
<trkpt lat="50.507873" lon="5.635188"><time>2026-05-02T17:07:55Z</time></trkpt>
</trkseg></trk>
<trk>
<name>lstsp259</name>
<cmt>v</cmt>
<desc>Sprimont Sentier n°259 Rue de Xhygnez</desc>
<link href="https://chemins.be/sprimont/sentier/259"/><trkseg>
<trkpt lat="50.507873" lon="5.635188"><time>2026-05-02T17:07:55Z</time></trkpt>
<trkpt lat="50.507386" lon="5.634918"><time>2026-05-02T17:17:55Z</time></trkpt>
<trkpt lat="50.506723" lon="5.633782"><time>2026-05-02T17:27:55Z</time></trkpt>
<trkpt lat="50.506190" lon="5.631586"><time>2026-05-02T17:37:55Z</time></trkpt>
<trkpt lat="50.506095" lon="5.630699"><time>2026-05-02T17:47:55Z</time></trkpt>
</trkseg>
</trk>
<trk>
<name>lstsp26</name>
<cmt>q</cmt>
<desc>Sprimont Chemin n°26 Rue Hazaie / Tige de Hazé / Hautgné</desc>
<link href="https://chemins.be/sprimont/chemin/26"/><trkseg>
<trkpt lat="50.516033" lon="5.629113"><time>2026-05-02T16:47:55Z</time></trkpt>
<trkpt lat="50.518889" lon="5.628419"><time>2026-05-02T16:57:55Z</time></trkpt>
</trkseg></trk>
<trk>
<name>lstsp26</name>
<cmt>r</cmt>
<desc>Sprimont Chemin n°26 Rue Hazaie / Tige de Hazé / Hautgné</desc>
<link href="https://chemins.be/sprimont/chemin/26"/><trkseg>
<trkpt lat="50.518889" lon="5.628419"><time>2026-05-02T16:57:55Z</time></trkpt>
<trkpt lat="50.522882" lon="5.627020"><time>2026-05-02T17:07:55Z</time></trkpt>
</trkseg></trk>
<trk>
<name>lstsp26</name>
<cmt>v</cmt>
<desc>Sprimont Chemin n°26 Rue Hazaie / Tige de Hazé / Hautgné</desc>
<link href="https://chemins.be/sprimont/chemin/26"/><trkseg>
<trkpt lat="50.522882" lon="5.627020"><time>2026-05-02T17:07:55Z</time></trkpt>
<trkpt lat="50.525464" lon="5.626045"><time>2026-05-02T17:17:55Z</time></trkpt>
<trkpt lat="50.526654" lon="5.623283"><time>2026-05-02T17:27:55Z</time></trkpt>
<trkpt lat="50.526529" lon="5.622420"><time>2026-05-02T17:37:55Z</time></trkpt>
<trkpt lat="50.526930" lon="5.622221"><time>2026-05-02T17:47:55Z</time></trkpt>
<trkpt lat="50.527187" lon="5.622035"><time>2026-05-02T17:57:55Z</time></trkpt>
<trkpt lat="50.527029" lon="5.621009"><time>2026-05-02T18:07:55Z</time></trkpt>
<trkpt lat="50.527211" lon="5.619564"><time>2026-05-02T18:17:55Z</time></trkpt>
<trkpt lat="50.529012" lon="5.618324"><time>2026-05-02T18:27:55Z</time></trkpt>
<trkpt lat="50.529831" lon="5.618026"><time>2026-05-02T18:37:55Z</time></trkpt>
<trkpt lat="50.531590" lon="5.616653"><time>2026-05-02T18:47:55Z</time></trkpt>
<trkpt lat="50.537582" lon="5.612301"><time>2026-05-02T18:57:55Z</time></trkpt>
</trkseg></trk>
<trk>
<name>lstsp26</name>
<cmt>d</cmt>
<desc>Sprimont Chemin n°26 Rue Hazaie / Tige de Hazé / Hautgné</desc>
<link href="https://chemins.be/sprimont/chemin/26"/><trkseg>
<trkpt lat="50.537582" lon="5.612301"><time>2026-05-02T18:57:55Z</time></trkpt>
<trkpt lat="50.539585" lon="5.610884"><time>2026-05-02T19:07:55Z</time></trkpt>
</trkseg>
</trk>
<trk>
<name>lstsp261</name>
<cmt>q</cmt>
<desc>Sprimont Sentier n°261 </desc>
<link href="https://chemins.be/sprimont/sentier/261"/><trkseg>
<trkpt lat="50.538117" lon="5.609883"><time>2026-05-02T16:47:55Z</time></trkpt>
<trkpt lat="50.537951" lon="5.609179"><time>2026-05-02T16:57:55Z</time></trkpt>
<trkpt lat="50.538038" lon="5.608596"><time>2026-05-02T17:07:55Z</time></trkpt>
<trkpt lat="50.537924" lon="5.607952"><time>2026-05-02T17:17:55Z</time></trkpt>
</trkseg>
</trk>
<trk>
<name>lstsp262</name>
<cmt>q</cmt>
<desc>Sprimont Sentier n°262 </desc>
<link href="https://chemins.be/sprimont/sentier/262"/><trkseg>
<trkpt lat="50.519529" lon="5.603856"><time>2026-05-02T16:47:55Z</time></trkpt>
<trkpt lat="50.519857" lon="5.602883"><time>2026-05-02T16:57:55Z</time></trkpt>
</trkseg>
</trk>
<trk>
<name>lstsp263</name>
<cmt>q</cmt>
<desc>Sprimont Sentier n°263 </desc>
<link href="https://chemins.be/sprimont/sentier/263"/><trkseg>
<trkpt lat="50.524816" lon="5.606542"><time>2026-05-02T16:47:55Z</time></trkpt>
<trkpt lat="50.524736" lon="5.607071"><time>2026-05-02T16:57:55Z</time></trkpt>
<trkpt lat="50.524843" lon="5.607468"><time>2026-05-02T17:07:55Z</time></trkpt>
<trkpt lat="50.524038" lon="5.610107"><time>2026-05-02T17:17:55Z</time></trkpt>
</trkseg>
</trk>
<trk>
<name>lstsp264</name>
<cmt>r</cmt>
<desc>Sprimont Chemin n°264 Rue Salm</desc>
<link href="https://chemins.be/sprimont/chemin/264"/><trkseg>
<trkpt lat="50.514414" lon="5.629194"><time>2026-05-02T16:47:55Z</time></trkpt>
<trkpt lat="50.514812" lon="5.630957"><time>2026-05-02T16:57:55Z</time></trkpt>
<trkpt lat="50.515092" lon="5.632055"><time>2026-05-02T17:07:55Z</time></trkpt>
<trkpt lat="50.515026" lon="5.633689"><time>2026-05-02T17:17:55Z</time></trkpt>
</trkseg>
</trk>
<trk>
<name>lstsp265</name>
<cmt>q</cmt>
<desc>Sprimont Sentier n°265 </desc>
<link href="https://chemins.be/sprimont/sentier/265"/><trkseg>
<trkpt lat="50.514139" lon="5.631318"><time>2026-05-02T16:47:55Z</time></trkpt>
<trkpt lat="50.516226" lon="5.630278"><time>2026-05-02T16:57:55Z</time></trkpt>
</trkseg>
</trk>
<trk>
<name>lstsp266</name>
<cmt>q</cmt>
<desc>Sprimont Sentier n°266 </desc>
<link href="https://chemins.be/sprimont/sentier/266"/><trkseg>
<trkpt lat="50.509490" lon="5.625729"><time>2026-05-02T16:47:55Z</time></trkpt>
<trkpt lat="50.509545" lon="5.625382"><time>2026-05-02T16:57:55Z</time></trkpt>
<trkpt lat="50.509379" lon="5.624906"><time>2026-05-02T17:07:55Z</time></trkpt>
<trkpt lat="50.509477" lon="5.623333"><time>2026-05-02T17:17:55Z</time></trkpt>
</trkseg>
</trk>
<trk>
<name>lstsp268</name>
<cmt>d</cmt>
<desc>Sprimont Sentier n°268 </desc>
<link href="https://chemins.be/sprimont/sentier/268"/><trkseg>
<trkpt lat="50.517051" lon="5.669270"><time>2026-05-02T16:47:55Z</time></trkpt>
<trkpt lat="50.517012" lon="5.668687"><time>2026-05-02T16:57:55Z</time></trkpt>
<trkpt lat="50.517317" lon="5.668203"><time>2026-05-02T17:07:55Z</time></trkpt>
</trkseg></trk>
<trk>
<name>lstsp268</name>
<cmt>q</cmt>
<desc>Sprimont Sentier n°268 </desc>
<link href="https://chemins.be/sprimont/sentier/268"/><trkseg>
<trkpt lat="50.517317" lon="5.668203"><time>2026-05-02T17:07:55Z</time></trkpt>
<trkpt lat="50.517540" lon="5.667879"><time>2026-05-02T17:17:55Z</time></trkpt>
<trkpt lat="50.518363" lon="5.667635"><time>2026-05-02T17:27:55Z</time></trkpt>
<trkpt lat="50.518531" lon="5.667750"><time>2026-05-02T17:37:55Z</time></trkpt>
</trkseg>
</trk>
<trk>
<name>lstsp269</name>
<cmt>r</cmt>
<desc>Sprimont Sentier n°269 Rue du Néronry</desc>
<link href="https://chemins.be/sprimont/sentier/269"/><trkseg>
<trkpt lat="50.517325" lon="5.668208"><time>2026-05-02T16:47:55Z</time></trkpt>
<trkpt lat="50.516852" lon="5.667693"><time>2026-05-02T16:57:55Z</time></trkpt>
<trkpt lat="50.515997" lon="5.665915"><time>2026-05-02T17:07:55Z</time></trkpt>
<trkpt lat="50.514202" lon="5.664288"><time>2026-05-02T17:17:55Z</time></trkpt>
</trkseg></trk>
<trk>
<name>lstsp269</name>
<cmt>q</cmt>
<desc>Sprimont Sentier n°269 Rue du Néronry</desc>
<link href="https://chemins.be/sprimont/sentier/269"/><trkseg>
<trkpt lat="50.514202" lon="5.664288"><time>2026-05-02T17:17:55Z</time></trkpt>
<trkpt lat="50.513998" lon="5.664166"><time>2026-05-02T17:27:55Z</time></trkpt>
<trkpt lat="50.512813" lon="5.661992"><time>2026-05-02T17:37:55Z</time></trkpt>
<trkpt lat="50.511844" lon="5.661320"><time>2026-05-02T17:47:55Z</time></trkpt>
<trkpt lat="50.511507" lon="5.660401"><time>2026-05-02T17:57:55Z</time></trkpt>
<trkpt lat="50.510798" lon="5.659803"><time>2026-05-02T18:07:55Z</time></trkpt>
<trkpt lat="50.509952" lon="5.659607"><time>2026-05-02T18:17:55Z</time></trkpt>
</trkseg>
</trk>
<trk>
<name>lstsp27</name>
<cmt>v</cmt>
<desc>Sprimont Chemin n°27 </desc>
<link href="https://chemins.be/sprimont/chemin/27"/><trkseg>
<trkpt lat="50.508474" lon="5.632966"><time>2026-05-02T16:47:55Z</time></trkpt>
<trkpt lat="50.507114" lon="5.631514"><time>2026-05-02T16:57:55Z</time></trkpt>
<trkpt lat="50.506104" lon="5.630677"><time>2026-05-02T17:07:55Z</time></trkpt>
<trkpt lat="50.505030" lon="5.629612"><time>2026-05-02T17:17:55Z</time></trkpt>
<trkpt lat="50.503934" lon="5.629590"><time>2026-05-02T17:27:55Z</time></trkpt>
<trkpt lat="50.502853" lon="5.628693"><time>2026-05-02T17:37:55Z</time></trkpt>
<trkpt lat="50.502016" lon="5.627427"><time>2026-05-02T17:47:55Z</time></trkpt>
<trkpt lat="50.501477" lon="5.627141"><time>2026-05-02T17:57:55Z</time></trkpt>
<trkpt lat="50.501031" lon="5.626197"><time>2026-05-02T18:07:55Z</time></trkpt>
<trkpt lat="50.500718" lon="5.625941"><time>2026-05-02T18:17:55Z</time></trkpt>
</trkseg></trk>
<trk>
<name>lstsp27</name>
<cmt>r</cmt>
<desc>Sprimont Chemin n°27 </desc>
<link href="https://chemins.be/sprimont/chemin/27"/><trkseg>
<trkpt lat="50.500718" lon="5.625941"><time>2026-05-02T18:17:55Z</time></trkpt>
<trkpt lat="50.500595" lon="5.625103"><time>2026-05-02T18:27:55Z</time></trkpt>
</trkseg></trk>
<trk>
<name>lstsp27</name>
<cmt>q</cmt>
<desc>Sprimont Chemin n°27 </desc>
<link href="https://chemins.be/sprimont/chemin/27"/><trkseg>
<trkpt lat="50.500595" lon="5.625103"><time>2026-05-02T18:27:55Z</time></trkpt>
<trkpt lat="50.499717" lon="5.625354"><time>2026-05-02T18:37:55Z</time></trkpt>
<trkpt lat="50.498835" lon="5.624639"><time>2026-05-02T18:47:55Z</time></trkpt>
<trkpt lat="50.497261" lon="5.624911"><time>2026-05-02T18:57:55Z</time></trkpt>
<trkpt lat="50.496169" lon="5.624768"><time>2026-05-02T19:07:55Z</time></trkpt>
</trkseg>
</trk>
<trk>
<name>lstsp270</name>
<cmt>q</cmt>
<desc>Sprimont Sentier n°270 </desc>
<link href="https://chemins.be/sprimont/sentier/270"/><trkseg>
<trkpt lat="50.512238" lon="5.659233"><time>2026-05-02T16:47:55Z</time></trkpt>
<trkpt lat="50.511972" lon="5.660481"><time>2026-05-02T16:57:55Z</time></trkpt>
<trkpt lat="50.511488" lon="5.661339"><time>2026-05-02T17:07:55Z</time></trkpt>
<trkpt lat="50.511256" lon="5.662738"><time>2026-05-02T17:17:55Z</time></trkpt>
<trkpt lat="50.510847" lon="5.663786"><time>2026-05-02T17:27:55Z</time></trkpt>
<trkpt lat="50.510626" lon="5.664136"><time>2026-05-02T17:37:55Z</time></trkpt>
<trkpt lat="50.509955" lon="5.665153"><time>2026-05-02T17:47:55Z</time></trkpt>
<trkpt lat="50.510023" lon="5.667592"><time>2026-05-02T17:57:55Z</time></trkpt>
<trkpt lat="50.509919" lon="5.668622"><time>2026-05-02T18:07:55Z</time></trkpt>
<trkpt lat="50.508554" lon="5.672448"><time>2026-05-02T18:17:55Z</time></trkpt>
</trkseg>
</trk>
<trk>
<name>lstsp271</name>
<cmt>q</cmt>
<desc>Sprimont Sentier n°271 </desc>
<link href="https://chemins.be/sprimont/sentier/271"/><trkseg>
<trkpt lat="50.510544" lon="5.601128"><time>2026-05-02T16:47:55Z</time></trkpt>
<trkpt lat="50.510328" lon="5.601617"><time>2026-05-02T16:57:55Z</time></trkpt>
</trkseg>
</trk>
<trk>
<name>lstsp272</name>
<cmt>v</cmt>
<desc>Sprimont Sentier n°272 </desc>
<link href="https://chemins.be/sprimont/sentier/272"/><trkseg>
<trkpt lat="50.503405" lon="5.599738"><time>2026-05-02T16:47:55Z</time></trkpt>
<trkpt lat="50.503388" lon="5.599824"><time>2026-05-02T16:57:55Z</time></trkpt>
<trkpt lat="50.503148" lon="5.599864"><time>2026-05-02T17:07:55Z</time></trkpt>
</trkseg>
</trk>
<trk>
<name>lstsp273</name>
<cmt>v</cmt>
<desc>Sprimont Sentier n°273 </desc>
<link href="https://chemins.be/sprimont/sentier/273"/><trkseg>
<trkpt lat="50.495565" lon="5.610338"><time>2026-05-02T16:47:55Z</time></trkpt>
<trkpt lat="50.495270" lon="5.610067"><time>2026-05-02T16:57:55Z</time></trkpt>
<trkpt lat="50.494955" lon="5.609857"><time>2026-05-02T17:07:55Z</time></trkpt>
<trkpt lat="50.494584" lon="5.609270"><time>2026-05-02T17:17:55Z</time></trkpt>
</trkseg>
</trk>
<trk>
<name>lstsp274</name>
<cmt>q</cmt>
<desc>Sprimont Sentier n°274 </desc>
<link href="https://chemins.be/sprimont/sentier/274"/><trkseg>
<trkpt lat="50.502937" lon="5.628883"><time>2026-05-02T16:47:55Z</time></trkpt>
<trkpt lat="50.502037" lon="5.628919"><time>2026-05-02T16:57:55Z</time></trkpt>
<trkpt lat="50.501113" lon="5.628676"><time>2026-05-02T17:07:55Z</time></trkpt>
<trkpt lat="50.500392" lon="5.628711"><time>2026-05-02T17:17:55Z</time></trkpt>
<trkpt lat="50.498465" lon="5.628261"><time>2026-05-02T17:27:55Z</time></trkpt>
<trkpt lat="50.496923" lon="5.627188"><time>2026-05-02T17:37:55Z</time></trkpt>
<trkpt lat="50.496677" lon="5.626723"><time>2026-05-02T17:47:55Z</time></trkpt>
</trkseg>
</trk>
<trk>
<name>lstsp275</name>
<cmt>q</cmt>
<desc>Sprimont Sentier n°275 Rue Golette</desc>
<link href="https://chemins.be/sprimont/sentier/275"/><trkseg>
<trkpt lat="50.504360" lon="5.649790"><time>2026-05-02T16:47:55Z</time></trkpt>
<trkpt lat="50.505468" lon="5.650319"><time>2026-05-02T16:57:55Z</time></trkpt>
</trkseg>
</trk>
<trk>
<name>lstsp276</name>
<cmt>q</cmt>
<desc>Sprimont Sentier n°276 </desc>
<link href="https://chemins.be/sprimont/sentier/276"/><trkseg>
<trkpt lat="50.505516" lon="5.679646"><time>2026-05-02T16:47:55Z</time></trkpt>
<trkpt lat="50.505422" lon="5.679378"><time>2026-05-02T16:57:55Z</time></trkpt>
<trkpt lat="50.504960" lon="5.679214"><time>2026-05-02T17:07:55Z</time></trkpt>
<trkpt lat="50.504547" lon="5.678737"><time>2026-05-02T17:17:55Z</time></trkpt>
</trkseg>
</trk>
<trk>
<name>lstsp277</name>
<cmt>q</cmt>
<desc>Sprimont Sentier n°277 </desc>
<link href="https://chemins.be/sprimont/sentier/277"/><trkseg>
<trkpt lat="50.505735" lon="5.680213"><time>2026-05-02T16:47:55Z</time></trkpt>
<trkpt lat="50.505476" lon="5.680165"><time>2026-05-02T16:57:55Z</time></trkpt>
<trkpt lat="50.505018" lon="5.681108"><time>2026-05-02T17:07:55Z</time></trkpt>
</trkseg>
</trk>
<trk>
<name>lstsp278</name>
<cmt>q</cmt>
<desc>Sprimont Sentier n°278 </desc>
<link href="https://chemins.be/sprimont/sentier/278"/><trkseg>
<trkpt lat="50.499563" lon="5.675091"><time>2026-05-02T16:47:55Z</time></trkpt>
<trkpt lat="50.499604" lon="5.680205"><time>2026-05-02T16:57:55Z</time></trkpt>
</trkseg>
</trk>
<trk>
<name>lstsp279</name>
<cmt>r</cmt>
<desc>Sprimont Chemin n°279 </desc>
<link href="https://chemins.be/sprimont/chemin/279"/><trkseg>
<trkpt lat="50.493012" lon="5.666032"><time>2026-05-02T16:47:55Z</time></trkpt>
<trkpt lat="50.493014" lon="5.667661"><time>2026-05-02T16:57:55Z</time></trkpt>
</trkseg></trk>
<trk>
<name>lstsp279</name>
<cmt>q</cmt>
<desc>Sprimont Chemin n°279 </desc>
<link href="https://chemins.be/sprimont/chemin/279"/><trkseg>
<trkpt lat="50.493014" lon="5.667661"><time>2026-05-02T16:57:55Z</time></trkpt>
<trkpt lat="50.493039" lon="5.669613"><time>2026-05-02T17:07:55Z</time></trkpt>
</trkseg>
</trk>
<trk>
<name>lstsp28</name>
<cmt>v</cmt>
<desc>Sprimont Chemin n°28 Rue de Presseux</desc>
<link href="https://chemins.be/sprimont/chemin/28"/><trkseg>
<trkpt lat="50.495640" lon="5.627795"><time>2026-05-02T16:47:55Z</time></trkpt>
<trkpt lat="50.495927" lon="5.628481"><time>2026-05-02T16:57:55Z</time></trkpt>
<trkpt lat="50.495963" lon="5.630363"><time>2026-05-02T17:07:55Z</time></trkpt>
<trkpt lat="50.495394" lon="5.632136"><time>2026-05-02T17:17:55Z</time></trkpt>
<trkpt lat="50.493331" lon="5.635134"><time>2026-05-02T17:27:55Z</time></trkpt>
</trkseg>
</trk>
<trk>
<name>lstsp280</name>
<cmt>q</cmt>
<desc>Sprimont Sentier n°280 </desc>
<link href="https://chemins.be/sprimont/sentier/280"/><trkseg>
<trkpt lat="50.489254" lon="5.667105"><time>2026-05-02T16:47:55Z</time></trkpt>
<trkpt lat="50.489549" lon="5.667621"><time>2026-05-02T16:57:55Z</time></trkpt>
<trkpt lat="50.489859" lon="5.668164"><time>2026-05-02T17:07:55Z</time></trkpt>
<trkpt lat="50.489572" lon="5.668630"><time>2026-05-02T17:17:55Z</time></trkpt>
</trkseg>
</trk>
<trk>
<name>lstsp282</name>
<cmt>q</cmt>
<desc>Sprimont Sentier n°282 </desc>
<link href="https://chemins.be/sprimont/sentier/282"/><trkseg>
<trkpt lat="50.545221" lon="5.616425"><time>2026-05-02T16:47:55Z</time></trkpt>
<trkpt lat="50.545507" lon="5.616534"><time>2026-05-02T16:57:55Z</time></trkpt>
<trkpt lat="50.545969" lon="5.616383"><time>2026-05-02T17:07:55Z</time></trkpt>
</trkseg>
</trk>
<trk>
<name>lstsp283</name>
<cmt>v</cmt>
<desc>Sprimont Sentier n°283 </desc>
<link href="https://chemins.be/sprimont/sentier/283"/><trkseg>
<trkpt lat="50.526550" lon="5.606212"><time>2026-05-02T16:47:55Z</time></trkpt>
<trkpt lat="50.526522" lon="5.606131"><time>2026-05-02T16:57:55Z</time></trkpt>
<trkpt lat="50.526335" lon="5.605825"><time>2026-05-02T17:07:55Z</time></trkpt>
<trkpt lat="50.526265" lon="5.605799"><time>2026-05-02T17:17:55Z</time></trkpt>
<trkpt lat="50.525981" lon="5.605190"><time>2026-05-02T17:27:55Z</time></trkpt>
</trkseg></trk>
<trk>
<name>lstsp283</name>
<cmt>q</cmt>
<desc>Sprimont Sentier n°283 </desc>
<link href="https://chemins.be/sprimont/sentier/283"/><trkseg>
<trkpt lat="50.525981" lon="5.605190"><time>2026-05-02T17:27:55Z</time></trkpt>
<trkpt lat="50.525390" lon="5.604006"><time>2026-05-02T17:37:55Z</time></trkpt>
</trkseg>
</trk>
<trk>
<name>lstsp284</name>
<cmt>q</cmt>
<desc>Sprimont Sentier n°284 </desc>
<link href="https://chemins.be/sprimont/sentier/284"/><trkseg>
<trkpt lat="50.483820" lon="5.651541"><time>2026-05-02T16:47:55Z</time></trkpt>
<trkpt lat="50.484584" lon="5.651527"><time>2026-05-02T16:57:55Z</time></trkpt>
<trkpt lat="50.485112" lon="5.651248"><time>2026-05-02T17:07:55Z</time></trkpt>
</trkseg>
</trk>
<trk>
<name>lstsp29</name>
<cmt>v</cmt>
<desc>Sprimont Chemin n°29 Rue de Fraiture</desc>
<link href="https://chemins.be/sprimont/chemin/29"/><trkseg>
<trkpt lat="50.492474" lon="5.634252"><time>2026-05-02T16:47:55Z</time></trkpt>
<trkpt lat="50.492292" lon="5.632220"><time>2026-05-02T16:57:55Z</time></trkpt>
<trkpt lat="50.492501" lon="5.629703"><time>2026-05-02T17:07:55Z</time></trkpt>
<trkpt lat="50.492337" lon="5.628244"><time>2026-05-02T17:17:55Z</time></trkpt>
</trkseg></trk>
<trk>
<name>lstsp29</name>
<cmt>r</cmt>
<desc>Sprimont Chemin n°29 Rue de Fraiture</desc>
<link href="https://chemins.be/sprimont/chemin/29"/><trkseg>
<trkpt lat="50.492337" lon="5.628244"><time>2026-05-02T17:17:55Z</time></trkpt>
<trkpt lat="50.492657" lon="5.624874"><time>2026-05-02T17:27:55Z</time></trkpt>
<trkpt lat="50.492511" lon="5.622971"><time>2026-05-02T17:37:55Z</time></trkpt>
<trkpt lat="50.491755" lon="5.620576"><time>2026-05-02T17:47:55Z</time></trkpt>
<trkpt lat="50.490837" lon="5.618771"><time>2026-05-02T17:57:55Z</time></trkpt>
</trkseg></trk>
<trk>
<name>lstsp29</name>
<cmt>v</cmt>
<desc>Sprimont Chemin n°29 Rue de Fraiture</desc>
<link href="https://chemins.be/sprimont/chemin/29"/><trkseg>
<trkpt lat="50.490837" lon="5.618771"><time>2026-05-02T17:57:55Z</time></trkpt>
<trkpt lat="50.490688" lon="5.618235"><time>2026-05-02T18:07:55Z</time></trkpt>
</trkseg>
</trk>
<trk>
<name>lstsp3</name>
<cmt>r</cmt>
<desc>Sprimont Chemin n°3 </desc>
<link href="https://chemins.be/sprimont/chemin/3"/><trkseg>
<trkpt lat="50.508983" lon="5.683324"><time>2026-05-02T16:47:55Z</time></trkpt>
<trkpt lat="50.509433" lon="5.685089"><time>2026-05-02T16:57:55Z</time></trkpt>
</trkseg></trk>
<trk>
<name>lstsp3</name>
<cmt>s</cmt>
<desc>Sprimont Chemin n°3 </desc>
<link href="https://chemins.be/sprimont/chemin/3"/><trkseg>
<trkpt lat="50.509433" lon="5.685089"><time>2026-05-02T16:57:55Z</time></trkpt>
<trkpt lat="50.510133" lon="5.687182"><time>2026-05-02T17:07:55Z</time></trkpt>
</trkseg>
</trk>
<trk>
<name>lstsp31</name>
<cmt>v</cmt>
<desc>Sprimont Chemin n°31 Rue Nicolas Evrard</desc>
<link href="https://chemins.be/sprimont/chemin/31"/><trkseg>
<trkpt lat="50.516446" lon="5.639329"><time>2026-05-02T16:47:55Z</time></trkpt>
<trkpt lat="50.516580" lon="5.640207"><time>2026-05-02T16:57:55Z</time></trkpt>
<trkpt lat="50.516595" lon="5.642125"><time>2026-05-02T17:07:55Z</time></trkpt>
<trkpt lat="50.516840" lon="5.643584"><time>2026-05-02T17:17:55Z</time></trkpt>
<trkpt lat="50.516801" lon="5.644641"><time>2026-05-02T17:27:55Z</time></trkpt>
<trkpt lat="50.516794" lon="5.645290"><time>2026-05-02T17:37:55Z</time></trkpt>
<trkpt lat="50.516856" lon="5.647026"><time>2026-05-02T17:47:55Z</time></trkpt>
</trkseg>
</trk>
<trk>
<name>lstsp33</name>
<cmt>v</cmt>
<desc>Sprimont Chemin n°33 </desc>
<link href="https://chemins.be/sprimont/chemin/33"/><trkseg>
<trkpt lat="50.546671" lon="5.591274"><time>2026-05-02T16:47:55Z</time></trkpt>
<trkpt lat="50.546091" lon="5.591759"><time>2026-05-02T16:57:55Z</time></trkpt>
</trkseg></trk>
<trk>
<name>lstsp33</name>
<cmt>q</cmt>
<desc>Sprimont Chemin n°33 </desc>
<link href="https://chemins.be/sprimont/chemin/33"/><trkseg>
<trkpt lat="50.546091" lon="5.591759"><time>2026-05-02T16:57:55Z</time></trkpt>
<trkpt lat="50.545387" lon="5.592306"><time>2026-05-02T17:07:55Z</time></trkpt>
<trkpt lat="50.545060" lon="5.592842"><time>2026-05-02T17:17:55Z</time></trkpt>
<trkpt lat="50.545344" lon="5.593060"><time>2026-05-02T17:27:55Z</time></trkpt>
<trkpt lat="50.544405" lon="5.595100"><time>2026-05-02T17:37:55Z</time></trkpt>
</trkseg></trk>
<trk>
<name>lstsp33</name>
<cmt>v</cmt>
<desc>Sprimont Chemin n°33 </desc>
<link href="https://chemins.be/sprimont/chemin/33"/><trkseg>
<trkpt lat="50.544405" lon="5.595100"><time>2026-05-02T17:37:55Z</time></trkpt>
<trkpt lat="50.543729" lon="5.595512"><time>2026-05-02T17:47:55Z</time></trkpt>
<trkpt lat="50.543374" lon="5.596019"><time>2026-05-02T17:57:55Z</time></trkpt>
<trkpt lat="50.543294" lon="5.596172"><time>2026-05-02T18:07:55Z</time></trkpt>
</trkseg></trk>
<trk>
<name>lstsp33</name>
<cmt>q</cmt>
<desc>Sprimont Chemin n°33 </desc>
<link href="https://chemins.be/sprimont/chemin/33"/><trkseg>
<trkpt lat="50.543294" lon="5.596172"><time>2026-05-02T18:07:55Z</time></trkpt>
<trkpt lat="50.541748" lon="5.598682"><time>2026-05-02T18:17:55Z</time></trkpt>
</trkseg></trk>
<trk>
<name>lstsp33</name>
<cmt>v</cmt>
<desc>Sprimont Chemin n°33 </desc>
<link href="https://chemins.be/sprimont/chemin/33"/><trkseg>
<trkpt lat="50.541748" lon="5.598682"><time>2026-05-02T18:17:55Z</time></trkpt>
<trkpt lat="50.541243" lon="5.598596"><time>2026-05-02T18:27:55Z</time></trkpt>
<trkpt lat="50.540551" lon="5.599208"><time>2026-05-02T18:37:55Z</time></trkpt>
<trkpt lat="50.540047" lon="5.599337"><time>2026-05-02T18:47:55Z</time></trkpt>
<trkpt lat="50.538704" lon="5.598795"><time>2026-05-02T18:57:55Z</time></trkpt>
<trkpt lat="50.537421" lon="5.598773"><time>2026-05-02T19:07:55Z</time></trkpt>
<trkpt lat="50.534417" lon="5.597572"><time>2026-05-02T19:17:55Z</time></trkpt>
<trkpt lat="50.534099" lon="5.597357"><time>2026-05-02T19:27:55Z</time></trkpt>
<trkpt lat="50.533521" lon="5.597245"><time>2026-05-02T19:37:55Z</time></trkpt>
<trkpt lat="50.532762" lon="5.596190"><time>2026-05-02T19:47:55Z</time></trkpt>
<trkpt lat="50.531233" lon="5.594916"><time>2026-05-02T19:57:55Z</time></trkpt>
</trkseg>
</trk>
<trk>
<name>lstsp34</name>
<cmt>s</cmt>
<desc>Sprimont Chemin n°34 Hautgné</desc>
<link href="https://chemins.be/sprimont/chemin/34"/><trkseg>
<trkpt lat="50.539287" lon="5.606532"><time>2026-05-02T16:47:55Z</time></trkpt>
<trkpt lat="50.538988" lon="5.605888"><time>2026-05-02T16:57:55Z</time></trkpt>
</trkseg></trk>
<trk>
<name>lstsp34</name>
<cmt>v</cmt>
<desc>Sprimont Chemin n°34 Hautgné</desc>
<link href="https://chemins.be/sprimont/chemin/34"/><trkseg>
<trkpt lat="50.538988" lon="5.605888"><time>2026-05-02T16:57:55Z</time></trkpt>
<trkpt lat="50.539039" lon="5.605731"><time>2026-05-02T17:07:55Z</time></trkpt>
<trkpt lat="50.538919" lon="5.605076"><time>2026-05-02T17:17:55Z</time></trkpt>
</trkseg></trk>
<trk>
<name>lstsp34</name>
<cmt>r</cmt>
<desc>Sprimont Chemin n°34 Hautgné</desc>
<link href="https://chemins.be/sprimont/chemin/34"/><trkseg>
<trkpt lat="50.538919" lon="5.605076"><time>2026-05-02T17:17:55Z</time></trkpt>
<trkpt lat="50.539453" lon="5.604292"><time>2026-05-02T17:27:55Z</time></trkpt>
</trkseg></trk>
<trk>
<name>lstsp34</name>
<cmt>v</cmt>
<desc>Sprimont Chemin n°34 Hautgné</desc>
<link href="https://chemins.be/sprimont/chemin/34"/><trkseg>
<trkpt lat="50.539453" lon="5.604292"><time>2026-05-02T17:27:55Z</time></trkpt>
<trkpt lat="50.540375" lon="5.603719"><time>2026-05-02T17:37:55Z</time></trkpt>
<trkpt lat="50.541338" lon="5.602142"><time>2026-05-02T17:47:55Z</time></trkpt>
<trkpt lat="50.541759" lon="5.601503"><time>2026-05-02T17:57:55Z</time></trkpt>
<trkpt lat="50.542199" lon="5.599663"><time>2026-05-02T18:07:55Z</time></trkpt>
<trkpt lat="50.542204" lon="5.598647"><time>2026-05-02T18:17:55Z</time></trkpt>
<trkpt lat="50.542965" lon="5.596859"><time>2026-05-02T18:27:55Z</time></trkpt>
<trkpt lat="50.543390" lon="5.596015"><time>2026-05-02T18:37:55Z</time></trkpt>
</trkseg>
</trk>
<trk>
<name>lstsp35</name>
<cmt>v</cmt>
<desc>Sprimont Chemin n°35 </desc>
<link href="https://chemins.be/sprimont/chemin/35"/><trkseg>
<trkpt lat="50.542764" lon="5.608239"><time>2026-05-02T16:47:55Z</time></trkpt>
<trkpt lat="50.542509" lon="5.603918"><time>2026-05-02T16:57:55Z</time></trkpt>
<trkpt lat="50.541364" lon="5.602137"><time>2026-05-02T17:07:55Z</time></trkpt>
</trkseg>
</trk>
<trk>
<name>lstsp36</name>
<cmt>v</cmt>
<desc>Sprimont Chemin n°36 </desc>
<link href="https://chemins.be/sprimont/chemin/36"/><trkseg>
<trkpt lat="50.546613" lon="5.614781"><time>2026-05-02T16:47:55Z</time></trkpt>
<trkpt lat="50.546906" lon="5.614974"><time>2026-05-02T16:57:55Z</time></trkpt>
<trkpt lat="50.547764" lon="5.614723"><time>2026-05-02T17:07:55Z</time></trkpt>
<trkpt lat="50.548045" lon="5.614641"><time>2026-05-02T17:17:55Z</time></trkpt>
<trkpt lat="50.548543" lon="5.613268"><time>2026-05-02T17:27:55Z</time></trkpt>
<trkpt lat="50.548663" lon="5.612752"><time>2026-05-02T17:37:55Z</time></trkpt>
<trkpt lat="50.549197" lon="5.611673"><time>2026-05-02T17:47:55Z</time></trkpt>
</trkseg>
</trk>
<trk>
<name>lstsp37</name>
<cmt>v</cmt>
<desc>Sprimont Chemin n°37 </desc>
<link href="https://chemins.be/sprimont/chemin/37"/><trkseg>
<trkpt lat="50.542713" lon="5.627521"><time>2026-05-02T16:47:55Z</time></trkpt>
<trkpt lat="50.542995" lon="5.626563"><time>2026-05-02T16:57:55Z</time></trkpt>
<trkpt lat="50.544777" lon="5.624088"><time>2026-05-02T17:07:55Z</time></trkpt>
<trkpt lat="50.545740" lon="5.623502"><time>2026-05-02T17:17:55Z</time></trkpt>
</trkseg>
</trk>
<trk>
<name>lstsp37bis</name>
<cmt>d</cmt>
<desc>Sprimont Chemin n°37bis </desc>
<link href="https://chemins.be/sprimont/chemin/37bis"/><trkseg>
<trkpt lat="50.544668" lon="5.624174"><time>2026-05-02T16:47:55Z</time></trkpt>
<trkpt lat="50.544712" lon="5.624958"><time>2026-05-02T16:57:55Z</time></trkpt>
<trkpt lat="50.544449" lon="5.629109"><time>2026-05-02T17:07:55Z</time></trkpt>
<trkpt lat="50.544904" lon="5.631069"><time>2026-05-02T17:17:55Z</time></trkpt>
</trkseg>
</trk>
<trk>
<name>lstsp38</name>
<cmt>v</cmt>
<desc>Sprimont Chemin n°38 </desc>
<link href="https://chemins.be/sprimont/chemin/38"/><trkseg>
<trkpt lat="50.542241" lon="5.612776"><time>2026-05-02T16:47:55Z</time></trkpt>
<trkpt lat="50.542146" lon="5.613253"><time>2026-05-02T16:57:55Z</time></trkpt>
<trkpt lat="50.542035" lon="5.614407"><time>2026-05-02T17:07:55Z</time></trkpt>
<trkpt lat="50.542096" lon="5.615396"><time>2026-05-02T17:17:55Z</time></trkpt>
<trkpt lat="50.542110" lon="5.615778"><time>2026-05-02T17:27:55Z</time></trkpt>
<trkpt lat="50.542349" lon="5.616955"><time>2026-05-02T17:37:55Z</time></trkpt>
<trkpt lat="50.541999" lon="5.617750"><time>2026-05-02T17:47:55Z</time></trkpt>
<trkpt lat="50.542280" lon="5.620043"><time>2026-05-02T17:57:55Z</time></trkpt>
<trkpt lat="50.542561" lon="5.621532"><time>2026-05-02T18:07:55Z</time></trkpt>
<trkpt lat="50.542867" lon="5.622359"><time>2026-05-02T18:17:55Z</time></trkpt>
</trkseg>
</trk>
<trk>
<name>lstsp39</name>
<cmt>v</cmt>
<desc>Sprimont Chemin n°39 </desc>
<link href="https://chemins.be/sprimont/chemin/39"/><trkseg>
<trkpt lat="50.539879" lon="5.611647"><time>2026-05-02T16:47:55Z</time></trkpt>
<trkpt lat="50.540243" lon="5.611350"><time>2026-05-02T16:57:55Z</time></trkpt>
<trkpt lat="50.540632" lon="5.611139"><time>2026-05-02T17:07:55Z</time></trkpt>
<trkpt lat="50.541439" lon="5.612134"><time>2026-05-02T17:17:55Z</time></trkpt>
<trkpt lat="50.542223" lon="5.612747"><time>2026-05-02T17:27:55Z</time></trkpt>
<trkpt lat="50.543006" lon="5.612754"><time>2026-05-02T17:37:55Z</time></trkpt>
<trkpt lat="50.543675" lon="5.613180"><time>2026-05-02T17:47:55Z</time></trkpt>
</trkseg>
</trk>
<trk>
<name>lstsp4</name>
<cmt>v</cmt>
<desc>Sprimont Chemin n°4 </desc>
<link href="https://chemins.be/sprimont/chemin/4"/><trkseg>
<trkpt lat="50.495445" lon="5.610911"><time>2026-05-02T16:47:55Z</time></trkpt>
<trkpt lat="50.495580" lon="5.610333"><time>2026-05-02T16:57:55Z</time></trkpt>
</trkseg></trk>
<trk>
<name>lstsp4</name>
<cmt>d</cmt>
<desc>Sprimont Chemin n°4 </desc>
<link href="https://chemins.be/sprimont/chemin/4"/><trkseg>
<trkpt lat="50.495580" lon="5.610333"><time>2026-05-02T16:57:55Z</time></trkpt>
<trkpt lat="50.495803" lon="5.609704"><time>2026-05-02T17:07:55Z</time></trkpt>
<trkpt lat="50.495958" lon="5.608597"><time>2026-05-02T17:17:55Z</time></trkpt>
<trkpt lat="50.496387" lon="5.608285"><time>2026-05-02T17:27:55Z</time></trkpt>
<trkpt lat="50.496441" lon="5.606917"><time>2026-05-02T17:37:55Z</time></trkpt>
<trkpt lat="50.496222" lon="5.605486"><time>2026-05-02T17:47:55Z</time></trkpt>
<trkpt lat="50.496214" lon="5.604823"><time>2026-05-02T17:57:55Z</time></trkpt>
</trkseg></trk>
<trk>
<name>lstsp4</name>
<cmt>v</cmt>
<desc>Sprimont Chemin n°4 </desc>
<link href="https://chemins.be/sprimont/chemin/4"/><trkseg>
<trkpt lat="50.496214" lon="5.604823"><time>2026-05-02T17:57:55Z</time></trkpt>
<trkpt lat="50.496198" lon="5.603532"><time>2026-05-02T18:07:55Z</time></trkpt>
<trkpt lat="50.496051" lon="5.602657"><time>2026-05-02T18:17:55Z</time></trkpt>
<trkpt lat="50.495949" lon="5.601355"><time>2026-05-02T18:27:55Z</time></trkpt>
<trkpt lat="50.495878" lon="5.599795"><time>2026-05-02T18:37:55Z</time></trkpt>
<trkpt lat="50.496269" lon="5.598707"><time>2026-05-02T18:47:55Z</time></trkpt>
<trkpt lat="50.496509" lon="5.598103"><time>2026-05-02T18:57:55Z</time></trkpt>
<trkpt lat="50.496746" lon="5.597544"><time>2026-05-02T19:07:55Z</time></trkpt>
</trkseg></trk>
<trk>
<name>lstsp4</name>
<cmt>q</cmt>
<desc>Sprimont Chemin n°4 </desc>
<link href="https://chemins.be/sprimont/chemin/4"/><trkseg>
<trkpt lat="50.496746" lon="5.597544"><time>2026-05-02T19:07:55Z</time></trkpt>
<trkpt lat="50.496950" lon="5.597060"><time>2026-05-02T19:17:55Z</time></trkpt>
<trkpt lat="50.497590" lon="5.596464"><time>2026-05-02T19:27:55Z</time></trkpt>
</trkseg></trk>
<trk>
<name>lstsp4</name>
<cmt>d</cmt>
<desc>Sprimont Chemin n°4 </desc>
<link href="https://chemins.be/sprimont/chemin/4"/><trkseg>
<trkpt lat="50.497590" lon="5.596464"><time>2026-05-02T19:27:55Z</time></trkpt>
<trkpt lat="50.498321" lon="5.596133"><time>2026-05-02T19:37:55Z</time></trkpt>
</trkseg>
</trk>
<trk>
<name>lstsp41</name>
<cmt>d</cmt>
<desc>Sprimont Chemin n°41 </desc>
<link href="https://chemins.be/sprimont/chemin/41"/><trkseg>
<trkpt lat="50.537395" lon="5.627763"><time>2026-05-02T16:47:55Z</time></trkpt>
<trkpt lat="50.536954" lon="5.627737"><time>2026-05-02T16:57:55Z</time></trkpt>
</trkseg>
</trk>
<trk>
<name>lstsp44</name>
<cmt>b</cmt>
<desc>Sprimont Chemin n°44 </desc>
<link href="https://chemins.be/sprimont/chemin/44"/><trkseg>
<trkpt lat="50.539230" lon="5.634575"><time>2026-05-02T16:47:55Z</time></trkpt>
<trkpt lat="50.540239" lon="5.632237"><time>2026-05-02T16:57:55Z</time></trkpt>
<trkpt lat="50.540549" lon="5.632088"><time>2026-05-02T17:07:55Z</time></trkpt>
</trkseg></trk>
<trk>
<name>lstsp44</name>
<cmt>s</cmt>
<desc>Sprimont Chemin n°44 </desc>
<link href="https://chemins.be/sprimont/chemin/44"/><trkseg>
<trkpt lat="50.540549" lon="5.632088"><time>2026-05-02T17:07:55Z</time></trkpt>
<trkpt lat="50.540898" lon="5.631435"><time>2026-05-02T17:17:55Z</time></trkpt>
<trkpt lat="50.541302" lon="5.631033"><time>2026-05-02T17:27:55Z</time></trkpt>
</trkseg></trk>
<trk>
<name>lstsp44</name>
<cmt>v</cmt>
<desc>Sprimont Chemin n°44 </desc>
<link href="https://chemins.be/sprimont/chemin/44"/><trkseg>
<trkpt lat="50.541302" lon="5.631033"><time>2026-05-02T17:27:55Z</time></trkpt>
<trkpt lat="50.542003" lon="5.631135"><time>2026-05-02T17:37:55Z</time></trkpt>
</trkseg></trk>
<trk>
<name>lstsp44</name>
<cmt>b</cmt>
<desc>Sprimont Chemin n°44 </desc>
<link href="https://chemins.be/sprimont/chemin/44"/><trkseg>
<trkpt lat="50.542003" lon="5.631135"><time>2026-05-02T17:37:55Z</time></trkpt>
<trkpt lat="50.542857" lon="5.630720"><time>2026-05-02T17:47:55Z</time></trkpt>
</trkseg>
</trk>
<trk>
<name>lstsp46</name>
<cmt>v</cmt>
<desc>Sprimont Chemin n°46 </desc>
<link href="https://chemins.be/sprimont/chemin/46"/><trkseg>
<trkpt lat="50.536575" lon="5.637236"><time>2026-05-02T16:47:55Z</time></trkpt>
<trkpt lat="50.536339" lon="5.638588"><time>2026-05-02T16:57:55Z</time></trkpt>
<trkpt lat="50.536398" lon="5.639861"><time>2026-05-02T17:07:55Z</time></trkpt>
<trkpt lat="50.536046" lon="5.640935"><time>2026-05-02T17:17:55Z</time></trkpt>
<trkpt lat="50.536598" lon="5.642336"><time>2026-05-02T17:27:55Z</time></trkpt>
<trkpt lat="50.535720" lon="5.643359"><time>2026-05-02T17:37:55Z</time></trkpt>
<trkpt lat="50.534929" lon="5.645526"><time>2026-05-02T17:47:55Z</time></trkpt>
<trkpt lat="50.534205" lon="5.646346"><time>2026-05-02T17:57:55Z</time></trkpt>
</trkseg></trk>
<trk>
<name>lstsp46</name>
<cmt>d</cmt>
<desc>Sprimont Chemin n°46 </desc>
<link href="https://chemins.be/sprimont/chemin/46"/><trkseg>
<trkpt lat="50.534205" lon="5.646346"><time>2026-05-02T17:57:55Z</time></trkpt>
<trkpt lat="50.533134" lon="5.648509"><time>2026-05-02T18:07:55Z</time></trkpt>
</trkseg>
</trk>
<trk>
<name>lstsp48</name>
<cmt>v</cmt>
<desc>Sprimont Chemin n°48 </desc>
<link href="https://chemins.be/sprimont/chemin/48"/><trkseg>
<trkpt lat="50.526592" lon="5.610615"><time>2026-05-02T16:47:55Z</time></trkpt>
<trkpt lat="50.525602" lon="5.610674"><time>2026-05-02T16:57:55Z</time></trkpt>
<trkpt lat="50.525430" lon="5.610867"><time>2026-05-02T17:07:55Z</time></trkpt>
<trkpt lat="50.525481" lon="5.611108"><time>2026-05-02T17:17:55Z</time></trkpt>
<trkpt lat="50.526155" lon="5.611944"><time>2026-05-02T17:27:55Z</time></trkpt>
<trkpt lat="50.526928" lon="5.612881"><time>2026-05-02T17:37:55Z</time></trkpt>
<trkpt lat="50.527294" lon="5.613892"><time>2026-05-02T17:47:55Z</time></trkpt>
<trkpt lat="50.528434" lon="5.615826"><time>2026-05-02T17:57:55Z</time></trkpt>
<trkpt lat="50.529335" lon="5.616471"><time>2026-05-02T18:07:55Z</time></trkpt>
<trkpt lat="50.529897" lon="5.616895"><time>2026-05-02T18:17:55Z</time></trkpt>
<trkpt lat="50.530214" lon="5.617524"><time>2026-05-02T18:27:55Z</time></trkpt>
</trkseg>
</trk>
<trk>
<name>lstsp49</name>
<cmt>v</cmt>
<desc>Sprimont Chemin n°49 </desc>
<link href="https://chemins.be/sprimont/chemin/49"/><trkseg>
<trkpt lat="50.531156" lon="5.626922"><time>2026-05-02T16:47:55Z</time></trkpt>
<trkpt lat="50.531006" lon="5.626882"><time>2026-05-02T16:57:55Z</time></trkpt>
<trkpt lat="50.530409" lon="5.624914"><time>2026-05-02T17:07:55Z</time></trkpt>
<trkpt lat="50.528996" lon="5.624252"><time>2026-05-02T17:17:55Z</time></trkpt>
<trkpt lat="50.528256" lon="5.623722"><time>2026-05-02T17:27:55Z</time></trkpt>
<trkpt lat="50.528056" lon="5.623272"><time>2026-05-02T17:37:55Z</time></trkpt>
<trkpt lat="50.527346" lon="5.622112"><time>2026-05-02T17:47:55Z</time></trkpt>
<trkpt lat="50.527186" lon="5.622062"><time>2026-05-02T17:57:55Z</time></trkpt>
</trkseg>
</trk>
<trk>
<name>lstsp4bis</name>
<cmt>v</cmt>
<desc>Sprimont Chemin n°4bis </desc>
<link href="https://chemins.be/sprimont/chemin/4bis"/><trkseg>
<trkpt lat="50.507969" lon="5.680588"><time>2026-05-02T16:47:55Z</time></trkpt>
<trkpt lat="50.508710" lon="5.680159"><time>2026-05-02T16:57:55Z</time></trkpt>
<trkpt lat="50.509994" lon="5.680445"><time>2026-05-02T17:07:55Z</time></trkpt>
<trkpt lat="50.511207" lon="5.680095"><time>2026-05-02T17:17:55Z</time></trkpt>
<trkpt lat="50.513236" lon="5.679849"><time>2026-05-02T17:27:55Z</time></trkpt>
<trkpt lat="50.513590" lon="5.679459"><time>2026-05-02T17:37:55Z</time></trkpt>
</trkseg>
</trk>
<trk>
<name>lstsp5</name>
<cmt>v</cmt>
<desc>Sprimont Chemin n°5 </desc>
<link href="https://chemins.be/sprimont/chemin/5"/><trkseg>
<trkpt lat="50.507535" lon="5.683971"><time>2026-05-02T16:47:55Z</time></trkpt>
<trkpt lat="50.508859" lon="5.682759"><time>2026-05-02T16:57:55Z</time></trkpt>
<trkpt lat="50.509984" lon="5.683789"><time>2026-05-02T17:07:55Z</time></trkpt>
</trkseg></trk>
<trk>
<name>lstsp5</name>
<cmt>s</cmt>
<desc>Sprimont Chemin n°5 </desc>
<link href="https://chemins.be/sprimont/chemin/5"/><trkseg>
<trkpt lat="50.509984" lon="5.683789"><time>2026-05-02T17:07:55Z</time></trkpt>
<trkpt lat="50.510813" lon="5.685087"><time>2026-05-02T17:17:55Z</time></trkpt>
<trkpt lat="50.511132" lon="5.686028"><time>2026-05-02T17:27:55Z</time></trkpt>
<trkpt lat="50.511528" lon="5.686130"><time>2026-05-02T17:37:55Z</time></trkpt>
<trkpt lat="50.511821" lon="5.685875"><time>2026-05-02T17:47:55Z</time></trkpt>
</trkseg></trk>
<trk>
<name>lstsp5</name>
<cmt>q</cmt>
<desc>Sprimont Chemin n°5 </desc>
<link href="https://chemins.be/sprimont/chemin/5"/><trkseg>
<trkpt lat="50.511821" lon="5.685875"><time>2026-05-02T17:47:55Z</time></trkpt>
<trkpt lat="50.512824" lon="5.686326"><time>2026-05-02T17:57:55Z</time></trkpt>
</trkseg>
</trk>
<trk>
<name>lstsp50</name>
<cmt>v</cmt>
<desc>Sprimont Chemin n°50 Haie des Pauvres</desc>
<link href="https://chemins.be/sprimont/chemin/50"/><trkseg>
<trkpt lat="50.531506" lon="5.625442"><time>2026-05-02T16:47:55Z</time></trkpt>
<trkpt lat="50.531206" lon="5.626902"><time>2026-05-02T16:57:55Z</time></trkpt>
<trkpt lat="50.530906" lon="5.627512"><time>2026-05-02T17:07:55Z</time></trkpt>
<trkpt lat="50.531036" lon="5.630382"><time>2026-05-02T17:17:55Z</time></trkpt>
<trkpt lat="50.531366" lon="5.632632"><time>2026-05-02T17:27:55Z</time></trkpt>
<trkpt lat="50.531476" lon="5.634202"><time>2026-05-02T17:37:55Z</time></trkpt>
<trkpt lat="50.531281" lon="5.635197"><time>2026-05-02T17:47:55Z</time></trkpt>
<trkpt lat="50.531533" lon="5.635648"><time>2026-05-02T17:57:55Z</time></trkpt>
<trkpt lat="50.532004" lon="5.639146"><time>2026-05-02T18:07:55Z</time></trkpt>
</trkseg>
</trk>
<trk>
<name>lstsp51</name>
<cmt>v</cmt>
<desc>Sprimont Chemin n°51 Fond de Hazé / Al Bosré / Chemin de Sushaies</desc>
<link href="https://chemins.be/sprimont/chemin/51"/><trkseg>
<trkpt lat="50.519975" lon="5.628099"><time>2026-05-02T16:47:55Z</time></trkpt>
<trkpt lat="50.520208" lon="5.631546"><time>2026-05-02T16:57:55Z</time></trkpt>
<trkpt lat="50.521194" lon="5.631855"><time>2026-05-02T17:07:55Z</time></trkpt>
<trkpt lat="50.522260" lon="5.632137"><time>2026-05-02T17:17:55Z</time></trkpt>
<trkpt lat="50.522929" lon="5.631873"><time>2026-05-02T17:27:55Z</time></trkpt>
<trkpt lat="50.523477" lon="5.631098"><time>2026-05-02T17:37:55Z</time></trkpt>
<trkpt lat="50.524429" lon="5.631137"><time>2026-05-02T17:47:55Z</time></trkpt>
<trkpt lat="50.525187" lon="5.631707"><time>2026-05-02T17:57:55Z</time></trkpt>
<trkpt lat="50.525357" lon="5.631768"><time>2026-05-02T18:07:55Z</time></trkpt>
<trkpt lat="50.526248" lon="5.631736"><time>2026-05-02T18:17:55Z</time></trkpt>
<trkpt lat="50.526361" lon="5.632095"><time>2026-05-02T18:27:55Z</time></trkpt>
<trkpt lat="50.526521" lon="5.632625"><time>2026-05-02T18:37:55Z</time></trkpt>
<trkpt lat="50.527008" lon="5.633025"><time>2026-05-02T18:47:55Z</time></trkpt>
<trkpt lat="50.527420" lon="5.634270"><time>2026-05-02T18:57:55Z</time></trkpt>
<trkpt lat="50.529185" lon="5.634384"><time>2026-05-02T19:07:55Z</time></trkpt>
<trkpt lat="50.530512" lon="5.640335"><time>2026-05-02T19:17:55Z</time></trkpt>
<trkpt lat="50.530730" lon="5.641079"><time>2026-05-02T19:27:55Z</time></trkpt>
</trkseg>
</trk>
<trk>
<name>lstsp52</name>
<cmt>v</cmt>
<desc>Sprimont Chemin n°52 </desc>
<link href="https://chemins.be/sprimont/chemin/52"/><trkseg>
<trkpt lat="50.532183" lon="5.640591"><time>2026-05-02T16:47:55Z</time></trkpt>
<trkpt lat="50.532456" lon="5.644074"><time>2026-05-02T16:57:55Z</time></trkpt>
<trkpt lat="50.532588" lon="5.647364"><time>2026-05-02T17:07:55Z</time></trkpt>
<trkpt lat="50.533138" lon="5.648623"><time>2026-05-02T17:17:55Z</time></trkpt>
<trkpt lat="50.532636" lon="5.650348"><time>2026-05-02T17:27:55Z</time></trkpt>
<trkpt lat="50.532370" lon="5.650866"><time>2026-05-02T17:37:55Z</time></trkpt>
<trkpt lat="50.532254" lon="5.651206"><time>2026-05-02T17:47:55Z</time></trkpt>
</trkseg>
</trk>
<trk>
<name>lstsp53</name>
<cmt>v</cmt>
<desc>Sprimont Chemin n°53 </desc>
<link href="https://chemins.be/sprimont/chemin/53"/><trkseg>
<trkpt lat="50.532470" lon="5.643931"><time>2026-05-02T16:47:55Z</time></trkpt>
<trkpt lat="50.533179" lon="5.643945"><time>2026-05-02T16:57:55Z</time></trkpt>
<trkpt lat="50.533620" lon="5.643459"><time>2026-05-02T17:07:55Z</time></trkpt>
<trkpt lat="50.534203" lon="5.643358"><time>2026-05-02T17:17:55Z</time></trkpt>
</trkseg></trk>
<trk>
<name>lstsp53</name>
<cmt>d</cmt>
<desc>Sprimont Chemin n°53 </desc>
<link href="https://chemins.be/sprimont/chemin/53"/><trkseg>
<trkpt lat="50.534203" lon="5.643358"><time>2026-05-02T17:17:55Z</time></trkpt>
<trkpt lat="50.534525" lon="5.643180"><time>2026-05-02T17:27:55Z</time></trkpt>
<trkpt lat="50.535166" lon="5.642357"><time>2026-05-02T17:37:55Z</time></trkpt>
<trkpt lat="50.535702" lon="5.641327"><time>2026-05-02T17:47:55Z</time></trkpt>
</trkseg>
</trk>
<trk>
<name>lstsp54</name>
<cmt>v</cmt>
<desc>Sprimont Chemin n°54 </desc>
<link href="https://chemins.be/sprimont/chemin/54"/><trkseg>
<trkpt lat="50.525822" lon="5.649009"><time>2026-05-02T16:47:55Z</time></trkpt>
<trkpt lat="50.527655" lon="5.650454"><time>2026-05-02T16:57:55Z</time></trkpt>
<trkpt lat="50.529446" lon="5.652671"><time>2026-05-02T17:07:55Z</time></trkpt>
<trkpt lat="50.530219" lon="5.653086"><time>2026-05-02T17:17:55Z</time></trkpt>
<trkpt lat="50.531560" lon="5.651441"><time>2026-05-02T17:27:55Z</time></trkpt>
<trkpt lat="50.532329" lon="5.650955"><time>2026-05-02T17:37:55Z</time></trkpt>
</trkseg>
</trk>
<trk>
<name>lstsp56</name>
<cmt>v</cmt>
<desc>Sprimont Chemin n°56 </desc>
<link href="https://chemins.be/sprimont/chemin/56"/><trkseg>
<trkpt lat="50.536409" lon="5.660594"><time>2026-05-02T16:47:55Z</time></trkpt>
<trkpt lat="50.535078" lon="5.659772"><time>2026-05-02T16:57:55Z</time></trkpt>
<trkpt lat="50.532741" lon="5.657755"><time>2026-05-02T17:07:55Z</time></trkpt>
<trkpt lat="50.531570" lon="5.657932"><time>2026-05-02T17:17:55Z</time></trkpt>
<trkpt lat="50.531152" lon="5.657912"><time>2026-05-02T17:27:55Z</time></trkpt>
<trkpt lat="50.530357" lon="5.657997"><time>2026-05-02T17:37:55Z</time></trkpt>
<trkpt lat="50.528604" lon="5.659268"><time>2026-05-02T17:47:55Z</time></trkpt>
<trkpt lat="50.526783" lon="5.660416"><time>2026-05-02T17:57:55Z</time></trkpt>
<trkpt lat="50.526033" lon="5.660223"><time>2026-05-02T18:07:55Z</time></trkpt>
<trkpt lat="50.525296" lon="5.659547"><time>2026-05-02T18:17:55Z</time></trkpt>
</trkseg>
</trk>
<trk>
<name>lstsp57</name>
<cmt>v</cmt>
<desc>Sprimont Chemin n°57 </desc>
<link href="https://chemins.be/sprimont/chemin/57"/><trkseg>
<trkpt lat="50.532294" lon="5.677378"><time>2026-05-02T16:47:55Z</time></trkpt>
<trkpt lat="50.531981" lon="5.675104"><time>2026-05-02T16:57:55Z</time></trkpt>
<trkpt lat="50.531435" lon="5.673001"><time>2026-05-02T17:07:55Z</time></trkpt>
<trkpt lat="50.530848" lon="5.671735"><time>2026-05-02T17:17:55Z</time></trkpt>
<trkpt lat="50.530507" lon="5.670812"><time>2026-05-02T17:27:55Z</time></trkpt>
<trkpt lat="50.531148" lon="5.668527"><time>2026-05-02T17:37:55Z</time></trkpt>
<trkpt lat="50.531714" lon="5.667014"><time>2026-05-02T17:47:55Z</time></trkpt>
<trkpt lat="50.532008" lon="5.666016"><time>2026-05-02T17:57:55Z</time></trkpt>
<trkpt lat="50.531632" lon="5.662599"><time>2026-05-02T18:07:55Z</time></trkpt>
</trkseg></trk>
<trk>
<name>lstsp57</name>
<cmt>s</cmt>
<desc>Sprimont Chemin n°57 </desc>
<link href="https://chemins.be/sprimont/chemin/57"/><trkseg>
<trkpt lat="50.531632" lon="5.662599"><time>2026-05-02T18:07:55Z</time></trkpt>
<trkpt lat="50.531524" lon="5.661612"><time>2026-05-02T18:17:55Z</time></trkpt>
</trkseg></trk>
<trk>
<name>lstsp57</name>
<cmt>v</cmt>
<desc>Sprimont Chemin n°57 </desc>
<link href="https://chemins.be/sprimont/chemin/57"/><trkseg>
<trkpt lat="50.531524" lon="5.661612"><time>2026-05-02T18:17:55Z</time></trkpt>
<trkpt lat="50.531114" lon="5.657884"><time>2026-05-02T18:27:55Z</time></trkpt>
</trkseg>
</trk>
<trk>
<name>lstsp58</name>
<cmt>v</cmt>
<desc>Sprimont Chemin n°58 </desc>
<link href="https://chemins.be/sprimont/chemin/58"/><trkseg>
<trkpt lat="50.526818" lon="5.675379"><time>2026-05-02T16:47:55Z</time></trkpt>
<trkpt lat="50.527135" lon="5.674401"><time>2026-05-02T16:57:55Z</time></trkpt>
<trkpt lat="50.527746" lon="5.673656"><time>2026-05-02T17:07:55Z</time></trkpt>
<trkpt lat="50.528957" lon="5.673083"><time>2026-05-02T17:17:55Z</time></trkpt>
</trkseg></trk>
<trk>
<name>lstsp58</name>
<cmt>d</cmt>
<desc>Sprimont Chemin n°58 </desc>
<link href="https://chemins.be/sprimont/chemin/58"/><trkseg>
<trkpt lat="50.528957" lon="5.673083"><time>2026-05-02T17:17:55Z</time></trkpt>
<trkpt lat="50.530672" lon="5.672509"><time>2026-05-02T17:27:55Z</time></trkpt>
<trkpt lat="50.531387" lon="5.672896"><time>2026-05-02T17:37:55Z</time></trkpt>
</trkseg>
</trk>
<trk>
<name>lstsp59</name>
<cmt>v</cmt>
<desc>Sprimont Chemin n°59 </desc>
<link href="https://chemins.be/sprimont/chemin/59"/><trkseg>
<trkpt lat="50.523520" lon="5.670408"><time>2026-05-02T16:47:55Z</time></trkpt>
<trkpt lat="50.523590" lon="5.670593"><time>2026-05-02T16:57:55Z</time></trkpt>
<trkpt lat="50.525113" lon="5.671101"><time>2026-05-02T17:07:55Z</time></trkpt>
<trkpt lat="50.526863" lon="5.671389"><time>2026-05-02T17:17:55Z</time></trkpt>
<trkpt lat="50.527650" lon="5.671749"><time>2026-05-02T17:27:55Z</time></trkpt>
<trkpt lat="50.528315" lon="5.672585"><time>2026-05-02T17:37:55Z</time></trkpt>
<trkpt lat="50.528948" lon="5.673082"><time>2026-05-02T17:47:55Z</time></trkpt>
<trkpt lat="50.529793" lon="5.673952"><time>2026-05-02T17:57:55Z</time></trkpt>
<trkpt lat="50.530854" lon="5.674757"><time>2026-05-02T18:07:55Z</time></trkpt>
<trkpt lat="50.531501" lon="5.675565"><time>2026-05-02T18:17:55Z</time></trkpt>
<trkpt lat="50.532308" lon="5.677365"><time>2026-05-02T18:27:55Z</time></trkpt>
</trkseg>
</trk>
<trk>
<name>lstsp6</name>
<cmt>d</cmt>
<desc>Sprimont Chemin n°6 Rue Stapelette / Rue Tultay</desc>
<link href="https://chemins.be/sprimont/chemin/6"/><trkseg>
<trkpt lat="50.518548" lon="5.677798"><time>2026-05-02T16:47:55Z</time></trkpt>
<trkpt lat="50.517394" lon="5.676003"><time>2026-05-02T16:57:55Z</time></trkpt>
</trkseg></trk>
<trk>
<name>lstsp6</name>
<cmt>s</cmt>
<desc>Sprimont Chemin n°6 Rue Stapelette / Rue Tultay</desc>
<link href="https://chemins.be/sprimont/chemin/6"/><trkseg>
<trkpt lat="50.517394" lon="5.676003"><time>2026-05-02T16:57:55Z</time></trkpt>
<trkpt lat="50.516482" lon="5.674935"><time>2026-05-02T17:07:55Z</time></trkpt>
</trkseg></trk>
<trk>
<name>lstsp6</name>
<cmt>r</cmt>
<desc>Sprimont Chemin n°6 Rue Stapelette / Rue Tultay</desc>
<link href="https://chemins.be/sprimont/chemin/6"/><trkseg>
<trkpt lat="50.516482" lon="5.674935"><time>2026-05-02T17:07:55Z</time></trkpt>
<trkpt lat="50.515372" lon="5.673950"><time>2026-05-02T17:17:55Z</time></trkpt>
<trkpt lat="50.514912" lon="5.673957"><time>2026-05-02T17:27:55Z</time></trkpt>
<trkpt lat="50.513457" lon="5.673178"><time>2026-05-02T17:37:55Z</time></trkpt>
</trkseg></trk>
<trk>
<name>lstsp6</name>
<cmt>v</cmt>
<desc>Sprimont Chemin n°6 Rue Stapelette / Rue Tultay</desc>
<link href="https://chemins.be/sprimont/chemin/6"/><trkseg>
<trkpt lat="50.513457" lon="5.673178"><time>2026-05-02T17:37:55Z</time></trkpt>
<trkpt lat="50.511679" lon="5.671661"><time>2026-05-02T17:47:55Z</time></trkpt>
<trkpt lat="50.511042" lon="5.669480"><time>2026-05-02T17:57:55Z</time></trkpt>
<trkpt lat="50.510842" lon="5.668755"><time>2026-05-02T18:07:55Z</time></trkpt>
<trkpt lat="50.509699" lon="5.667352"><time>2026-05-02T18:17:55Z</time></trkpt>
<trkpt lat="50.509152" lon="5.666436"><time>2026-05-02T18:27:55Z</time></trkpt>
</trkseg></trk>
<trk>
<name>lstsp6</name>
<cmt>s</cmt>
<desc>Sprimont Chemin n°6 Rue Stapelette / Rue Tultay</desc>
<link href="https://chemins.be/sprimont/chemin/6"/><trkseg>
<trkpt lat="50.509152" lon="5.666436"><time>2026-05-02T18:27:55Z</time></trkpt>
<trkpt lat="50.507731" lon="5.664874"><time>2026-05-02T18:37:55Z</time></trkpt>
<trkpt lat="50.507217" lon="5.663994"><time>2026-05-02T18:47:55Z</time></trkpt>
<trkpt lat="50.506725" lon="5.664445"><time>2026-05-02T18:57:55Z</time></trkpt>
<trkpt lat="50.506166" lon="5.664108"><time>2026-05-02T19:07:55Z</time></trkpt>
<trkpt lat="50.506043" lon="5.662914"><time>2026-05-02T19:17:55Z</time></trkpt>
<trkpt lat="50.505784" lon="5.662277"><time>2026-05-02T19:27:55Z</time></trkpt>
<trkpt lat="50.505470" lon="5.662199"><time>2026-05-02T19:37:55Z</time></trkpt>
<trkpt lat="50.504273" lon="5.661254"><time>2026-05-02T19:47:55Z</time></trkpt>
<trkpt lat="50.503041" lon="5.661126"><time>2026-05-02T19:57:55Z</time></trkpt>
</trkseg>
</trk>
<trk>
<name>lstsp60</name>
<cmt>v</cmt>
<desc>Sprimont Chemin n°60 chemin des Princes-Évêques</desc>
<link href="https://chemins.be/sprimont/chemin/60"/><trkseg>
<trkpt lat="50.525122" lon="5.671101"><time>2026-05-02T16:47:55Z</time></trkpt>
<trkpt lat="50.525049" lon="5.672791"><time>2026-05-02T16:57:55Z</time></trkpt>
<trkpt lat="50.524775" lon="5.673955"><time>2026-05-02T17:07:55Z</time></trkpt>
</trkseg>
</trk>
<trk>
<name>lstsp61</name>
<cmt>s</cmt>
<desc>Sprimont Chemin n°61 </desc>
<link href="https://chemins.be/sprimont/chemin/61"/><trkseg>
<trkpt lat="50.522032" lon="5.662588"><time>2026-05-02T16:47:55Z</time></trkpt>
<trkpt lat="50.522858" lon="5.663554"><time>2026-05-02T16:57:55Z</time></trkpt>
<trkpt lat="50.523560" lon="5.665807"><time>2026-05-02T17:07:55Z</time></trkpt>
<trkpt lat="50.523294" lon="5.669348"><time>2026-05-02T17:17:55Z</time></trkpt>
</trkseg></trk>
<trk>
<name>lstsp61</name>
<cmt>q</cmt>
<desc>Sprimont Chemin n°61 </desc>
<link href="https://chemins.be/sprimont/chemin/61"/><trkseg>
<trkpt lat="50.523294" lon="5.669348"><time>2026-05-02T17:17:55Z</time></trkpt>
<trkpt lat="50.522789" lon="5.670088"><time>2026-05-02T17:27:55Z</time></trkpt>
</trkseg>
</trk>
<trk>
<name>lstsp66</name>
<cmt>v</cmt>
<desc>Sprimont Chemin n°66 </desc>
<link href="https://chemins.be/sprimont/chemin/66"/><trkseg>
<trkpt lat="50.520714" lon="5.674624"><time>2026-05-02T16:47:55Z</time></trkpt>
<trkpt lat="50.519718" lon="5.671861"><time>2026-05-02T16:57:55Z</time></trkpt>
</trkseg></trk>
<trk>
<name>lstsp66</name>
<cmt>s</cmt>
<desc>Sprimont Chemin n°66 </desc>
<link href="https://chemins.be/sprimont/chemin/66"/><trkseg>
<trkpt lat="50.519718" lon="5.671861"><time>2026-05-02T16:57:55Z</time></trkpt>
<trkpt lat="50.519486" lon="5.671496"><time>2026-05-02T17:07:55Z</time></trkpt>
</trkseg>
</trk>
<trk>
<name>lstsp67</name>
<cmt>v</cmt>
<desc>Sprimont Chemin n°67 Rue Haute Lillé</desc>
<link href="https://chemins.be/sprimont/chemin/67"/><trkseg>
<trkpt lat="50.498407" lon="5.644112"><time>2026-05-02T16:47:55Z</time></trkpt>
<trkpt lat="50.499030" lon="5.643790"><time>2026-05-02T16:57:55Z</time></trkpt>
<trkpt lat="50.499987" lon="5.643500"><time>2026-05-02T17:07:55Z</time></trkpt>
</trkseg></trk>
<trk>
<name>lstsp67</name>
<cmt>r</cmt>
<desc>Sprimont Chemin n°67 Rue Haute Lillé</desc>
<link href="https://chemins.be/sprimont/chemin/67"/><trkseg>
<trkpt lat="50.499987" lon="5.643500"><time>2026-05-02T17:07:55Z</time></trkpt>
<trkpt lat="50.500750" lon="5.643095"><time>2026-05-02T17:17:55Z</time></trkpt>
</trkseg></trk>
<trk>
<name>lstsp67</name>
<cmt>v</cmt>
<desc>Sprimont Chemin n°67 Rue Haute Lillé</desc>
<link href="https://chemins.be/sprimont/chemin/67"/><trkseg>
<trkpt lat="50.500750" lon="5.643095"><time>2026-05-02T17:17:55Z</time></trkpt>
<trkpt lat="50.501338" lon="5.641940"><time>2026-05-02T17:27:55Z</time></trkpt>
<trkpt lat="50.501359" lon="5.641715"><time>2026-05-02T17:37:55Z</time></trkpt>
<trkpt lat="50.502690" lon="5.640835"><time>2026-05-02T17:47:55Z</time></trkpt>
<trkpt lat="50.503078" lon="5.640747"><time>2026-05-02T17:57:55Z</time></trkpt>
<trkpt lat="50.503656" lon="5.640494"><time>2026-05-02T18:07:55Z</time></trkpt>
<trkpt lat="50.503912" lon="5.640092"><time>2026-05-02T18:17:55Z</time></trkpt>
<trkpt lat="50.503801" lon="5.639582"><time>2026-05-02T18:27:55Z</time></trkpt>
<trkpt lat="50.503430" lon="5.638966"><time>2026-05-02T18:37:55Z</time></trkpt>
<trkpt lat="50.503460" lon="5.638698"><time>2026-05-02T18:47:55Z</time></trkpt>
<trkpt lat="50.503677" lon="5.638535"><time>2026-05-02T18:57:55Z</time></trkpt>
<trkpt lat="50.503649" lon="5.637844"><time>2026-05-02T19:07:55Z</time></trkpt>
<trkpt lat="50.503904" lon="5.636737"><time>2026-05-02T19:17:55Z</time></trkpt>
<trkpt lat="50.504425" lon="5.635905"><time>2026-05-02T19:27:55Z</time></trkpt>
<trkpt lat="50.504904" lon="5.635748"><time>2026-05-02T19:37:55Z</time></trkpt>
<trkpt lat="50.505452" lon="5.634931"><time>2026-05-02T19:47:55Z</time></trkpt>
<trkpt lat="50.505847" lon="5.634970"><time>2026-05-02T19:57:55Z</time></trkpt>
<trkpt lat="50.506773" lon="5.633782"><time>2026-05-02T20:07:55Z</time></trkpt>
<trkpt lat="50.507537" lon="5.633295"><time>2026-05-02T20:17:55Z</time></trkpt>
<trkpt lat="50.508392" lon="5.633038"><time>2026-05-02T20:27:55Z</time></trkpt>
</trkseg>
</trk>
<trk>
<name>lstsp68</name>
<cmt>v</cmt>
<desc>Sprimont Sentier n°68 </desc>
<link href="https://chemins.be/sprimont/sentier/68"/><trkseg>
<trkpt lat="50.509183" lon="5.639604"><time>2026-05-02T16:47:55Z</time></trkpt>
<trkpt lat="50.511323" lon="5.642704"><time>2026-05-02T16:57:55Z</time></trkpt>
</trkseg></trk>
<trk>
<name>lstsp68</name>
<cmt>d</cmt>
<desc>Sprimont Sentier n°68 </desc>
<link href="https://chemins.be/sprimont/sentier/68"/><trkseg>
<trkpt lat="50.511323" lon="5.642704"><time>2026-05-02T16:57:55Z</time></trkpt>
<trkpt lat="50.512049" lon="5.644832"><time>2026-05-02T17:07:55Z</time></trkpt>
</trkseg>
</trk>
<trk>
<name>lstsp69</name>
<cmt>q</cmt>
<desc>Sprimont Chemin n°69 </desc>
<link href="https://chemins.be/sprimont/chemin/69"/><trkseg>
<trkpt lat="50.508505" lon="5.639730"><time>2026-05-02T16:47:55Z</time></trkpt>
<trkpt lat="50.508692" lon="5.643202"><time>2026-05-02T16:57:55Z</time></trkpt>
<trkpt lat="50.509520" lon="5.643516"><time>2026-05-02T17:07:55Z</time></trkpt>
<trkpt lat="50.510566" lon="5.644539"><time>2026-05-02T17:17:55Z</time></trkpt>
<trkpt lat="50.510730" lon="5.645412"><time>2026-05-02T17:27:55Z</time></trkpt>
<trkpt lat="50.512045" lon="5.644882"><time>2026-05-02T17:37:55Z</time></trkpt>
</trkseg>
</trk>
<trk>
<name>lstsp7</name>
<cmt>r</cmt>
<desc>Sprimont Chemin n°7 Rue de Féchery</desc>
<link href="https://chemins.be/sprimont/chemin/7"/><trkseg>
<trkpt lat="50.517524" lon="5.669320"><time>2026-05-02T16:47:55Z</time></trkpt>
<trkpt lat="50.517488" lon="5.670064"><time>2026-05-02T16:57:55Z</time></trkpt>
</trkseg></trk>
<trk>
<name>lstsp7</name>
<cmt>d</cmt>
<desc>Sprimont Chemin n°7 Rue de Féchery</desc>
<link href="https://chemins.be/sprimont/chemin/7"/><trkseg>
<trkpt lat="50.517488" lon="5.670064"><time>2026-05-02T16:57:55Z</time></trkpt>
<trkpt lat="50.517500" lon="5.670830"><time>2026-05-02T17:07:55Z</time></trkpt>
<trkpt lat="50.517694" lon="5.671400"><time>2026-05-02T17:17:55Z</time></trkpt>
<trkpt lat="50.517528" lon="5.673621"><time>2026-05-02T17:27:55Z</time></trkpt>
</trkseg></trk>
<trk>
<name>lstsp7</name>
<cmt>s</cmt>
<desc>Sprimont Chemin n°7 Rue de Féchery</desc>
<link href="https://chemins.be/sprimont/chemin/7"/><trkseg>
<trkpt lat="50.517528" lon="5.673621"><time>2026-05-02T17:27:55Z</time></trkpt>
<trkpt lat="50.517474" lon="5.674341"><time>2026-05-02T17:37:55Z</time></trkpt>
</trkseg>
</trk>
<trk>
<name>lstsp70</name>
<cmt>v</cmt>
<desc>Sprimont Sentier n°70 </desc>
<link href="https://chemins.be/sprimont/sentier/70"/><trkseg>
<trkpt lat="50.497101" lon="5.674283"><time>2026-05-02T16:47:55Z</time></trkpt>
<trkpt lat="50.495467" lon="5.676349"><time>2026-05-02T16:57:55Z</time></trkpt>
<trkpt lat="50.495215" lon="5.677275"><time>2026-05-02T17:07:55Z</time></trkpt>
<trkpt lat="50.495049" lon="5.678017"><time>2026-05-02T17:17:55Z</time></trkpt>
<trkpt lat="50.494153" lon="5.679848"><time>2026-05-02T17:27:55Z</time></trkpt>
<trkpt lat="50.493543" lon="5.680570"><time>2026-05-02T17:37:55Z</time></trkpt>
<trkpt lat="50.493038" lon="5.680248"><time>2026-05-02T17:47:55Z</time></trkpt>
</trkseg>
</trk>
<trk>
<name>lstsp71</name>
<cmt>q</cmt>
<desc>Sprimont Chemin n°71 </desc>
<link href="https://chemins.be/sprimont/chemin/71"/><trkseg>
<trkpt lat="50.491763" lon="5.665746"><time>2026-05-02T16:47:55Z</time></trkpt>
<trkpt lat="50.492941" lon="5.665969"><time>2026-05-02T16:57:55Z</time></trkpt>
</trkseg></trk>
<trk>
<name>lstsp71</name>
<cmt>r</cmt>
<desc>Sprimont Chemin n°71 </desc>
<link href="https://chemins.be/sprimont/chemin/71"/><trkseg>
<trkpt lat="50.492941" lon="5.665969"><time>2026-05-02T16:57:55Z</time></trkpt>
<trkpt lat="50.495394" lon="5.666090"><time>2026-05-02T17:07:55Z</time></trkpt>
</trkseg></trk>
<trk>
<name>lstsp71</name>
<cmt>v</cmt>
<desc>Sprimont Chemin n°71 </desc>
<link href="https://chemins.be/sprimont/chemin/71"/><trkseg>
<trkpt lat="50.495394" lon="5.666090"><time>2026-05-02T17:07:55Z</time></trkpt>
<trkpt lat="50.498148" lon="5.666052"><time>2026-05-02T17:17:55Z</time></trkpt>
</trkseg>
</trk>
<trk>
<name>lstsp72</name>
<cmt>v</cmt>
<desc>Sprimont Chemin n°72 </desc>
<link href="https://chemins.be/sprimont/chemin/72"/><trkseg>
<trkpt lat="50.503443" lon="5.675533"><time>2026-05-02T16:47:55Z</time></trkpt>
<trkpt lat="50.502460" lon="5.675390"><time>2026-05-02T16:57:55Z</time></trkpt>
<trkpt lat="50.502333" lon="5.674388"><time>2026-05-02T17:07:55Z</time></trkpt>
<trkpt lat="50.499730" lon="5.674760"><time>2026-05-02T17:17:55Z</time></trkpt>
<trkpt lat="50.498256" lon="5.676877"><time>2026-05-02T17:27:55Z</time></trkpt>
</trkseg>
</trk>
<trk>
<name>lstsp73</name>
<cmt>s</cmt>
<desc>Sprimont Sentier n°73 </desc>
<link href="https://chemins.be/sprimont/sentier/73"/><trkseg>
<trkpt lat="50.522730" lon="5.663240"><time>2026-05-02T16:47:55Z</time></trkpt>
<trkpt lat="50.524258" lon="5.662908"><time>2026-05-02T16:57:55Z</time></trkpt>
<trkpt lat="50.525444" lon="5.663047"><time>2026-05-02T17:07:55Z</time></trkpt>
<trkpt lat="50.526253" lon="5.663734"><time>2026-05-02T17:17:55Z</time></trkpt>
</trkseg>
</trk>
<trk>
<name>lstsp74</name>
<cmt>v</cmt>
<desc>Sprimont Chemin n°74 </desc>
<link href="https://chemins.be/sprimont/chemin/74"/><trkseg>
<trkpt lat="50.503031" lon="5.679217"><time>2026-05-02T16:47:55Z</time></trkpt>
<trkpt lat="50.502788" lon="5.679354"><time>2026-05-02T16:57:55Z</time></trkpt>
<trkpt lat="50.502638" lon="5.679519"><time>2026-05-02T17:07:55Z</time></trkpt>
<trkpt lat="50.500045" lon="5.681278"><time>2026-05-02T17:17:55Z</time></trkpt>
</trkseg>
</trk>
<trk>
<name>lstsp75</name>
<cmt>v</cmt>
<desc>Sprimont Chemin n°75 </desc>
<link href="https://chemins.be/sprimont/chemin/75"/><trkseg>
<trkpt lat="50.502765" lon="5.679368"><time>2026-05-02T16:47:55Z</time></trkpt>
<trkpt lat="50.501373" lon="5.677802"><time>2026-05-02T16:57:55Z</time></trkpt>
<trkpt lat="50.499148" lon="5.677135"><time>2026-05-02T17:07:55Z</time></trkpt>
<trkpt lat="50.498402" lon="5.677507"><time>2026-05-02T17:17:55Z</time></trkpt>
<trkpt lat="50.497943" lon="5.677888"><time>2026-05-02T17:27:55Z</time></trkpt>
<trkpt lat="50.497624" lon="5.677738"><time>2026-05-02T17:37:55Z</time></trkpt>
<trkpt lat="50.495864" lon="5.678353"><time>2026-05-02T17:47:55Z</time></trkpt>
<trkpt lat="50.495359" lon="5.678353"><time>2026-05-02T17:57:55Z</time></trkpt>
<trkpt lat="50.495049" lon="5.677966"><time>2026-05-02T18:07:55Z</time></trkpt>
</trkseg>
</trk>
<trk>
<name>lstsp76</name>
<cmt>q</cmt>
<desc>Sprimont Sentier n°76 </desc>
<link href="https://chemins.be/sprimont/sentier/76"/><trkseg>
<trkpt lat="50.521127" lon="5.671196"><time>2026-05-02T16:47:55Z</time></trkpt>
<trkpt lat="50.520213" lon="5.671270"><time>2026-05-02T16:57:55Z</time></trkpt>
</trkseg></trk>
<trk>
<name>lstsp76</name>
<cmt>s</cmt>
<desc>Sprimont Sentier n°76 </desc>
<link href="https://chemins.be/sprimont/sentier/76"/><trkseg>
<trkpt lat="50.520213" lon="5.671270"><time>2026-05-02T16:57:55Z</time></trkpt>
<trkpt lat="50.519575" lon="5.671153"><time>2026-05-02T17:07:55Z</time></trkpt>
</trkseg>
</trk>
<trk>
<name>lstsp78</name>
<cmt>v</cmt>
<desc>Sprimont Chemin n°78 </desc>
<link href="https://chemins.be/sprimont/chemin/78"/><trkseg>
<trkpt lat="50.497519" lon="5.675158"><time>2026-05-02T16:47:55Z</time></trkpt>
<trkpt lat="50.497633" lon="5.677726"><time>2026-05-02T16:57:55Z</time></trkpt>
<trkpt lat="50.497589" lon="5.678893"><time>2026-05-02T17:07:55Z</time></trkpt>
<trkpt lat="50.496606" lon="5.681024"><time>2026-05-02T17:17:55Z</time></trkpt>
<trkpt lat="50.496588" lon="5.683141"><time>2026-05-02T17:27:55Z</time></trkpt>
<trkpt lat="50.497507" lon="5.685344"><time>2026-05-02T17:37:55Z</time></trkpt>
<trkpt lat="50.498067" lon="5.688084"><time>2026-05-02T17:47:55Z</time></trkpt>
<trkpt lat="50.498631" lon="5.689214"><time>2026-05-02T17:57:55Z</time></trkpt>
<trkpt lat="50.498799" lon="5.693198"><time>2026-05-02T18:07:55Z</time></trkpt>
<trkpt lat="50.498981" lon="5.694049"><time>2026-05-02T18:17:55Z</time></trkpt>
<trkpt lat="50.498708" lon="5.694671"><time>2026-05-02T18:27:55Z</time></trkpt>
<trkpt lat="50.498940" lon="5.696681"><time>2026-05-02T18:37:55Z</time></trkpt>
<trkpt lat="50.498831" lon="5.698112"><time>2026-05-02T18:47:55Z</time></trkpt>
<trkpt lat="50.498813" lon="5.700808"><time>2026-05-02T18:57:55Z</time></trkpt>
<trkpt lat="50.498549" lon="5.700966"><time>2026-05-02T19:07:55Z</time></trkpt>
</trkseg>
</trk>
<trk>
<name>lstsp8</name>
<cmt>v</cmt>
<desc>Sprimont Chemin n°8 Voie du Moulin</desc>
<link href="https://chemins.be/sprimont/chemin/8"/><trkseg>
<trkpt lat="50.514271" lon="5.593948"><time>2026-05-02T16:47:55Z</time></trkpt>
<trkpt lat="50.514257" lon="5.595287"><time>2026-05-02T16:57:55Z</time></trkpt>
<trkpt lat="50.513981" lon="5.597551"><time>2026-05-02T17:07:55Z</time></trkpt>
<trkpt lat="50.513644" lon="5.599685"><time>2026-05-02T17:17:55Z</time></trkpt>
<trkpt lat="50.514013" lon="5.602191"><time>2026-05-02T17:27:55Z</time></trkpt>
<trkpt lat="50.514427" lon="5.603795"><time>2026-05-02T17:37:55Z</time></trkpt>
<trkpt lat="50.514803" lon="5.606498"><time>2026-05-02T17:47:55Z</time></trkpt>
<trkpt lat="50.514708" lon="5.607289"><time>2026-05-02T17:57:55Z</time></trkpt>
<trkpt lat="50.514608" lon="5.607904"><time>2026-05-02T18:07:55Z</time></trkpt>
<trkpt lat="50.514681" lon="5.609421"><time>2026-05-02T18:17:55Z</time></trkpt>
<trkpt lat="50.514846" lon="5.610039"><time>2026-05-02T18:27:55Z</time></trkpt>
<trkpt lat="50.514665" lon="5.611021"><time>2026-05-02T18:37:55Z</time></trkpt>
<trkpt lat="50.514345" lon="5.613241"><time>2026-05-02T18:47:55Z</time></trkpt>
<trkpt lat="50.514649" lon="5.615096"><time>2026-05-02T18:57:55Z</time></trkpt>
<trkpt lat="50.514713" lon="5.617481"><time>2026-05-02T19:07:55Z</time></trkpt>
<trkpt lat="50.515135" lon="5.622527"><time>2026-05-02T19:17:55Z</time></trkpt>
</trkseg>
</trk>
<trk>
<name>lstsp82</name>
<cmt>v</cmt>
<desc>Sprimont Chemin n°82 </desc>
<link href="https://chemins.be/sprimont/chemin/82"/><trkseg>
<trkpt lat="50.489276" lon="5.674022"><time>2026-05-02T16:47:55Z</time></trkpt>
<trkpt lat="50.489072" lon="5.675088"><time>2026-05-02T16:57:55Z</time></trkpt>
<trkpt lat="50.488999" lon="5.676125"><time>2026-05-02T17:07:55Z</time></trkpt>
<trkpt lat="50.488375" lon="5.676833"><time>2026-05-02T17:17:55Z</time></trkpt>
<trkpt lat="50.487907" lon="5.678270"><time>2026-05-02T17:27:55Z</time></trkpt>
</trkseg></trk>
<trk>
<name>lstsp82</name>
<cmt>d</cmt>
<desc>Sprimont Chemin n°82 </desc>
<link href="https://chemins.be/sprimont/chemin/82"/><trkseg>
<trkpt lat="50.487907" lon="5.678270"><time>2026-05-02T17:27:55Z</time></trkpt>
<trkpt lat="50.487980" lon="5.679679"><time>2026-05-02T17:37:55Z</time></trkpt>
<trkpt lat="50.487943" lon="5.680652"><time>2026-05-02T17:47:55Z</time></trkpt>
<trkpt lat="50.487206" lon="5.681446"><time>2026-05-02T17:57:55Z</time></trkpt>
</trkseg></trk>
<trk>
<name>lstsp82</name>
<cmt>v</cmt>
<desc>Sprimont Chemin n°82 </desc>
<link href="https://chemins.be/sprimont/chemin/82"/><trkseg>
<trkpt lat="50.487206" lon="5.681446"><time>2026-05-02T17:57:55Z</time></trkpt>
<trkpt lat="50.486491" lon="5.682977"><time>2026-05-02T18:07:55Z</time></trkpt>
</trkseg>
</trk>
<trk>
<name>lstsp83</name>
<cmt>v</cmt>
<desc>Sprimont Chemin n°83 </desc>
<link href="https://chemins.be/sprimont/chemin/83"/><trkseg>
<trkpt lat="50.489477" lon="5.669451"><time>2026-05-02T16:47:55Z</time></trkpt>
<trkpt lat="50.489058" lon="5.670918"><time>2026-05-02T16:57:55Z</time></trkpt>
<trkpt lat="50.488917" lon="5.672663"><time>2026-05-02T17:07:55Z</time></trkpt>
<trkpt lat="50.489063" lon="5.673721"><time>2026-05-02T17:17:55Z</time></trkpt>
<trkpt lat="50.489072" lon="5.675002"><time>2026-05-02T17:27:55Z</time></trkpt>
</trkseg>
</trk>
<trk>
<name>lstsp84</name>
<cmt>r</cmt>
<desc>Sprimont Chemin n°84 Rue Fond Bolland</desc>
<link href="https://chemins.be/sprimont/chemin/84"/><trkseg>
<trkpt lat="50.485930" lon="5.671658"><time>2026-05-02T16:47:55Z</time></trkpt>
<trkpt lat="50.484713" lon="5.672752"><time>2026-05-02T16:57:55Z</time></trkpt>
</trkseg></trk>
<trk>
<name>lstsp84</name>
<cmt>v</cmt>
<desc>Sprimont Chemin n°84 Rue Fond Bolland</desc>
<link href="https://chemins.be/sprimont/chemin/84"/><trkseg>
<trkpt lat="50.484713" lon="5.672752"><time>2026-05-02T16:57:55Z</time></trkpt>
<trkpt lat="50.483207" lon="5.676374"><time>2026-05-02T17:07:55Z</time></trkpt>
<trkpt lat="50.483017" lon="5.677285"><time>2026-05-02T17:17:55Z</time></trkpt>
<trkpt lat="50.482963" lon="5.678030"><time>2026-05-02T17:27:55Z</time></trkpt>
</trkseg>
</trk>
<trk>
<name>lstsp85</name>
<cmt>d</cmt>
<desc>Sprimont Chemin n°85 </desc>
<link href="https://chemins.be/sprimont/chemin/85"/><trkseg>
<trkpt lat="50.482959" lon="5.678021"><time>2026-05-02T16:47:55Z</time></trkpt>
<trkpt lat="50.483368" lon="5.678758"><time>2026-05-02T16:57:55Z</time></trkpt>
<trkpt lat="50.484023" lon="5.678379"><time>2026-05-02T17:07:55Z</time></trkpt>
</trkseg>
</trk>
<trk>
<name>lstsp86</name>
<cmt>r</cmt>
<desc>Sprimont Chemin n°86 Rue Terre aux Roches</desc>
<link href="https://chemins.be/sprimont/chemin/86"/><trkseg>
<trkpt lat="50.484883" lon="5.668251"><time>2026-05-02T16:47:55Z</time></trkpt>
<trkpt lat="50.484849" lon="5.668319"><time>2026-05-02T16:57:55Z</time></trkpt>
<trkpt lat="50.484271" lon="5.668025"><time>2026-05-02T17:07:55Z</time></trkpt>
<trkpt lat="50.482823" lon="5.668128"><time>2026-05-02T17:17:55Z</time></trkpt>
</trkseg></trk>
<trk>
<name>lstsp86</name>
<cmt>v</cmt>
<desc>Sprimont Chemin n°86 Rue Terre aux Roches</desc>
<link href="https://chemins.be/sprimont/chemin/86"/><trkseg>
<trkpt lat="50.482823" lon="5.668128"><time>2026-05-02T17:17:55Z</time></trkpt>
<trkpt lat="50.481635" lon="5.668192"><time>2026-05-02T17:27:55Z</time></trkpt>
<trkpt lat="50.480898" lon="5.667642"><time>2026-05-02T17:37:55Z</time></trkpt>
</trkseg></trk>
<trk>
<name>lstsp86</name>
<cmt>q</cmt>
<desc>Sprimont Chemin n°86 Rue Terre aux Roches</desc>
<link href="https://chemins.be/sprimont/chemin/86"/><trkseg>
<trkpt lat="50.480898" lon="5.667642"><time>2026-05-02T17:37:55Z</time></trkpt>
<trkpt lat="50.478863" lon="5.666726"><time>2026-05-02T17:47:55Z</time></trkpt>
</trkseg>
</trk>
<trk>
<name>lstsp88</name>
<cmt>v</cmt>
<desc>Sprimont Sentier n°88 </desc>
<link href="https://chemins.be/sprimont/sentier/88"/><trkseg>
<trkpt lat="50.520523" lon="5.643907"><time>2026-05-02T16:47:55Z</time></trkpt>
<trkpt lat="50.521041" lon="5.644608"><time>2026-05-02T16:57:55Z</time></trkpt>
<trkpt lat="50.521508" lon="5.648320"><time>2026-05-02T17:07:55Z</time></trkpt>
</trkseg>
</trk>
<trk>
<name>lstsp89</name>
<cmt>r</cmt>
<desc>Sprimont Sentier n°89 Rue de Xhovémont</desc>
<link href="https://chemins.be/sprimont/sentier/89"/><trkseg>
<trkpt lat="50.519920" lon="5.642937"><time>2026-05-02T16:47:55Z</time></trkpt>
<trkpt lat="50.520438" lon="5.642372"><time>2026-05-02T16:57:55Z</time></trkpt>
<trkpt lat="50.520946" lon="5.640661"><time>2026-05-02T17:07:55Z</time></trkpt>
<trkpt lat="50.520964" lon="5.640095"><time>2026-05-02T17:17:55Z</time></trkpt>
</trkseg></trk>
<trk>
<name>lstsp89</name>
<cmt>v</cmt>
<desc>Sprimont Sentier n°89 Rue de Xhovémont</desc>
<link href="https://chemins.be/sprimont/sentier/89"/><trkseg>
<trkpt lat="50.520964" lon="5.640095"><time>2026-05-02T17:17:55Z</time></trkpt>
<trkpt lat="50.520989" lon="5.640061"><time>2026-05-02T17:27:55Z</time></trkpt>
<trkpt lat="50.520907" lon="5.639017"><time>2026-05-02T17:37:55Z</time></trkpt>
<trkpt lat="50.522366" lon="5.637050"><time>2026-05-02T17:47:55Z</time></trkpt>
<trkpt lat="50.524090" lon="5.639160"><time>2026-05-02T17:57:55Z</time></trkpt>
<trkpt lat="50.524531" lon="5.639096"><time>2026-05-02T18:07:55Z</time></trkpt>
</trkseg>
</trk>
<trk>
<name>lstsp9</name>
<cmt>v</cmt>
<desc>Sprimont Chemin n°9 </desc>
<link href="https://chemins.be/sprimont/chemin/9"/><trkseg>
<trkpt lat="50.528226" lon="5.600685"><time>2026-05-02T16:47:55Z</time></trkpt>
<trkpt lat="50.528644" lon="5.602008"><time>2026-05-02T16:57:55Z</time></trkpt>
<trkpt lat="50.528869" lon="5.602832"><time>2026-05-02T17:07:55Z</time></trkpt>
<trkpt lat="50.529954" lon="5.607360"><time>2026-05-02T17:17:55Z</time></trkpt>
</trkseg>
</trk>
<trk>
<name>lstsp91</name>
<cmt>v</cmt>
<desc>Sprimont Chemin n°91 Voie du Moulin / Rue de l'Epargne / Rue du Fays</desc>
<link href="https://chemins.be/sprimont/chemin/91"/><trkseg>
<trkpt lat="50.513935" lon="5.597634"><time>2026-05-02T16:47:55Z</time></trkpt>
<trkpt lat="50.516229" lon="5.605145"><time>2026-05-02T16:57:55Z</time></trkpt>
</trkseg></trk>
<trk>
<name>lstsp91</name>
<cmt>r</cmt>
<desc>Sprimont Chemin n°91 Voie du Moulin / Rue de l'Epargne / Rue du Fays</desc>
<link href="https://chemins.be/sprimont/chemin/91"/><trkseg>
<trkpt lat="50.516229" lon="5.605145"><time>2026-05-02T16:57:55Z</time></trkpt>
<trkpt lat="50.519225" lon="5.614518"><time>2026-05-02T17:07:55Z</time></trkpt>
<trkpt lat="50.518518" lon="5.616118"><time>2026-05-02T17:17:55Z</time></trkpt>
<trkpt lat="50.517600" lon="5.619229"><time>2026-05-02T17:27:55Z</time></trkpt>
<trkpt lat="50.514821" lon="5.622965"><time>2026-05-02T17:37:55Z</time></trkpt>
<trkpt lat="50.512837" lon="5.623687"><time>2026-05-02T17:47:55Z</time></trkpt>
<trkpt lat="50.512452" lon="5.624418"><time>2026-05-02T17:57:55Z</time></trkpt>
<trkpt lat="50.512663" lon="5.626154"><time>2026-05-02T18:07:55Z</time></trkpt>
<trkpt lat="50.512948" lon="5.627344"><time>2026-05-02T18:17:55Z</time></trkpt>
</trkseg>
</trk>
<trk>
<name>lstsp92</name>
<cmt>d</cmt>
<desc>Sprimont Chemin n°92 </desc>
<link href="https://chemins.be/sprimont/chemin/92"/><trkseg>
<trkpt lat="50.519582" lon="5.628201"><time>2026-05-02T16:47:55Z</time></trkpt>
<trkpt lat="50.518727" lon="5.622421"><time>2026-05-02T16:57:55Z</time></trkpt>
<trkpt lat="50.518183" lon="5.618053"><time>2026-05-02T17:07:55Z</time></trkpt>
</trkseg></trk>
<trk>
<name>lstsp92</name>
<cmt>r</cmt>
<desc>Sprimont Chemin n°92 </desc>
<link href="https://chemins.be/sprimont/chemin/92"/><trkseg>
<trkpt lat="50.518183" lon="5.618053"><time>2026-05-02T17:07:55Z</time></trkpt>
<trkpt lat="50.519329" lon="5.617881"><time>2026-05-02T17:17:55Z</time></trkpt>
</trkseg>
</trk>
<trk>
<name>lstsp93</name>
<cmt>r</cmt>
<desc>Sprimont Sentier n°93 Rue du Fays</desc>
<link href="https://chemins.be/sprimont/sentier/93"/><trkseg>
<trkpt lat="50.512892" lon="5.608911"><time>2026-05-02T16:47:55Z</time></trkpt>
<trkpt lat="50.511728" lon="5.609608"><time>2026-05-02T16:57:55Z</time></trkpt>
<trkpt lat="50.511305" lon="5.610252"><time>2026-05-02T17:07:55Z</time></trkpt>
<trkpt lat="50.511131" lon="5.612223"><time>2026-05-02T17:17:55Z</time></trkpt>
<trkpt lat="50.511186" lon="5.613350"><time>2026-05-02T17:27:55Z</time></trkpt>
<trkpt lat="50.511024" lon="5.615382"><time>2026-05-02T17:37:55Z</time></trkpt>
<trkpt lat="50.511614" lon="5.619448"><time>2026-05-02T17:47:55Z</time></trkpt>
<trkpt lat="50.511929" lon="5.620708"><time>2026-05-02T17:57:55Z</time></trkpt>
<trkpt lat="50.512185" lon="5.622197"><time>2026-05-02T18:07:55Z</time></trkpt>
</trkseg>
</trk>
<trk>
<name>lstsp94</name>
<cmt>v</cmt>
<desc>Sprimont Chemin n°94 Rue de Picoprè / Rue de Picopré</desc>
<link href="https://chemins.be/sprimont/chemin/94"/><trkseg>
<trkpt lat="50.506555" lon="5.603811"><time>2026-05-02T16:47:55Z</time></trkpt>
<trkpt lat="50.507139" lon="5.603966"><time>2026-05-02T16:57:55Z</time></trkpt>
<trkpt lat="50.507698" lon="5.604824"><time>2026-05-02T17:07:55Z</time></trkpt>
<trkpt lat="50.509496" lon="5.606531"><time>2026-05-02T17:17:55Z</time></trkpt>
<trkpt lat="50.510336" lon="5.607861"><time>2026-05-02T17:27:55Z</time></trkpt>
<trkpt lat="50.511437" lon="5.608698"><time>2026-05-02T17:37:55Z</time></trkpt>
<trkpt lat="50.512331" lon="5.608869"><time>2026-05-02T17:47:55Z</time></trkpt>
<trkpt lat="50.512972" lon="5.608848"><time>2026-05-02T17:57:55Z</time></trkpt>
</trkseg></trk>
<trk>
<name>lstsp94</name>
<cmt>d</cmt>
<desc>Sprimont Chemin n°94 Rue de Picoprè / Rue de Picopré</desc>
<link href="https://chemins.be/sprimont/chemin/94"/><trkseg>
<trkpt lat="50.512972" lon="5.608848"><time>2026-05-02T17:57:55Z</time></trkpt>
<trkpt lat="50.513682" lon="5.608923"><time>2026-05-02T18:07:55Z</time></trkpt>
<trkpt lat="50.514501" lon="5.609706"><time>2026-05-02T18:17:55Z</time></trkpt>
<trkpt lat="50.514685" lon="5.610886"><time>2026-05-02T18:27:55Z</time></trkpt>
</trkseg>
</trk>
<trk>
<name>lstsp95</name>
<cmt>v</cmt>
<desc>Sprimont Sentier n°95 </desc>
<link href="https://chemins.be/sprimont/sentier/95"/><trkseg>
<trkpt lat="50.512898" lon="5.603008"><time>2026-05-02T16:47:55Z</time></trkpt>
<trkpt lat="50.512449" lon="5.603786"><time>2026-05-02T16:57:55Z</time></trkpt>
<trkpt lat="50.512050" lon="5.605848"><time>2026-05-02T17:07:55Z</time></trkpt>
</trkseg>
</trk>
<trk>
<name>lstsp96</name>
<cmt>v</cmt>
<desc>Sprimont Sentier n°96 </desc>
<link href="https://chemins.be/sprimont/sentier/96"/><trkseg>
<trkpt lat="50.520513" lon="5.600730"><time>2026-05-02T16:47:55Z</time></trkpt>
<trkpt lat="50.520195" lon="5.600093"><time>2026-05-02T16:57:55Z</time></trkpt>
<trkpt lat="50.519672" lon="5.600064"><time>2026-05-02T17:07:55Z</time></trkpt>
</trkseg></trk>
<trk>
<name>lstsp96</name>
<cmt>r</cmt>
<desc>Sprimont Sentier n°96 </desc>
<link href="https://chemins.be/sprimont/sentier/96"/><trkseg>
<trkpt lat="50.519672" lon="5.600064"><time>2026-05-02T17:07:55Z</time></trkpt>
<trkpt lat="50.519287" lon="5.601882"><time>2026-05-02T17:17:55Z</time></trkpt>
</trkseg></trk>
<trk>
<name>lstsp96</name>
<cmt>v</cmt>
<desc>Sprimont Sentier n°96 </desc>
<link href="https://chemins.be/sprimont/sentier/96"/><trkseg>
<trkpt lat="50.519287" lon="5.601882"><time>2026-05-02T17:17:55Z</time></trkpt>
<trkpt lat="50.519086" lon="5.601307"><time>2026-05-02T17:27:55Z</time></trkpt>
<trkpt lat="50.518953" lon="5.601063"><time>2026-05-02T17:37:55Z</time></trkpt>
<trkpt lat="50.518662" lon="5.600706"><time>2026-05-02T17:47:55Z</time></trkpt>
<trkpt lat="50.518530" lon="5.600404"><time>2026-05-02T17:57:55Z</time></trkpt>
<trkpt lat="50.518440" lon="5.600069"><time>2026-05-02T18:07:55Z</time></trkpt>
<trkpt lat="50.518387" lon="5.599826"><time>2026-05-02T18:17:55Z</time></trkpt>
<trkpt lat="50.517184" lon="5.598333"><time>2026-05-02T18:27:55Z</time></trkpt>
<trkpt lat="50.514028" lon="5.592710"><time>2026-05-02T18:37:55Z</time></trkpt>
</trkseg>
</trk>
<trk>
<name>lstsp98</name>
<cmt>v</cmt>
<desc>Sprimont Chemin n°98 La Haze / Moulin à Vent</desc>
<link href="https://chemins.be/sprimont/chemin/98"/><trkseg>
<trkpt lat="50.520176" lon="5.601259"><time>2026-05-02T16:47:55Z</time></trkpt>
<trkpt lat="50.520605" lon="5.601380"><time>2026-05-02T16:57:55Z</time></trkpt>
<trkpt lat="50.520881" lon="5.601981"><time>2026-05-02T17:07:55Z</time></trkpt>
</trkseg></trk>
<trk>
<name>lstsp98</name>
<cmt>r</cmt>
<desc>Sprimont Chemin n°98 La Haze / Moulin à Vent</desc>
<link href="https://chemins.be/sprimont/chemin/98"/><trkseg>
<trkpt lat="50.520881" lon="5.601981"><time>2026-05-02T17:07:55Z</time></trkpt>
<trkpt lat="50.521208" lon="5.602612"><time>2026-05-02T17:17:55Z</time></trkpt>
<trkpt lat="50.521964" lon="5.605050"><time>2026-05-02T17:27:55Z</time></trkpt>
</trkseg></trk>
<trk>
<name>lstsp98</name>
<cmt>v</cmt>
<desc>Sprimont Chemin n°98 La Haze / Moulin à Vent</desc>
<link href="https://chemins.be/sprimont/chemin/98"/><trkseg>
<trkpt lat="50.521964" lon="5.605050"><time>2026-05-02T17:27:55Z</time></trkpt>
<trkpt lat="50.522958" lon="5.607794"><time>2026-05-02T17:37:55Z</time></trkpt>
</trkseg></trk>
<trk>
<name>lstsp98</name>
<cmt>d</cmt>
<desc>Sprimont Chemin n°98 La Haze / Moulin à Vent</desc>
<link href="https://chemins.be/sprimont/chemin/98"/><trkseg>
<trkpt lat="50.522958" lon="5.607794"><time>2026-05-02T17:37:55Z</time></trkpt>
<trkpt lat="50.524729" lon="5.606560"><time>2026-05-02T17:47:55Z</time></trkpt>
</trkseg></trk>
<trk>
<name>lstsp98</name>
<cmt>r</cmt>
<desc>Sprimont Chemin n°98 La Haze / Moulin à Vent</desc>
<link href="https://chemins.be/sprimont/chemin/98"/><trkseg>
<trkpt lat="50.524729" lon="5.606560"><time>2026-05-02T17:47:55Z</time></trkpt>
<trkpt lat="50.525265" lon="5.606053"><time>2026-05-02T17:57:55Z</time></trkpt>
<trkpt lat="50.525746" lon="5.605614"><time>2026-05-02T18:07:55Z</time></trkpt>
<trkpt lat="50.525960" lon="5.605166"><time>2026-05-02T18:17:55Z</time></trkpt>
<trkpt lat="50.526122" lon="5.604600"><time>2026-05-02T18:27:55Z</time></trkpt>
</trkseg></trk>
<trk>
<name>lstsp98</name>
<cmt>v</cmt>
<desc>Sprimont Chemin n°98 La Haze / Moulin à Vent</desc>
<link href="https://chemins.be/sprimont/chemin/98"/><trkseg>
<trkpt lat="50.526122" lon="5.604600"><time>2026-05-02T18:27:55Z</time></trkpt>
<trkpt lat="50.526277" lon="5.603893"><time>2026-05-02T18:37:55Z</time></trkpt>
<trkpt lat="50.526260" lon="5.602947"><time>2026-05-02T18:47:55Z</time></trkpt>
<trkpt lat="50.527007" lon="5.601679"><time>2026-05-02T18:57:55Z</time></trkpt>
<trkpt lat="50.528198" lon="5.600620"><time>2026-05-02T19:07:55Z</time></trkpt>
<trkpt lat="50.529559" lon="5.599475"><time>2026-05-02T19:17:55Z</time></trkpt>
<trkpt lat="50.529912" lon="5.599042"><time>2026-05-02T19:27:55Z</time></trkpt>
<trkpt lat="50.530281" lon="5.598718"><time>2026-05-02T19:37:55Z</time></trkpt>
<trkpt lat="50.531626" lon="5.598381"><time>2026-05-02T19:47:55Z</time></trkpt>
<trkpt lat="50.533491" lon="5.597287"><time>2026-05-02T19:57:55Z</time></trkpt>
</trkseg>
</trk>
<trk>
<name>lstsp99</name>
<cmt>v</cmt>
<desc>Sprimont Chemin n°99 </desc>
<link href="https://chemins.be/sprimont/chemin/99"/><trkseg>
<trkpt lat="50.489784" lon="5.645639"><time>2026-05-02T16:47:55Z</time></trkpt>
<trkpt lat="50.487845" lon="5.645167"><time>2026-05-02T16:57:55Z</time></trkpt>
<trkpt lat="50.486908" lon="5.644637"><time>2026-05-02T17:07:55Z</time></trkpt>
<trkpt lat="50.485670" lon="5.642034"><time>2026-05-02T17:17:55Z</time></trkpt>
<trkpt lat="50.484393" lon="5.641013"><time>2026-05-02T17:27:55Z</time></trkpt>
</trkseg>
</trk>
<trk>
<name>lstspi1</name>
<cmt>v</cmt>
<desc>Sprimont Sentier n°i1 </desc>
<link href="https://chemins.be/sprimont/sentier/i1"/><trkseg>
<trkpt lat="50.501792" lon="5.596349"><time>2026-05-02T16:47:55Z</time></trkpt>
<trkpt lat="50.503264" lon="5.596610"><time>2026-05-02T16:57:55Z</time></trkpt>
</trkseg>
</trk>
<trk>
<name>lstspi10</name>
<cmt>v</cmt>
<desc>Sprimont Chemin n°i10 </desc>
<link href="https://chemins.be/sprimont/chemin/i10"/><trkseg>
<trkpt lat="50.498808" lon="5.700805"><time>2026-05-02T16:47:55Z</time></trkpt>
<trkpt lat="50.498907" lon="5.701089"><time>2026-05-02T16:57:55Z</time></trkpt>
</trkseg>
</trk>
<trk>
<name>lstspi11</name>
<cmt>v</cmt>
<desc>Sprimont Chemin n°i11 </desc>
<link href="https://chemins.be/sprimont/chemin/i11"/><trkseg>
<trkpt lat="50.501831" lon="5.686412"><time>2026-05-02T16:47:55Z</time></trkpt>
<trkpt lat="50.501391" lon="5.686857"><time>2026-05-02T16:57:55Z</time></trkpt>
</trkseg>
</trk>
<trk>
<name>lstspi12</name>
<cmt>v</cmt>
<desc>Sprimont Chemin n°i12 </desc>
<link href="https://chemins.be/sprimont/chemin/i12"/><trkseg>
<trkpt lat="50.518691" lon="5.612883"><time>2026-05-02T16:47:55Z</time></trkpt>
<trkpt lat="50.518321" lon="5.613348"><time>2026-05-02T16:57:55Z</time></trkpt>
<trkpt lat="50.518196" lon="5.613787"><time>2026-05-02T17:07:55Z</time></trkpt>
</trkseg>
</trk>
<trk>
<name>lstspi13</name>
<cmt>v</cmt>
<desc>Sprimont Chemin n°i13 </desc>
<link href="https://chemins.be/sprimont/chemin/i13"/><trkseg>
<trkpt lat="50.536522" lon="5.634734"><time>2026-05-02T16:47:55Z</time></trkpt>
<trkpt lat="50.536174" lon="5.634866"><time>2026-05-02T16:57:55Z</time></trkpt>
<trkpt lat="50.535804" lon="5.634780"><time>2026-05-02T17:07:55Z</time></trkpt>
</trkseg>
</trk>
<trk>
<name>lstspi14</name>
<cmt>v</cmt>
<desc>Sprimont Sentier n°i14 </desc>
<link href="https://chemins.be/sprimont/sentier/i14"/><trkseg>
<trkpt lat="50.515346" lon="5.634487"><time>2026-05-02T16:47:55Z</time></trkpt>
<trkpt lat="50.515771" lon="5.634104"><time>2026-05-02T16:57:55Z</time></trkpt>
<trkpt lat="50.516290" lon="5.633968"><time>2026-05-02T17:07:55Z</time></trkpt>
</trkseg>
</trk>
<trk>
<name>lstspi15</name>
<cmt>v</cmt>
<desc>Sprimont Chemin n°i15 </desc>
<link href="https://chemins.be/sprimont/chemin/i15"/><trkseg>
<trkpt lat="50.485754" lon="5.671955"><time>2026-05-02T16:47:55Z</time></trkpt>
<trkpt lat="50.486423" lon="5.672677"><time>2026-05-02T16:57:55Z</time></trkpt>
<trkpt lat="50.486528" lon="5.673643"><time>2026-05-02T17:07:55Z</time></trkpt>
<trkpt lat="50.486201" lon="5.674395"><time>2026-05-02T17:17:55Z</time></trkpt>
</trkseg></trk>
<trk>
<name>lstspi15</name>
<cmt>d</cmt>
<desc>Sprimont Chemin n°i15 </desc>
<link href="https://chemins.be/sprimont/chemin/i15"/><trkseg>
<trkpt lat="50.486201" lon="5.674395"><time>2026-05-02T17:17:55Z</time></trkpt>
<trkpt lat="50.485636" lon="5.675817"><time>2026-05-02T17:27:55Z</time></trkpt>
<trkpt lat="50.485499" lon="5.676947"><time>2026-05-02T17:37:55Z</time></trkpt>
<trkpt lat="50.484707" lon="5.678156"><time>2026-05-02T17:47:55Z</time></trkpt>
<trkpt lat="50.484307" lon="5.678428"><time>2026-05-02T17:57:55Z</time></trkpt>
<trkpt lat="50.484048" lon="5.678378"><time>2026-05-02T18:07:55Z</time></trkpt>
</trkseg>
</trk>
<trk>
<name>lstspi16</name>
<cmt>v</cmt>
<desc>Sprimont Chemin n°i16 </desc>
<link href="https://chemins.be/sprimont/chemin/i16"/><trkseg>
<trkpt lat="50.487916" lon="5.678256"><time>2026-05-02T16:47:55Z</time></trkpt>
<trkpt lat="50.487370" lon="5.679708"><time>2026-05-02T16:57:55Z</time></trkpt>
<trkpt lat="50.487188" lon="5.681418"><time>2026-05-02T17:07:55Z</time></trkpt>
</trkseg>
</trk>
<trk>
<name>lstspi17</name>
<cmt>v</cmt>
<desc>Sprimont Chemin n°i17 </desc>
<link href="https://chemins.be/sprimont/chemin/i17"/><trkseg>
<trkpt lat="50.484289" lon="5.648716"><time>2026-05-02T16:47:55Z</time></trkpt>
<trkpt lat="50.483765" lon="5.647758"><time>2026-05-02T16:57:55Z</time></trkpt>
<trkpt lat="50.483647" lon="5.646914"><time>2026-05-02T17:07:55Z</time></trkpt>
<trkpt lat="50.483324" lon="5.646299"><time>2026-05-02T17:17:55Z</time></trkpt>
<trkpt lat="50.481867" lon="5.644546"><time>2026-05-02T17:27:55Z</time></trkpt>
<trkpt lat="50.481553" lon="5.643809"><time>2026-05-02T17:37:55Z</time></trkpt>
<trkpt lat="50.480939" lon="5.643237"><time>2026-05-02T17:47:55Z</time></trkpt>
<trkpt lat="50.480676" lon="5.644118"><time>2026-05-02T17:57:55Z</time></trkpt>
<trkpt lat="50.480523" lon="5.643724"><time>2026-05-02T18:07:55Z</time></trkpt>
<trkpt lat="50.480419" lon="5.643800"><time>2026-05-02T18:17:55Z</time></trkpt>
<trkpt lat="50.480341" lon="5.644121"><time>2026-05-02T18:27:55Z</time></trkpt>
<trkpt lat="50.480268" lon="5.643864"><time>2026-05-02T18:37:55Z</time></trkpt>
</trkseg>
</trk>
<trk>
<name>lstspi18</name>
<cmt>v</cmt>
<desc>Sprimont Chemin n°i18 </desc>
<link href="https://chemins.be/sprimont/chemin/i18"/><trkseg>
<trkpt lat="50.493102" lon="5.685722"><time>2026-05-02T16:47:55Z</time></trkpt>
<trkpt lat="50.492547" lon="5.688769"><time>2026-05-02T16:57:55Z</time></trkpt>
<trkpt lat="50.493593" lon="5.693246"><time>2026-05-02T17:07:55Z</time></trkpt>
<trkpt lat="50.493075" lon="5.696937"><time>2026-05-02T17:17:55Z</time></trkpt>
<trkpt lat="50.492465" lon="5.697852"><time>2026-05-02T17:27:55Z</time></trkpt>
<trkpt lat="50.492210" lon="5.699068"><time>2026-05-02T17:37:55Z</time></trkpt>
</trkseg>
</trk>
<trk>
<name>lstspi19</name>
<cmt>v</cmt>
<desc>Sprimont Chemin n°i19 </desc>
<link href="https://chemins.be/sprimont/chemin/i19"/><trkseg>
<trkpt lat="50.533654" lon="5.643443"><time>2026-05-02T16:47:55Z</time></trkpt>
<trkpt lat="50.534213" lon="5.646342"><time>2026-05-02T16:57:55Z</time></trkpt>
</trkseg>
</trk>
<trk>
<name>lstspi2</name>
<cmt>v</cmt>
<desc>Sprimont Sentier n°i2 </desc>
<link href="https://chemins.be/sprimont/sentier/i2"/><trkseg>
<trkpt lat="50.484742" lon="5.649261"><time>2026-05-02T16:47:55Z</time></trkpt>
<trkpt lat="50.484193" lon="5.650046"><time>2026-05-02T16:57:55Z</time></trkpt>
<trkpt lat="50.483719" lon="5.649725"><time>2026-05-02T17:07:55Z</time></trkpt>
<trkpt lat="50.483569" lon="5.649810"><time>2026-05-02T17:17:55Z</time></trkpt>
<trkpt lat="50.483756" lon="5.650447"><time>2026-05-02T17:27:55Z</time></trkpt>
<trkpt lat="50.483933" lon="5.651355"><time>2026-05-02T17:37:55Z</time></trkpt>
</trkseg>
</trk>
<trk>
<name>lstspi20</name>
<cmt>v</cmt>
<desc>Sprimont Chemin n°i20 </desc>
<link href="https://chemins.be/sprimont/chemin/i20"/><trkseg>
<trkpt lat="50.482703" lon="5.650788"><time>2026-05-02T16:47:55Z</time></trkpt>
<trkpt lat="50.482715" lon="5.650541"><time>2026-05-02T16:57:55Z</time></trkpt>
<trkpt lat="50.482517" lon="5.650151"><time>2026-05-02T17:07:55Z</time></trkpt>
<trkpt lat="50.482373" lon="5.649611"><time>2026-05-02T17:17:55Z</time></trkpt>
<trkpt lat="50.481547" lon="5.647948"><time>2026-05-02T17:27:55Z</time></trkpt>
<trkpt lat="50.481062" lon="5.646957"><time>2026-05-02T17:37:55Z</time></trkpt>
<trkpt lat="50.480825" lon="5.645798"><time>2026-05-02T17:47:55Z</time></trkpt>
<trkpt lat="50.480457" lon="5.645190"><time>2026-05-02T17:57:55Z</time></trkpt>
<trkpt lat="50.480061" lon="5.644990"><time>2026-05-02T18:07:55Z</time></trkpt>
<trkpt lat="50.479624" lon="5.644947"><time>2026-05-02T18:17:55Z</time></trkpt>
</trkseg></trk>
<trk>
<name>lstspi20</name>
<cmt>q</cmt>
<desc>Sprimont Chemin n°i20 </desc>
<link href="https://chemins.be/sprimont/chemin/i20"/><trkseg>
<trkpt lat="50.479624" lon="5.644947"><time>2026-05-02T18:17:55Z</time></trkpt>
<trkpt lat="50.479266" lon="5.645493"><time>2026-05-02T18:27:55Z</time></trkpt>
<trkpt lat="50.479162" lon="5.645613"><time>2026-05-02T18:37:55Z</time></trkpt>
<trkpt lat="50.478998" lon="5.646554"><time>2026-05-02T18:47:55Z</time></trkpt>
<trkpt lat="50.479372" lon="5.648299"><time>2026-05-02T18:57:55Z</time></trkpt>
</trkseg>
</trk>
<trk>
<name>lstspi21</name>
<cmt>v</cmt>
<desc>Sprimont Sentier n°i21 </desc>
<link href="https://chemins.be/sprimont/sentier/i21"/><trkseg>
<trkpt lat="50.479685" lon="5.645086"><time>2026-05-02T16:47:55Z</time></trkpt>
<trkpt lat="50.479381" lon="5.644751"><time>2026-05-02T16:57:55Z</time></trkpt>
</trkseg>
</trk>
<trk>
<name>lstspi22</name>
<cmt>v</cmt>
<desc>Sprimont Chemin n°i22 </desc>
<link href="https://chemins.be/sprimont/chemin/i22"/><trkseg>
<trkpt lat="50.479511" lon="5.644601"><time>2026-05-02T16:47:55Z</time></trkpt>
<trkpt lat="50.479554" lon="5.644813"><time>2026-05-02T16:57:55Z</time></trkpt>
<trkpt lat="50.479620" lon="5.644942"><time>2026-05-02T17:07:55Z</time></trkpt>
</trkseg></trk>
<trk>
<name>lstspi22</name>
<cmt>q</cmt>
<desc>Sprimont Chemin n°i22 </desc>
<link href="https://chemins.be/sprimont/chemin/i22"/><trkseg>
<trkpt lat="50.479620" lon="5.644942"><time>2026-05-02T17:07:55Z</time></trkpt>
<trkpt lat="50.479681" lon="5.645066"><time>2026-05-02T17:17:55Z</time></trkpt>
<trkpt lat="50.479718" lon="5.645298"><time>2026-05-02T17:27:55Z</time></trkpt>
<trkpt lat="50.479974" lon="5.645683"><time>2026-05-02T17:37:55Z</time></trkpt>
<trkpt lat="50.480215" lon="5.645683"><time>2026-05-02T17:47:55Z</time></trkpt>
<trkpt lat="50.480247" lon="5.645927"><time>2026-05-02T17:57:55Z</time></trkpt>
<trkpt lat="50.480457" lon="5.646091"><time>2026-05-02T18:07:55Z</time></trkpt>
<trkpt lat="50.480707" lon="5.648015"><time>2026-05-02T18:17:55Z</time></trkpt>
<trkpt lat="50.480907" lon="5.648251"><time>2026-05-02T18:27:55Z</time></trkpt>
<trkpt lat="50.480948" lon="5.648573"><time>2026-05-02T18:37:55Z</time></trkpt>
<trkpt lat="50.481139" lon="5.648959"><time>2026-05-02T18:47:55Z</time></trkpt>
<trkpt lat="50.481326" lon="5.649045"><time>2026-05-02T18:57:55Z</time></trkpt>
<trkpt lat="50.481435" lon="5.649603"><time>2026-05-02T19:07:55Z</time></trkpt>
</trkseg>
</trk>
<trk>
<name>lstspi23</name>
<cmt>d</cmt>
<desc>Sprimont Chemin n°i23 </desc>
<link href="https://chemins.be/sprimont/chemin/i23"/><trkseg>
<trkpt lat="50.512971" lon="5.608677"><time>2026-05-02T16:47:55Z</time></trkpt>
<trkpt lat="50.513119" lon="5.608033"><time>2026-05-02T16:57:55Z</time></trkpt>
<trkpt lat="50.513095" lon="5.607618"><time>2026-05-02T17:07:55Z</time></trkpt>
<trkpt lat="50.513213" lon="5.607136"><time>2026-05-02T17:17:55Z</time></trkpt>
<trkpt lat="50.513365" lon="5.606946"><time>2026-05-02T17:27:55Z</time></trkpt>
<trkpt lat="50.513450" lon="5.606512"><time>2026-05-02T17:37:55Z</time></trkpt>
<trkpt lat="50.514717" lon="5.607237"><time>2026-05-02T17:47:55Z</time></trkpt>
</trkseg>
</trk>
<trk>
<name>lstspi3</name>
<cmt>v</cmt>
<desc>Sprimont Sentier n°i3 </desc>
<link href="https://chemins.be/sprimont/sentier/i3"/><trkseg>
<trkpt lat="50.503235" lon="5.596870"><time>2026-05-02T16:47:55Z</time></trkpt>
<trkpt lat="50.503734" lon="5.596660"><time>2026-05-02T16:57:55Z</time></trkpt>
<trkpt lat="50.504070" lon="5.596603"><time>2026-05-02T17:07:55Z</time></trkpt>
<trkpt lat="50.504381" lon="5.596558"><time>2026-05-02T17:17:55Z</time></trkpt>
<trkpt lat="50.504780" lon="5.596455"><time>2026-05-02T17:27:55Z</time></trkpt>
<trkpt lat="50.505097" lon="5.596305"><time>2026-05-02T17:37:55Z</time></trkpt>
<trkpt lat="50.505385" lon="5.596107"><time>2026-05-02T17:47:55Z</time></trkpt>
<trkpt lat="50.505860" lon="5.595683"><time>2026-05-02T17:57:55Z</time></trkpt>
<trkpt lat="50.506303" lon="5.595366"><time>2026-05-02T18:07:55Z</time></trkpt>
<trkpt lat="50.506740" lon="5.595087"><time>2026-05-02T18:17:55Z</time></trkpt>
<trkpt lat="50.507122" lon="5.594959"><time>2026-05-02T18:27:55Z</time></trkpt>
<trkpt lat="50.507284" lon="5.594939"><time>2026-05-02T18:37:55Z</time></trkpt>
<trkpt lat="50.507410" lon="5.594934"><time>2026-05-02T18:47:55Z</time></trkpt>
<trkpt lat="50.507594" lon="5.594929"><time>2026-05-02T18:57:55Z</time></trkpt>
<trkpt lat="50.507669" lon="5.594870"><time>2026-05-02T19:07:55Z</time></trkpt>
<trkpt lat="50.507735" lon="5.594789"><time>2026-05-02T19:17:55Z</time></trkpt>
<trkpt lat="50.507891" lon="5.594580"><time>2026-05-02T19:27:55Z</time></trkpt>
<trkpt lat="50.507967" lon="5.594473"><time>2026-05-02T19:37:55Z</time></trkpt>
<trkpt lat="50.508020" lon="5.594440"><time>2026-05-02T19:47:55Z</time></trkpt>
<trkpt lat="50.508208" lon="5.594387"><time>2026-05-02T19:57:55Z</time></trkpt>
<trkpt lat="50.508578" lon="5.594239"><time>2026-05-02T20:07:55Z</time></trkpt>
<trkpt lat="50.508682" lon="5.594194"><time>2026-05-02T20:17:55Z</time></trkpt>
<trkpt lat="50.508798" lon="5.594103"><time>2026-05-02T20:27:55Z</time></trkpt>
<trkpt lat="50.509098" lon="5.593837"><time>2026-05-02T20:37:55Z</time></trkpt>
<trkpt lat="50.509259" lon="5.593703"><time>2026-05-02T20:47:55Z</time></trkpt>
<trkpt lat="50.509330" lon="5.593719"><time>2026-05-02T20:57:55Z</time></trkpt>
<trkpt lat="50.509419" lon="5.593837"><time>2026-05-02T21:07:55Z</time></trkpt>
</trkseg>
</trk>
<trk>
<name>lstspi4</name>
<cmt>v</cmt>
<desc>Sprimont Chemin n°i4 </desc>
<link href="https://chemins.be/sprimont/chemin/i4"/><trkseg>
<trkpt lat="50.482003" lon="5.650350"><time>2026-05-02T16:47:55Z</time></trkpt>
<trkpt lat="50.481375" lon="5.651545"><time>2026-05-02T16:57:55Z</time></trkpt>
<trkpt lat="50.481284" lon="5.652453"><time>2026-05-02T17:07:55Z</time></trkpt>
<trkpt lat="50.481480" lon="5.653841"><time>2026-05-02T17:17:55Z</time></trkpt>
</trkseg>
</trk>
<trk>
<name>lstspi5</name>
<cmt>v</cmt>
<desc>Sprimont Chemin n°i5 </desc>
<link href="https://chemins.be/sprimont/chemin/i5"/><trkseg>
<trkpt lat="50.531369" lon="5.612899"><time>2026-05-02T16:47:55Z</time></trkpt>
<trkpt lat="50.529846" lon="5.613268"><time>2026-05-02T16:57:55Z</time></trkpt>
</trkseg>
</trk>
<trk>
<name>lstspi6</name>
<cmt>v</cmt>
<desc>Sprimont Sentier n°i6 </desc>
<link href="https://chemins.be/sprimont/sentier/i6"/><trkseg>
<trkpt lat="50.545978" lon="5.652089"><time>2026-05-02T16:47:55Z</time></trkpt>
<trkpt lat="50.545476" lon="5.650297"><time>2026-05-02T16:57:55Z</time></trkpt>
</trkseg>
</trk>
<trk>
<name>lstspi7</name>
<cmt>q</cmt>
<desc>Sprimont Chemin n°i7 </desc>
<link href="https://chemins.be/sprimont/chemin/i7"/><trkseg>
<trkpt lat="50.541298" lon="5.631073"><time>2026-05-02T16:47:55Z</time></trkpt>
<trkpt lat="50.540644" lon="5.626287"><time>2026-05-02T16:57:55Z</time></trkpt>
</trkseg>
</trk>
<trk>
<name>lstspi8</name>
<cmt>d</cmt>
<desc>Sprimont Chemin n°i8 </desc>
<link href="https://chemins.be/sprimont/chemin/i8"/><trkseg>
<trkpt lat="50.542205" lon="5.599396"><time>2026-05-02T16:47:55Z</time></trkpt>
<trkpt lat="50.541775" lon="5.598677"><time>2026-05-02T16:57:55Z</time></trkpt>
</trkseg>
</trk>
<trk>
<name>lstspi9</name>
<cmt>v</cmt>
<desc>Sprimont Chemin n°i9 </desc>
<link href="https://chemins.be/sprimont/chemin/i9"/><trkseg>
<trkpt lat="50.498804" lon="5.701282"><time>2026-05-02T16:47:55Z</time></trkpt>
<trkpt lat="50.499514" lon="5.700155"><time>2026-05-02T16:57:55Z</time></trkpt>
<trkpt lat="50.499760" lon="5.699646"><time>2026-05-02T17:07:55Z</time></trkpt>
<trkpt lat="50.500801" lon="5.698106"><time>2026-05-02T17:17:55Z</time></trkpt>
<trkpt lat="50.501879" lon="5.697146"><time>2026-05-02T17:27:55Z</time></trkpt>
<trkpt lat="50.502149" lon="5.697272"><time>2026-05-02T17:37:55Z</time></trkpt>
<trkpt lat="50.502512" lon="5.695918"><time>2026-05-02T17:47:55Z</time></trkpt>
<trkpt lat="50.503002" lon="5.693954"><time>2026-05-02T17:57:55Z</time></trkpt>
<trkpt lat="50.504606" lon="5.691900"><time>2026-05-02T18:07:55Z</time></trkpt>
<trkpt lat="50.506315" lon="5.690533"><time>2026-05-02T18:17:55Z</time></trkpt>
<trkpt lat="50.508008" lon="5.687831"><time>2026-05-02T18:27:55Z</time></trkpt>
<trkpt lat="50.508913" lon="5.686416"><time>2026-05-02T18:37:55Z</time></trkpt>
<trkpt lat="50.509438" lon="5.685001"><time>2026-05-02T18:47:55Z</time></trkpt>
</trkseg>
</trk>
<trk>
<name>lstspLv711</name>
<cmt>q</cmt>
<desc>Sprimont Chemin n°Lv711 </desc>
<link href="https://chemins.be/sprimont/chemin/Lv711"/><trkseg>
<trkpt lat="50.510971" lon="5.692186"><time>2026-05-02T16:47:55Z</time></trkpt>
<trkpt lat="50.510546" lon="5.691416"><time>2026-05-02T16:57:55Z</time></trkpt>
<trkpt lat="50.508314" lon="5.689361"><time>2026-05-02T17:07:55Z</time></trkpt>
</trkseg></trk>
<trk>
<name>lstspLv711</name>
<cmt>s</cmt>
<desc>Sprimont Chemin n°Lv711 </desc>
<link href="https://chemins.be/sprimont/chemin/Lv711"/><trkseg>
<trkpt lat="50.508314" lon="5.689361"><time>2026-05-02T17:07:55Z</time></trkpt>
<trkpt lat="50.507289" lon="5.688265"><time>2026-05-02T17:17:55Z</time></trkpt>
</trkseg></trk>
<trk>
<name>lstspLv711</name>
<cmt>v</cmt>
<desc>Sprimont Chemin n°Lv711 </desc>
<link href="https://chemins.be/sprimont/chemin/Lv711"/><trkseg>
<trkpt lat="50.507289" lon="5.688265"><time>2026-05-02T17:17:55Z</time></trkpt>
<trkpt lat="50.506192" lon="5.686568"><time>2026-05-02T17:27:55Z</time></trkpt>
<trkpt lat="50.505479" lon="5.685077"><time>2026-05-02T17:37:55Z</time></trkpt>
<trkpt lat="50.505014" lon="5.683716"><time>2026-05-02T17:47:55Z</time></trkpt>
<trkpt lat="50.504888" lon="5.683042"><time>2026-05-02T17:57:55Z</time></trkpt>
<trkpt lat="50.504872" lon="5.682463"><time>2026-05-02T18:07:55Z</time></trkpt>
</trkseg></trk>
<trk>
<name>lstspLv711</name>
<cmt>q</cmt>
<desc>Sprimont Chemin n°Lv711 </desc>
<link href="https://chemins.be/sprimont/chemin/Lv711"/><trkseg>
<trkpt lat="50.504872" lon="5.682463"><time>2026-05-02T18:07:55Z</time></trkpt>
<trkpt lat="50.505116" lon="5.679304"><time>2026-05-02T18:17:55Z</time></trkpt>
<trkpt lat="50.505118" lon="5.678203"><time>2026-05-02T18:27:55Z</time></trkpt>
</trkseg></trk>
<trk>
<name>lstspLv711</name>
<cmt>r</cmt>
<desc>Sprimont Chemin n°Lv711 </desc>
<link href="https://chemins.be/sprimont/chemin/Lv711"/><trkseg>
<trkpt lat="50.505118" lon="5.678203"><time>2026-05-02T18:27:55Z</time></trkpt>
<trkpt lat="50.504969" lon="5.676981"><time>2026-05-02T18:37:55Z</time></trkpt>
</trkseg></trk>
<trk>
<name>lstspLv711</name>
<cmt>s</cmt>
<desc>Sprimont Chemin n°Lv711 </desc>
<link href="https://chemins.be/sprimont/chemin/Lv711"/><trkseg>
<trkpt lat="50.504969" lon="5.676981"><time>2026-05-02T18:37:55Z</time></trkpt>
<trkpt lat="50.504587" lon="5.674217"><time>2026-05-02T18:47:55Z</time></trkpt>
<trkpt lat="50.504742" lon="5.672039"><time>2026-05-02T18:57:55Z</time></trkpt>
<trkpt lat="50.504639" lon="5.669894"><time>2026-05-02T19:07:55Z</time></trkpt>
</trkseg>
</trk>
<trk>
<name>lstspp1</name>
<cmt>q</cmt>
<desc>Sprimont Chemin particulier n°p1 </desc>
<link href="https://chemins.be/sprimont/chemin/p1"/><trkseg>
<trkpt lat="50.514123" lon="5.635541"><time>2026-05-02T16:47:55Z</time></trkpt>
<trkpt lat="50.513331" lon="5.631959"><time>2026-05-02T16:57:55Z</time></trkpt>
<trkpt lat="50.513154" lon="5.631998"><time>2026-05-02T17:07:55Z</time></trkpt>
<trkpt lat="50.513111" lon="5.631619"><time>2026-05-02T17:17:55Z</time></trkpt>
</trkseg>
</trk>
</gpx>